<?xml version="1.0" encoding="UTF-8" standalone="no" ?>
<gpx xmlns="http://www.topografix.com/GPX/1/1" xmlns:xsi="http://www.w3.org/2001/XMLSchema-instance" xsi:schemaLocation="http://www.topografix.com/GPX/1/1 http://www.topografix.com/GPX/1/1/gpx.xsd" version="1.1" creator="VisuGPX - https://www.visugpx.com">
  <metadata>
    <name>Permis moto 5ème et 6ème heure</name>
    <desc><![CDATA[Permis moto
5ème et 6ème heure
Moto : Yahamah MT-07]]></desc>
  </metadata>
  <trk>
    <name><![CDATA[Track 009]]></name>
    <desc><![CDATA[26 Nov 2018  3:10 pm]]></desc>
    <trkseg>
      <trkpt lat="43.74325" lon="7.18761">
        <ele>47.411</ele>
        <time>2018-11-26T14:11:54.996Z</time>
      </trkpt>
      <trkpt lat="43.74325" lon="7.18761">
        <ele>47.399</ele>
        <time>2018-11-26T14:14:04.098Z</time>
      </trkpt>
      <trkpt lat="43.7432" lon="7.18784">
        <ele>47.389</ele>
        <time>2018-11-26T14:14:14.890Z</time>
      </trkpt>
      <trkpt lat="43.74318" lon="7.18799">
        <ele>47.385</ele>
        <time>2018-11-26T14:14:18.778Z</time>
      </trkpt>
      <trkpt lat="43.74321" lon="7.18812">
        <ele>47.395</ele>
        <time>2018-11-26T14:14:23.265Z</time>
      </trkpt>
      <trkpt lat="43.74323" lon="7.18828">
        <ele>47.408</ele>
        <time>2018-11-26T14:14:28.868Z</time>
      </trkpt>
      <trkpt lat="43.74327" lon="7.18843">
        <ele>47.416</ele>
        <time>2018-11-26T14:14:32.214Z</time>
      </trkpt>
      <trkpt lat="43.7434" lon="7.18852">
        <ele>47.417</ele>
        <time>2018-11-26T14:14:35.562Z</time>
      </trkpt>
      <trkpt lat="43.74352" lon="7.18855">
        <ele>47.417</ele>
        <time>2018-11-26T14:14:38.479Z</time>
      </trkpt>
      <trkpt lat="43.74364" lon="7.18857">
        <ele>47.415</ele>
        <time>2018-11-26T14:14:41.069Z</time>
      </trkpt>
      <trkpt lat="43.74377" lon="7.18867">
        <ele>47.415</ele>
        <time>2018-11-26T14:14:43.893Z</time>
      </trkpt>
      <trkpt lat="43.74393" lon="7.18877">
        <ele>47.415</ele>
        <time>2018-11-26T14:14:47.033Z</time>
      </trkpt>
      <trkpt lat="43.74408" lon="7.18885">
        <ele>47.415</ele>
        <time>2018-11-26T14:14:49.811Z</time>
      </trkpt>
      <trkpt lat="43.74427" lon="7.18889">
        <ele>47.496</ele>
        <time>2018-11-26T14:14:53.002Z</time>
      </trkpt>
      <trkpt lat="43.74441" lon="7.1888">
        <ele>48.183</ele>
        <time>2018-11-26T14:14:55.732Z</time>
      </trkpt>
      <trkpt lat="43.74452" lon="7.18855">
        <ele>49.649</ele>
        <time>2018-11-26T14:14:58.804Z</time>
      </trkpt>
      <trkpt lat="43.74461" lon="7.18828">
        <ele>51.061</ele>
        <time>2018-11-26T14:15:01.685Z</time>
      </trkpt>
      <trkpt lat="43.74471" lon="7.18803">
        <ele>51.736</ele>
        <time>2018-11-26T14:15:04.462Z</time>
      </trkpt>
      <trkpt lat="43.7448" lon="7.1878">
        <ele>51.853</ele>
        <time>2018-11-26T14:15:07.195Z</time>
      </trkpt>
      <trkpt lat="43.74489" lon="7.18758">
        <ele>51.748</ele>
        <time>2018-11-26T14:15:10.041Z</time>
      </trkpt>
      <trkpt lat="43.74495" lon="7.18747">
        <ele>51.636</ele>
        <time>2018-11-26T14:15:11.993Z</time>
      </trkpt>
      <trkpt lat="43.74495" lon="7.18747">
        <ele>51.582</ele>
        <time>2018-11-26T14:15:16.993Z</time>
      </trkpt>
      <trkpt lat="43.74495" lon="7.18747">
        <ele>51.571</ele>
        <time>2018-11-26T14:15:18.865Z</time>
      </trkpt>
      <trkpt lat="43.74501" lon="7.18764">
        <ele>51.573</ele>
        <time>2018-11-26T14:15:23.063Z</time>
      </trkpt>
      <trkpt lat="43.74493" lon="7.18788">
        <ele>51.578</ele>
        <time>2018-11-26T14:15:26.140Z</time>
      </trkpt>
      <trkpt lat="43.74484" lon="7.18817">
        <ele>51.586</ele>
        <time>2018-11-26T14:15:29.092Z</time>
      </trkpt>
      <trkpt lat="43.74472" lon="7.18845">
        <ele>51.592</ele>
        <time>2018-11-26T14:15:32.074Z</time>
      </trkpt>
      <trkpt lat="43.74462" lon="7.18872">
        <ele>51.595</ele>
        <time>2018-11-26T14:15:34.836Z</time>
      </trkpt>
      <trkpt lat="43.74453" lon="7.18898">
        <ele>51.595</ele>
        <time>2018-11-26T14:15:37.717Z</time>
      </trkpt>
      <trkpt lat="43.74449" lon="7.18921">
        <ele>51.595</ele>
        <time>2018-11-26T14:15:40.475Z</time>
      </trkpt>
      <trkpt lat="43.74445" lon="7.18938">
        <ele>51.594</ele>
        <time>2018-11-26T14:15:42.992Z</time>
      </trkpt>
      <trkpt lat="43.74445" lon="7.18938">
        <ele>51.594</ele>
        <time>2018-11-26T14:15:47.992Z</time>
      </trkpt>
      <trkpt lat="43.74445" lon="7.18938">
        <ele>51.586</ele>
        <time>2018-11-26T14:15:48.503Z</time>
      </trkpt>
      <trkpt lat="43.74462" lon="7.18954">
        <ele>51.565</ele>
        <time>2018-11-26T14:15:53.460Z</time>
      </trkpt>
      <trkpt lat="43.74483" lon="7.1896">
        <ele>51.57</ele>
        <time>2018-11-26T14:15:56.739Z</time>
      </trkpt>
      <trkpt lat="43.74502" lon="7.1897">
        <ele>51.732</ele>
        <time>2018-11-26T14:15:59.770Z</time>
      </trkpt>
      <trkpt lat="43.74519" lon="7.18983">
        <ele>52.207</ele>
        <time>2018-11-26T14:16:02.768Z</time>
      </trkpt>
      <trkpt lat="43.74536" lon="7.18996">
        <ele>52.987</ele>
        <time>2018-11-26T14:16:05.314Z</time>
      </trkpt>
      <trkpt lat="43.74559" lon="7.19021">
        <ele>53.773</ele>
        <time>2018-11-26T14:16:08.301Z</time>
      </trkpt>
      <trkpt lat="43.7459" lon="7.19053">
        <ele>54.248</ele>
        <time>2018-11-26T14:16:11.444Z</time>
      </trkpt>
      <trkpt lat="43.74616" lon="7.19089">
        <ele>54.321</ele>
        <time>2018-11-26T14:16:14.393Z</time>
      </trkpt>
      <trkpt lat="43.74645" lon="7.19113">
        <ele>53.986</ele>
        <time>2018-11-26T14:16:17.259Z</time>
      </trkpt>
      <trkpt lat="43.74678" lon="7.19106">
        <ele>53.364</ele>
        <time>2018-11-26T14:16:20.210Z</time>
      </trkpt>
      <trkpt lat="43.74703" lon="7.19071">
        <ele>52.733</ele>
        <time>2018-11-26T14:16:23.249Z</time>
      </trkpt>
      <trkpt lat="43.74724" lon="7.19028">
        <ele>52.247</ele>
        <time>2018-11-26T14:16:26.298Z</time>
      </trkpt>
      <trkpt lat="43.74739" lon="7.18983">
        <ele>51.915</ele>
        <time>2018-11-26T14:16:29.359Z</time>
      </trkpt>
      <trkpt lat="43.74751" lon="7.18946">
        <ele>51.739</ele>
        <time>2018-11-26T14:16:32.436Z</time>
      </trkpt>
      <trkpt lat="43.74756" lon="7.18924">
        <ele>51.664</ele>
        <time>2018-11-26T14:16:34.982Z</time>
      </trkpt>
      <trkpt lat="43.74759" lon="7.18912">
        <ele>51.629</ele>
        <time>2018-11-26T14:16:36.991Z</time>
      </trkpt>
      <trkpt lat="43.74759" lon="7.18912">
        <ele>51.611</ele>
        <time>2018-11-26T14:16:39.991Z</time>
      </trkpt>
      <trkpt lat="43.74759" lon="7.18912">
        <ele>51.598</ele>
        <time>2018-11-26T14:17:32.610Z</time>
      </trkpt>
      <trkpt lat="43.74772" lon="7.18903">
        <ele>51.584</ele>
        <time>2018-11-26T14:17:39.997Z</time>
      </trkpt>
      <trkpt lat="43.74779" lon="7.18892">
        <ele>51.576</ele>
        <time>2018-11-26T14:17:42.466Z</time>
      </trkpt>
      <trkpt lat="43.74778" lon="7.18879">
        <ele>51.58</ele>
        <time>2018-11-26T14:17:44.450Z</time>
      </trkpt>
      <trkpt lat="43.74773" lon="7.18868">
        <ele>51.589</ele>
        <time>2018-11-26T14:17:46.137Z</time>
      </trkpt>
      <trkpt lat="43.74763" lon="7.18856">
        <ele>51.594</ele>
        <time>2018-11-26T14:17:47.982Z</time>
      </trkpt>
      <trkpt lat="43.7475" lon="7.18838">
        <ele>51.596</ele>
        <time>2018-11-26T14:17:49.731Z</time>
      </trkpt>
      <trkpt lat="43.74734" lon="7.18815">
        <ele>51.595</ele>
        <time>2018-11-26T14:17:51.564Z</time>
      </trkpt>
      <trkpt lat="43.74711" lon="7.18786">
        <ele>51.595</ele>
        <time>2018-11-26T14:17:53.602Z</time>
      </trkpt>
      <trkpt lat="43.74684" lon="7.18761">
        <ele>51.593</ele>
        <time>2018-11-26T14:17:55.642Z</time>
      </trkpt>
      <trkpt lat="43.74652" lon="7.18737">
        <ele>51.588</ele>
        <time>2018-11-26T14:17:57.729Z</time>
      </trkpt>
      <trkpt lat="43.74613" lon="7.18719">
        <ele>51.577</ele>
        <time>2018-11-26T14:17:59.929Z</time>
      </trkpt>
      <trkpt lat="43.74573" lon="7.18694">
        <ele>51.57</ele>
        <time>2018-11-26T14:18:02.040Z</time>
      </trkpt>
      <trkpt lat="43.74512" lon="7.18644">
        <ele>51.571</ele>
        <time>2018-11-26T14:18:05.301Z</time>
      </trkpt>
      <trkpt lat="43.74452" lon="7.18603">
        <ele>51.578</ele>
        <time>2018-11-26T14:18:08.424Z</time>
      </trkpt>
      <trkpt lat="43.74396" lon="7.18572">
        <ele>51.585</ele>
        <time>2018-11-26T14:18:11.347Z</time>
      </trkpt>
      <trkpt lat="43.74338" lon="7.18545">
        <ele>51.582</ele>
        <time>2018-11-26T14:18:14.302Z</time>
      </trkpt>
      <trkpt lat="43.74279" lon="7.18517">
        <ele>51.551</ele>
        <time>2018-11-26T14:18:17.243Z</time>
      </trkpt>
      <trkpt lat="43.74217" lon="7.18491">
        <ele>51.489</ele>
        <time>2018-11-26T14:18:20.316Z</time>
      </trkpt>
      <trkpt lat="43.74155" lon="7.18469">
        <ele>51.415</ele>
        <time>2018-11-26T14:18:23.339Z</time>
      </trkpt>
      <trkpt lat="43.74096" lon="7.1845">
        <ele>51.301</ele>
        <time>2018-11-26T14:18:26.243Z</time>
      </trkpt>
      <trkpt lat="43.74036" lon="7.18435">
        <ele>51.083</ele>
        <time>2018-11-26T14:18:29.113Z</time>
      </trkpt>
      <trkpt lat="43.73972" lon="7.18421">
        <ele>50.794</ele>
        <time>2018-11-26T14:18:32.134Z</time>
      </trkpt>
      <trkpt lat="43.73906" lon="7.18417">
        <ele>50.518</ele>
        <time>2018-11-26T14:18:35.134Z</time>
      </trkpt>
      <trkpt lat="43.73841" lon="7.1841">
        <ele>50.296</ele>
        <time>2018-11-26T14:18:38.117Z</time>
      </trkpt>
      <trkpt lat="43.73778" lon="7.18406">
        <ele>50.176</ele>
        <time>2018-11-26T14:18:40.967Z</time>
      </trkpt>
      <trkpt lat="43.7371" lon="7.18406">
        <ele>50.177</ele>
        <time>2018-11-26T14:18:43.986Z</time>
      </trkpt>
      <trkpt lat="43.73643" lon="7.18406">
        <ele>50.218</ele>
        <time>2018-11-26T14:18:46.952Z</time>
      </trkpt>
      <trkpt lat="43.73577" lon="7.18408">
        <ele>50.221</ele>
        <time>2018-11-26T14:18:49.861Z</time>
      </trkpt>
      <trkpt lat="43.7351" lon="7.18422">
        <ele>50.152</ele>
        <time>2018-11-26T14:18:52.841Z</time>
      </trkpt>
      <trkpt lat="43.73445" lon="7.18433">
        <ele>49.998</ele>
        <time>2018-11-26T14:18:55.834Z</time>
      </trkpt>
      <trkpt lat="43.73383" lon="7.18435">
        <ele>49.717</ele>
        <time>2018-11-26T14:18:58.679Z</time>
      </trkpt>
      <trkpt lat="43.73318" lon="7.18446">
        <ele>49.213</ele>
        <time>2018-11-26T14:19:01.657Z</time>
      </trkpt>
      <trkpt lat="43.73252" lon="7.18451">
        <ele>48.513</ele>
        <time>2018-11-26T14:19:04.679Z</time>
      </trkpt>
      <trkpt lat="43.73189" lon="7.18459">
        <ele>47.87</ele>
        <time>2018-11-26T14:19:07.703Z</time>
      </trkpt>
      <trkpt lat="43.73138" lon="7.18467">
        <ele>47.392</ele>
        <time>2018-11-26T14:19:10.578Z</time>
      </trkpt>
      <trkpt lat="43.73099" lon="7.18478">
        <ele>47.004</ele>
        <time>2018-11-26T14:19:13.363Z</time>
      </trkpt>
      <trkpt lat="43.73071" lon="7.1849">
        <ele>46.678</ele>
        <time>2018-11-26T14:19:16.146Z</time>
      </trkpt>
      <trkpt lat="43.73057" lon="7.18486">
        <ele>46.279</ele>
        <time>2018-11-26T14:19:17.997Z</time>
      </trkpt>
      <trkpt lat="43.73057" lon="7.18486">
        <ele>45.731</ele>
        <time>2018-11-26T14:19:21.997Z</time>
      </trkpt>
      <trkpt lat="43.73057" lon="7.18486">
        <ele>45.35</ele>
        <time>2018-11-26T14:19:28.305Z</time>
      </trkpt>
      <trkpt lat="43.73043" lon="7.18493">
        <ele>45.347</ele>
        <time>2018-11-26T14:19:34.684Z</time>
      </trkpt>
      <trkpt lat="43.73033" lon="7.18496">
        <ele>43.869</ele>
        <time>2018-11-26T14:19:36.997Z</time>
      </trkpt>
      <trkpt lat="43.73033" lon="7.18496">
        <ele>39.693</ele>
        <time>2018-11-26T14:19:42.997Z</time>
      </trkpt>
      <trkpt lat="43.73033" lon="7.18496">
        <ele>36.14</ele>
        <time>2018-11-26T14:19:52.765Z</time>
      </trkpt>
      <trkpt lat="43.73013" lon="7.18495">
        <ele>36.177</ele>
        <time>2018-11-26T14:20:01.912Z</time>
      </trkpt>
      <trkpt lat="43.73001" lon="7.18499">
        <ele>37.709</ele>
        <time>2018-11-26T14:20:05.606Z</time>
      </trkpt>
      <trkpt lat="43.72988" lon="7.18501">
        <ele>38.241</ele>
        <time>2018-11-26T14:20:08.418Z</time>
      </trkpt>
      <trkpt lat="43.72962" lon="7.18503">
        <ele>38.072</ele>
        <time>2018-11-26T14:20:11.927Z</time>
      </trkpt>
      <trkpt lat="43.72939" lon="7.18507">
        <ele>38.372</ele>
        <time>2018-11-26T14:20:14.044Z</time>
      </trkpt>
      <trkpt lat="43.72906" lon="7.18512">
        <ele>39.283</ele>
        <time>2018-11-26T14:20:17.016Z</time>
      </trkpt>
      <trkpt lat="43.72871" lon="7.18517">
        <ele>40.19</ele>
        <time>2018-11-26T14:20:20.005Z</time>
      </trkpt>
      <trkpt lat="43.7284" lon="7.18525">
        <ele>40.917</ele>
        <time>2018-11-26T14:20:23.056Z</time>
      </trkpt>
      <trkpt lat="43.72816" lon="7.18529">
        <ele>41.73</ele>
        <time>2018-11-26T14:20:25.898Z</time>
      </trkpt>
      <trkpt lat="43.72794" lon="7.18536">
        <ele>42.46</ele>
        <time>2018-11-26T14:20:29.048Z</time>
      </trkpt>
      <trkpt lat="43.72773" lon="7.18539">
        <ele>42.773</ele>
        <time>2018-11-26T14:20:32.120Z</time>
      </trkpt>
      <trkpt lat="43.7276" lon="7.1855">
        <ele>42.676</ele>
        <time>2018-11-26T14:20:34.406Z</time>
      </trkpt>
      <trkpt lat="43.72755" lon="7.18578">
        <ele>42.332</ele>
        <time>2018-11-26T14:20:37.370Z</time>
      </trkpt>
      <trkpt lat="43.72756" lon="7.1861">
        <ele>41.938</ele>
        <time>2018-11-26T14:20:40.434Z</time>
      </trkpt>
      <trkpt lat="43.72759" lon="7.1864">
        <ele>41.602</ele>
        <time>2018-11-26T14:20:43.346Z</time>
      </trkpt>
      <trkpt lat="43.72764" lon="7.18666">
        <ele>41.286</ele>
        <time>2018-11-26T14:20:45.974Z</time>
      </trkpt>
      <trkpt lat="43.72765" lon="7.18694">
        <ele>40.866</ele>
        <time>2018-11-26T14:20:48.713Z</time>
      </trkpt>
      <trkpt lat="43.72768" lon="7.18723">
        <ele>40.272</ele>
        <time>2018-11-26T14:20:51.720Z</time>
      </trkpt>
      <trkpt lat="43.72769" lon="7.18754">
        <ele>39.683</ele>
        <time>2018-11-26T14:20:54.756Z</time>
      </trkpt>
      <trkpt lat="43.72771" lon="7.18788">
        <ele>39.315</ele>
        <time>2018-11-26T14:20:57.808Z</time>
      </trkpt>
      <trkpt lat="43.72773" lon="7.18822">
        <ele>39.153</ele>
        <time>2018-11-26T14:21:00.967Z</time>
      </trkpt>
      <trkpt lat="43.72775" lon="7.1884">
        <ele>39.09</ele>
        <time>2018-11-26T14:21:02.996Z</time>
      </trkpt>
      <trkpt lat="43.72775" lon="7.1884">
        <ele>39.07</ele>
        <time>2018-11-26T14:21:08.996Z</time>
      </trkpt>
      <trkpt lat="43.72775" lon="7.1884">
        <ele>39.061</ele>
        <time>2018-11-26T14:21:18.207Z</time>
      </trkpt>
      <trkpt lat="43.72777" lon="7.1887">
        <ele>39.053</ele>
        <time>2018-11-26T14:21:25.620Z</time>
      </trkpt>
      <trkpt lat="43.72781" lon="7.18898">
        <ele>39.048</ele>
        <time>2018-11-26T14:21:28.653Z</time>
      </trkpt>
      <trkpt lat="43.72783" lon="7.18927">
        <ele>39.05</ele>
        <time>2018-11-26T14:21:31.572Z</time>
      </trkpt>
      <trkpt lat="43.72786" lon="7.18954">
        <ele>39.054</ele>
        <time>2018-11-26T14:21:34.347Z</time>
      </trkpt>
      <trkpt lat="43.72788" lon="7.18975">
        <ele>39.056</ele>
        <time>2018-11-26T14:21:37.419Z</time>
      </trkpt>
      <trkpt lat="43.7279" lon="7.18988">
        <ele>39.057</ele>
        <time>2018-11-26T14:21:39.996Z</time>
      </trkpt>
      <trkpt lat="43.7279" lon="7.18988">
        <ele>39.057</ele>
        <time>2018-11-26T14:21:41.996Z</time>
      </trkpt>
      <trkpt lat="43.7279" lon="7.18988">
        <ele>39.051</ele>
        <time>2018-11-26T14:21:42.096Z</time>
      </trkpt>
      <trkpt lat="43.728" lon="7.19009">
        <ele>39.035</ele>
        <time>2018-11-26T14:22:20.995Z</time>
      </trkpt>
      <trkpt lat="43.728" lon="7.19009">
        <ele>39.018</ele>
        <time>2018-11-26T14:22:30.995Z</time>
      </trkpt>
      <trkpt lat="43.728" lon="7.19009">
        <ele>39.007</ele>
        <time>2018-11-26T14:23:09.187Z</time>
      </trkpt>
      <trkpt lat="43.72821" lon="7.19025">
        <ele>38.998</ele>
        <time>2018-11-26T14:23:44.321Z</time>
      </trkpt>
      <trkpt lat="43.7283" lon="7.19028">
        <ele>39</ele>
        <time>2018-11-26T14:23:53.311Z</time>
      </trkpt>
      <trkpt lat="43.72839" lon="7.19032">
        <ele>39.022</ele>
        <time>2018-11-26T14:24:00.532Z</time>
      </trkpt>
      <trkpt lat="43.72848" lon="7.19036">
        <ele>39.129</ele>
        <time>2018-11-26T14:24:07.980Z</time>
      </trkpt>
      <trkpt lat="43.72857" lon="7.19033">
        <ele>39.396</ele>
        <time>2018-11-26T14:24:15.573Z</time>
      </trkpt>
      <trkpt lat="43.72866" lon="7.19032">
        <ele>39.723</ele>
        <time>2018-11-26T14:24:22.997Z</time>
      </trkpt>
      <trkpt lat="43.72866" lon="7.19032">
        <ele>39.897</ele>
        <time>2018-11-26T14:24:37.999Z</time>
      </trkpt>
      <trkpt lat="43.72866" lon="7.19032">
        <ele>39.867</ele>
        <time>2018-11-26T14:25:33.426Z</time>
      </trkpt>
      <trkpt lat="43.72894" lon="7.19024">
        <ele>39.757</ele>
        <time>2018-11-26T14:26:00.512Z</time>
      </trkpt>
      <trkpt lat="43.72903" lon="7.1902">
        <ele>39.708</ele>
        <time>2018-11-26T14:26:07.371Z</time>
      </trkpt>
      <trkpt lat="43.72911" lon="7.19016">
        <ele>39.829</ele>
        <time>2018-11-26T14:26:14.998Z</time>
      </trkpt>
      <trkpt lat="43.72911" lon="7.19016">
        <ele>40.111</ele>
        <time>2018-11-26T14:26:22.998Z</time>
      </trkpt>
      <trkpt lat="43.72911" lon="7.19016">
        <ele>40.318</ele>
        <time>2018-11-26T14:26:36.225Z</time>
      </trkpt>
      <trkpt lat="43.7293" lon="7.19005">
        <ele>40.295</ele>
        <time>2018-11-26T14:26:53.838Z</time>
      </trkpt>
      <trkpt lat="43.72938" lon="7.18999">
        <ele>40.389</ele>
        <time>2018-11-26T14:26:58.998Z</time>
      </trkpt>
      <trkpt lat="43.72938" lon="7.18999">
        <ele>40.882</ele>
        <time>2018-11-26T14:27:14.997Z</time>
      </trkpt>
      <trkpt lat="43.72938" lon="7.18999">
        <ele>41.332</ele>
        <time>2018-11-26T14:27:15.097Z</time>
      </trkpt>
      <trkpt lat="43.72967" lon="7.18981">
        <ele>41.313</ele>
        <time>2018-11-26T14:28:40.996Z</time>
      </trkpt>
      <trkpt lat="43.72967" lon="7.18981">
        <ele>41.112</ele>
        <time>2018-11-26T14:28:58.996Z</time>
      </trkpt>
      <trkpt lat="43.72967" lon="7.18981">
        <ele>41.077</ele>
        <time>2018-11-26T14:29:46.305Z</time>
      </trkpt>
      <trkpt lat="43.72982" lon="7.18957">
        <ele>41.168</ele>
        <time>2018-11-26T14:30:04.406Z</time>
      </trkpt>
      <trkpt lat="43.72991" lon="7.1895">
        <ele>41.399</ele>
        <time>2018-11-26T14:30:11.355Z</time>
      </trkpt>
      <trkpt lat="43.72997" lon="7.18939">
        <ele>41.83</ele>
        <time>2018-11-26T14:30:17.995Z</time>
      </trkpt>
      <trkpt lat="43.72997" lon="7.18939">
        <ele>42.195</ele>
        <time>2018-11-26T14:30:24.995Z</time>
      </trkpt>
      <trkpt lat="43.72997" lon="7.18939">
        <ele>42.259</ele>
        <time>2018-11-26T14:30:52.193Z</time>
      </trkpt>
      <trkpt lat="43.73021" lon="7.18933">
        <ele>42.172</ele>
        <time>2018-11-26T14:31:10.994Z</time>
      </trkpt>
      <trkpt lat="43.73021" lon="7.18933">
        <ele>42.118</ele>
        <time>2018-11-26T14:31:25.997Z</time>
      </trkpt>
      <trkpt lat="43.73021" lon="7.18933">
        <ele>42.115</ele>
        <time>2018-11-26T14:31:30.854Z</time>
      </trkpt>
      <trkpt lat="43.73031" lon="7.18907">
        <ele>42.122</ele>
        <time>2018-11-26T14:31:47.949Z</time>
      </trkpt>
      <trkpt lat="43.73038" lon="7.18894">
        <ele>42.117</ele>
        <time>2018-11-26T14:31:55.678Z</time>
      </trkpt>
      <trkpt lat="43.73038" lon="7.18881">
        <ele>42.055</ele>
        <time>2018-11-26T14:32:02.731Z</time>
      </trkpt>
      <trkpt lat="43.73044" lon="7.18871">
        <ele>41.7</ele>
        <time>2018-11-26T14:32:11.036Z</time>
      </trkpt>
      <trkpt lat="43.73053" lon="7.18865">
        <ele>40.97</ele>
        <time>2018-11-26T14:32:17.996Z</time>
      </trkpt>
      <trkpt lat="43.73053" lon="7.18865">
        <ele>40.258</ele>
        <time>2018-11-26T14:32:34.996Z</time>
      </trkpt>
      <trkpt lat="43.73053" lon="7.18865">
        <ele>39.94</ele>
        <time>2018-11-26T14:33:36.121Z</time>
      </trkpt>
      <trkpt lat="43.73071" lon="7.1884">
        <ele>40.061</ele>
        <time>2018-11-26T14:34:04.994Z</time>
      </trkpt>
      <trkpt lat="43.73071" lon="7.1884">
        <ele>40.358</ele>
        <time>2018-11-26T14:34:22.994Z</time>
      </trkpt>
      <trkpt lat="43.73071" lon="7.1884">
        <ele>40.477</ele>
        <time>2018-11-26T14:35:31.459Z</time>
      </trkpt>
      <trkpt lat="43.73094" lon="7.18824">
        <ele>40.409</ele>
        <time>2018-11-26T14:36:03.992Z</time>
      </trkpt>
      <trkpt lat="43.73094" lon="7.18824">
        <ele>40.344</ele>
        <time>2018-11-26T14:36:11.992Z</time>
      </trkpt>
      <trkpt lat="43.73094" lon="7.18824">
        <ele>40.329</ele>
        <time>2018-11-26T14:36:43.733Z</time>
      </trkpt>
      <trkpt lat="43.73112" lon="7.18817">
        <ele>40.342</ele>
        <time>2018-11-26T14:37:06.124Z</time>
      </trkpt>
      <trkpt lat="43.73114" lon="7.18805">
        <ele>40.689</ele>
        <time>2018-11-26T14:37:12.876Z</time>
      </trkpt>
      <trkpt lat="43.7311" lon="7.18793">
        <ele>41.619</ele>
        <time>2018-11-26T14:37:18.696Z</time>
      </trkpt>
      <trkpt lat="43.73106" lon="7.18778">
        <ele>42.657</ele>
        <time>2018-11-26T14:37:24.011Z</time>
      </trkpt>
      <trkpt lat="43.73108" lon="7.18764">
        <ele>43.239</ele>
        <time>2018-11-26T14:37:27.718Z</time>
      </trkpt>
      <trkpt lat="43.73109" lon="7.18748">
        <ele>43.396</ele>
        <time>2018-11-26T14:37:31.165Z</time>
      </trkpt>
      <trkpt lat="43.73107" lon="7.18736">
        <ele>43.355</ele>
        <time>2018-11-26T14:37:34.013Z</time>
      </trkpt>
      <trkpt lat="43.73108" lon="7.18723">
        <ele>43.28</ele>
        <time>2018-11-26T14:37:36.985Z</time>
      </trkpt>
      <trkpt lat="43.73108" lon="7.18707">
        <ele>43.235</ele>
        <time>2018-11-26T14:37:40.481Z</time>
      </trkpt>
      <trkpt lat="43.73108" lon="7.18689">
        <ele>43.223</ele>
        <time>2018-11-26T14:37:43.626Z</time>
      </trkpt>
      <trkpt lat="43.73097" lon="7.18667">
        <ele>43.226</ele>
        <time>2018-11-26T14:37:47.827Z</time>
      </trkpt>
      <trkpt lat="43.73095" lon="7.18651">
        <ele>43.232</ele>
        <time>2018-11-26T14:37:50.380Z</time>
      </trkpt>
      <trkpt lat="43.73093" lon="7.18636">
        <ele>43.141</ele>
        <time>2018-11-26T14:37:52.991Z</time>
      </trkpt>
      <trkpt lat="43.73093" lon="7.18636">
        <ele>42.894</ele>
        <time>2018-11-26T14:37:57.991Z</time>
      </trkpt>
      <trkpt lat="43.73093" lon="7.18636">
        <ele>42.681</ele>
        <time>2018-11-26T14:37:58.679Z</time>
      </trkpt>
      <trkpt lat="43.7309" lon="7.18608">
        <ele>42.666</ele>
        <time>2018-11-26T14:38:04.855Z</time>
      </trkpt>
      <trkpt lat="43.7309" lon="7.1858">
        <ele>42.324</ele>
        <time>2018-11-26T14:38:08.229Z</time>
      </trkpt>
      <trkpt lat="43.73089" lon="7.18553">
        <ele>41.265</ele>
        <time>2018-11-26T14:38:11.499Z</time>
      </trkpt>
      <trkpt lat="43.7309" lon="7.1853">
        <ele>40.125</ele>
        <time>2018-11-26T14:38:14.585Z</time>
      </trkpt>
      <trkpt lat="43.731" lon="7.18511">
        <ele>39.719</ele>
        <time>2018-11-26T14:38:16.968Z</time>
      </trkpt>
      <trkpt lat="43.73129" lon="7.18496">
        <ele>40.082</ele>
        <time>2018-11-26T14:38:19.811Z</time>
      </trkpt>
      <trkpt lat="43.73176" lon="7.18487">
        <ele>40.744</ele>
        <time>2018-11-26T14:38:23.133Z</time>
      </trkpt>
      <trkpt lat="43.73223" lon="7.18474">
        <ele>41.679</ele>
        <time>2018-11-26T14:38:26.131Z</time>
      </trkpt>
      <trkpt lat="43.73273" lon="7.18466">
        <ele>43.212</ele>
        <time>2018-11-26T14:38:29.059Z</time>
      </trkpt>
      <trkpt lat="43.7333" lon="7.1846">
        <ele>44.894</ele>
        <time>2018-11-26T14:38:32.182Z</time>
      </trkpt>
      <trkpt lat="43.73371" lon="7.18452">
        <ele>45.972</ele>
        <time>2018-11-26T14:38:34.231Z</time>
      </trkpt>
      <trkpt lat="43.73415" lon="7.18445">
        <ele>46.322</ele>
        <time>2018-11-26T14:38:36.350Z</time>
      </trkpt>
      <trkpt lat="43.73457" lon="7.18439">
        <ele>46.213</ele>
        <time>2018-11-26T14:38:38.382Z</time>
      </trkpt>
      <trkpt lat="43.735" lon="7.18435">
        <ele>46.018</ele>
        <time>2018-11-26T14:38:40.391Z</time>
      </trkpt>
      <trkpt lat="43.73542" lon="7.1843">
        <ele>45.969</ele>
        <time>2018-11-26T14:38:42.359Z</time>
      </trkpt>
      <trkpt lat="43.73584" lon="7.18424">
        <ele>46.083</ele>
        <time>2018-11-26T14:38:44.321Z</time>
      </trkpt>
      <trkpt lat="43.73628" lon="7.18419">
        <ele>46.321</ele>
        <time>2018-11-26T14:38:46.355Z</time>
      </trkpt>
      <trkpt lat="43.73671" lon="7.18416">
        <ele>46.687</ele>
        <time>2018-11-26T14:38:48.355Z</time>
      </trkpt>
      <trkpt lat="43.73715" lon="7.18416">
        <ele>47.192</ele>
        <time>2018-11-26T14:38:50.400Z</time>
      </trkpt>
      <trkpt lat="43.73757" lon="7.18416">
        <ele>47.808</ele>
        <time>2018-11-26T14:38:52.369Z</time>
      </trkpt>
      <trkpt lat="43.73799" lon="7.18419">
        <ele>48.458</ele>
        <time>2018-11-26T14:38:54.373Z</time>
      </trkpt>
      <trkpt lat="43.73842" lon="7.1842">
        <ele>49.053</ele>
        <time>2018-11-26T14:38:56.403Z</time>
      </trkpt>
      <trkpt lat="43.73886" lon="7.18422">
        <ele>49.536</ele>
        <time>2018-11-26T14:38:58.447Z</time>
      </trkpt>
      <trkpt lat="43.73928" lon="7.18428">
        <ele>49.892</ele>
        <time>2018-11-26T14:39:00.410Z</time>
      </trkpt>
      <trkpt lat="43.73971" lon="7.18435">
        <ele>50.116</ele>
        <time>2018-11-26T14:39:02.431Z</time>
      </trkpt>
      <trkpt lat="43.74011" lon="7.18442">
        <ele>50.217</ele>
        <time>2018-11-26T14:39:04.311Z</time>
      </trkpt>
      <trkpt lat="43.74053" lon="7.18453">
        <ele>50.24</ele>
        <time>2018-11-26T14:39:06.299Z</time>
      </trkpt>
      <trkpt lat="43.74096" lon="7.18465">
        <ele>50.25</ele>
        <time>2018-11-26T14:39:08.341Z</time>
      </trkpt>
      <trkpt lat="43.74139" lon="7.18476">
        <ele>50.281</ele>
        <time>2018-11-26T14:39:10.390Z</time>
      </trkpt>
      <trkpt lat="43.7418" lon="7.18491">
        <ele>50.301</ele>
        <time>2018-11-26T14:39:12.381Z</time>
      </trkpt>
      <trkpt lat="43.74223" lon="7.18505">
        <ele>50.275</ele>
        <time>2018-11-26T14:39:14.467Z</time>
      </trkpt>
      <trkpt lat="43.74265" lon="7.18521">
        <ele>50.26</ele>
        <time>2018-11-26T14:39:16.441Z</time>
      </trkpt>
      <trkpt lat="43.74305" lon="7.18542">
        <ele>50.337</ele>
        <time>2018-11-26T14:39:18.481Z</time>
      </trkpt>
      <trkpt lat="43.74343" lon="7.18562">
        <ele>50.504</ele>
        <time>2018-11-26T14:39:20.524Z</time>
      </trkpt>
      <trkpt lat="43.74377" lon="7.18581">
        <ele>50.697</ele>
        <time>2018-11-26T14:39:22.556Z</time>
      </trkpt>
      <trkpt lat="43.74405" lon="7.18593">
        <ele>50.896</ele>
        <time>2018-11-26T14:39:24.396Z</time>
      </trkpt>
      <trkpt lat="43.74428" lon="7.18611">
        <ele>51.115</ele>
        <time>2018-11-26T14:39:26.156Z</time>
      </trkpt>
      <trkpt lat="43.74454" lon="7.18622">
        <ele>51.326</ele>
        <time>2018-11-26T14:39:28.028Z</time>
      </trkpt>
      <trkpt lat="43.74495" lon="7.18652">
        <ele>51.474</ele>
        <time>2018-11-26T14:39:31.031Z</time>
      </trkpt>
      <trkpt lat="43.74542" lon="7.18679">
        <ele>51.551</ele>
        <time>2018-11-26T14:39:34.177Z</time>
      </trkpt>
      <trkpt lat="43.74588" lon="7.18713">
        <ele>51.58</ele>
        <time>2018-11-26T14:39:37.233Z</time>
      </trkpt>
      <trkpt lat="43.74632" lon="7.18743">
        <ele>51.588</ele>
        <time>2018-11-26T14:39:40.271Z</time>
      </trkpt>
      <trkpt lat="43.74666" lon="7.18779">
        <ele>51.589</ele>
        <time>2018-11-26T14:39:43.292Z</time>
      </trkpt>
      <trkpt lat="43.74698" lon="7.18802">
        <ele>51.59</ele>
        <time>2018-11-26T14:39:46.157Z</time>
      </trkpt>
      <trkpt lat="43.74727" lon="7.18833">
        <ele>51.592</ele>
        <time>2018-11-26T14:39:49.324Z</time>
      </trkpt>
      <trkpt lat="43.74745" lon="7.18867">
        <ele>51.593</ele>
        <time>2018-11-26T14:39:52.481Z</time>
      </trkpt>
      <trkpt lat="43.74755" lon="7.18897">
        <ele>51.594</ele>
        <time>2018-11-26T14:39:55.702Z</time>
      </trkpt>
      <trkpt lat="43.74768" lon="7.18913">
        <ele>51.594</ele>
        <time>2018-11-26T14:39:58.425Z</time>
      </trkpt>
      <trkpt lat="43.74788" lon="7.18902">
        <ele>51.594</ele>
        <time>2018-11-26T14:40:00.946Z</time>
      </trkpt>
      <trkpt lat="43.74819" lon="7.1892">
        <ele>51.594</ele>
        <time>2018-11-26T14:40:03.595Z</time>
      </trkpt>
      <trkpt lat="43.74868" lon="7.18971">
        <ele>51.598</ele>
        <time>2018-11-26T14:40:06.979Z</time>
      </trkpt>
      <trkpt lat="43.74917" lon="7.19021">
        <ele>51.734</ele>
        <time>2018-11-26T14:40:10.003Z</time>
      </trkpt>
      <trkpt lat="43.74964" lon="7.19074">
        <ele>52.088</ele>
        <time>2018-11-26T14:40:12.949Z</time>
      </trkpt>
      <trkpt lat="43.75012" lon="7.19125">
        <ele>52.512</ele>
        <time>2018-11-26T14:40:15.975Z</time>
      </trkpt>
      <trkpt lat="43.7506" lon="7.19169">
        <ele>52.826</ele>
        <time>2018-11-26T14:40:19.044Z</time>
      </trkpt>
      <trkpt lat="43.75106" lon="7.19213">
        <ele>52.88</ele>
        <time>2018-11-26T14:40:22.066Z</time>
      </trkpt>
      <trkpt lat="43.7515" lon="7.19261">
        <ele>52.585</ele>
        <time>2018-11-26T14:40:25.132Z</time>
      </trkpt>
      <trkpt lat="43.75195" lon="7.19306">
        <ele>52.13</ele>
        <time>2018-11-26T14:40:28.173Z</time>
      </trkpt>
      <trkpt lat="43.75237" lon="7.19353">
        <ele>51.787</ele>
        <time>2018-11-26T14:40:31.090Z</time>
      </trkpt>
      <trkpt lat="43.75283" lon="7.19396">
        <ele>51.645</ele>
        <time>2018-11-26T14:40:34.110Z</time>
      </trkpt>
      <trkpt lat="43.75329" lon="7.19438">
        <ele>51.899</ele>
        <time>2018-11-26T14:40:37.096Z</time>
      </trkpt>
      <trkpt lat="43.75371" lon="7.19484">
        <ele>52.777</ele>
        <time>2018-11-26T14:40:40.060Z</time>
      </trkpt>
      <trkpt lat="43.75411" lon="7.1953">
        <ele>54.008</ele>
        <time>2018-11-26T14:40:43.052Z</time>
      </trkpt>
      <trkpt lat="43.75449" lon="7.19571">
        <ele>55.026</ele>
        <time>2018-11-26T14:40:45.997Z</time>
      </trkpt>
      <trkpt lat="43.75486" lon="7.19612">
        <ele>55.593</ele>
        <time>2018-11-26T14:40:48.995Z</time>
      </trkpt>
      <trkpt lat="43.75522" lon="7.19648">
        <ele>55.797</ele>
        <time>2018-11-26T14:40:52.012Z</time>
      </trkpt>
      <trkpt lat="43.75556" lon="7.19679">
        <ele>55.819</ele>
        <time>2018-11-26T14:40:54.959Z</time>
      </trkpt>
      <trkpt lat="43.75586" lon="7.19709">
        <ele>55.881</ele>
        <time>2018-11-26T14:40:58.124Z</time>
      </trkpt>
      <trkpt lat="43.75607" lon="7.19736">
        <ele>56.356</ele>
        <time>2018-11-26T14:41:01.268Z</time>
      </trkpt>
      <trkpt lat="43.75621" lon="7.19759">
        <ele>57.387</ele>
        <time>2018-11-26T14:41:04.330Z</time>
      </trkpt>
      <trkpt lat="43.75632" lon="7.19784">
        <ele>58.566</ele>
        <time>2018-11-26T14:41:07.648Z</time>
      </trkpt>
      <trkpt lat="43.75644" lon="7.19805">
        <ele>59.414</ele>
        <time>2018-11-26T14:41:10.163Z</time>
      </trkpt>
      <trkpt lat="43.7567" lon="7.19798">
        <ele>59.84</ele>
        <time>2018-11-26T14:41:12.794Z</time>
      </trkpt>
      <trkpt lat="43.75707" lon="7.19826">
        <ele>59.976</ele>
        <time>2018-11-26T14:41:15.860Z</time>
      </trkpt>
      <trkpt lat="43.7575" lon="7.19862">
        <ele>59.982</ele>
        <time>2018-11-26T14:41:18.998Z</time>
      </trkpt>
      <trkpt lat="43.75791" lon="7.199">
        <ele>59.959</ele>
        <time>2018-11-26T14:41:21.991Z</time>
      </trkpt>
      <trkpt lat="43.75829" lon="7.19942">
        <ele>59.945</ele>
        <time>2018-11-26T14:41:25.025Z</time>
      </trkpt>
      <trkpt lat="43.75866" lon="7.19981">
        <ele>59.957</ele>
        <time>2018-11-26T14:41:28.151Z</time>
      </trkpt>
      <trkpt lat="43.75897" lon="7.20012">
        <ele>59.996</ele>
        <time>2018-11-26T14:41:30.904Z</time>
      </trkpt>
      <trkpt lat="43.75925" lon="7.20045">
        <ele>60.032</ele>
        <time>2018-11-26T14:41:33.720Z</time>
      </trkpt>
      <trkpt lat="43.75958" lon="7.20077">
        <ele>60.036</ele>
        <time>2018-11-26T14:41:36.732Z</time>
      </trkpt>
      <trkpt lat="43.75992" lon="7.20116">
        <ele>60.021</ele>
        <time>2018-11-26T14:41:39.884Z</time>
      </trkpt>
      <trkpt lat="43.76024" lon="7.20149">
        <ele>60.008</ele>
        <time>2018-11-26T14:41:43.000Z</time>
      </trkpt>
      <trkpt lat="43.7605" lon="7.20171">
        <ele>60.004</ele>
        <time>2018-11-26T14:41:46.073Z</time>
      </trkpt>
      <trkpt lat="43.76069" lon="7.20188">
        <ele>60.004</ele>
        <time>2018-11-26T14:41:49.036Z</time>
      </trkpt>
      <trkpt lat="43.76084" lon="7.20203">
        <ele>60.003</ele>
        <time>2018-11-26T14:41:51.854Z</time>
      </trkpt>
      <trkpt lat="43.76098" lon="7.20217">
        <ele>60.014</ele>
        <time>2018-11-26T14:41:54.409Z</time>
      </trkpt>
      <trkpt lat="43.76121" lon="7.20242">
        <ele>60.049</ele>
        <time>2018-11-26T14:41:57.855Z</time>
      </trkpt>
      <trkpt lat="43.76147" lon="7.20269">
        <ele>60.094</ele>
        <time>2018-11-26T14:42:01.151Z</time>
      </trkpt>
      <trkpt lat="43.76173" lon="7.20294">
        <ele>60.126</ele>
        <time>2018-11-26T14:42:04.522Z</time>
      </trkpt>
      <trkpt lat="43.76192" lon="7.20315">
        <ele>60.301</ele>
        <time>2018-11-26T14:42:07.473Z</time>
      </trkpt>
      <trkpt lat="43.76211" lon="7.20333">
        <ele>60.768</ele>
        <time>2018-11-26T14:42:10.127Z</time>
      </trkpt>
      <trkpt lat="43.76231" lon="7.2036">
        <ele>61.333</ele>
        <time>2018-11-26T14:42:13.032Z</time>
      </trkpt>
      <trkpt lat="43.76257" lon="7.20392">
        <ele>61.705</ele>
        <time>2018-11-26T14:42:16.096Z</time>
      </trkpt>
      <trkpt lat="43.76287" lon="7.20423">
        <ele>61.89</ele>
        <time>2018-11-26T14:42:19.332Z</time>
      </trkpt>
      <trkpt lat="43.76316" lon="7.20453">
        <ele>62.108</ele>
        <time>2018-11-26T14:42:22.324Z</time>
      </trkpt>
      <trkpt lat="43.76345" lon="7.20485">
        <ele>62.481</ele>
        <time>2018-11-26T14:42:25.314Z</time>
      </trkpt>
      <trkpt lat="43.76374" lon="7.20517">
        <ele>62.893</ele>
        <time>2018-11-26T14:42:28.255Z</time>
      </trkpt>
      <trkpt lat="43.76406" lon="7.20553">
        <ele>63.209</ele>
        <time>2018-11-26T14:42:31.509Z</time>
      </trkpt>
      <trkpt lat="43.76442" lon="7.20577">
        <ele>63.398</ele>
        <time>2018-11-26T14:42:34.608Z</time>
      </trkpt>
      <trkpt lat="43.76476" lon="7.2061">
        <ele>63.546</ele>
        <time>2018-11-26T14:42:37.712Z</time>
      </trkpt>
      <trkpt lat="43.76508" lon="7.20647">
        <ele>63.868</ele>
        <time>2018-11-26T14:42:40.808Z</time>
      </trkpt>
      <trkpt lat="43.76542" lon="7.2068">
        <ele>64.37</ele>
        <time>2018-11-26T14:42:43.961Z</time>
      </trkpt>
      <trkpt lat="43.76572" lon="7.20716">
        <ele>64.601</ele>
        <time>2018-11-26T14:42:46.901Z</time>
      </trkpt>
      <trkpt lat="43.76602" lon="7.20749">
        <ele>64.287</ele>
        <time>2018-11-26T14:42:49.875Z</time>
      </trkpt>
      <trkpt lat="43.76633" lon="7.20778">
        <ele>63.777</ele>
        <time>2018-11-26T14:42:52.857Z</time>
      </trkpt>
      <trkpt lat="43.76665" lon="7.20811">
        <ele>63.466</ele>
        <time>2018-11-26T14:42:55.890Z</time>
      </trkpt>
      <trkpt lat="43.76696" lon="7.20846">
        <ele>63.433</ele>
        <time>2018-11-26T14:42:58.954Z</time>
      </trkpt>
      <trkpt lat="43.76721" lon="7.20883">
        <ele>63.749</ele>
        <time>2018-11-26T14:43:01.688Z</time>
      </trkpt>
      <trkpt lat="43.76758" lon="7.20916">
        <ele>64.485</ele>
        <time>2018-11-26T14:43:05.035Z</time>
      </trkpt>
      <trkpt lat="43.76788" lon="7.20951">
        <ele>65.451</ele>
        <time>2018-11-26T14:43:08.113Z</time>
      </trkpt>
      <trkpt lat="43.76817" lon="7.20982">
        <ele>66.276</ele>
        <time>2018-11-26T14:43:11.196Z</time>
      </trkpt>
      <trkpt lat="43.76844" lon="7.21011">
        <ele>66.762</ele>
        <time>2018-11-26T14:43:14.385Z</time>
      </trkpt>
      <trkpt lat="43.7687" lon="7.21035">
        <ele>66.947</ele>
        <time>2018-11-26T14:43:17.477Z</time>
      </trkpt>
      <trkpt lat="43.76897" lon="7.2106">
        <ele>66.952</ele>
        <time>2018-11-26T14:43:20.969Z</time>
      </trkpt>
      <trkpt lat="43.76918" lon="7.21083">
        <ele>66.888</ele>
        <time>2018-11-26T14:43:24.638Z</time>
      </trkpt>
      <trkpt lat="43.76933" lon="7.21099">
        <ele>66.827</ele>
        <time>2018-11-26T14:43:27.696Z</time>
      </trkpt>
      <trkpt lat="43.76946" lon="7.2111">
        <ele>66.795</ele>
        <time>2018-11-26T14:43:30.413Z</time>
      </trkpt>
      <trkpt lat="43.7696" lon="7.21125">
        <ele>66.787</ele>
        <time>2018-11-26T14:43:33.102Z</time>
      </trkpt>
      <trkpt lat="43.76975" lon="7.21142">
        <ele>66.79</ele>
        <time>2018-11-26T14:43:35.766Z</time>
      </trkpt>
      <trkpt lat="43.76991" lon="7.2116">
        <ele>66.793</ele>
        <time>2018-11-26T14:43:37.966Z</time>
      </trkpt>
      <trkpt lat="43.77019" lon="7.21185">
        <ele>66.796</ele>
        <time>2018-11-26T14:43:40.687Z</time>
      </trkpt>
      <trkpt lat="43.7705" lon="7.21218">
        <ele>66.796</ele>
        <time>2018-11-26T14:43:43.928Z</time>
      </trkpt>
      <trkpt lat="43.77076" lon="7.21246">
        <ele>66.796</ele>
        <time>2018-11-26T14:43:46.924Z</time>
      </trkpt>
      <trkpt lat="43.77102" lon="7.21273">
        <ele>66.796</ele>
        <time>2018-11-26T14:43:49.806Z</time>
      </trkpt>
      <trkpt lat="43.77128" lon="7.21302">
        <ele>66.796</ele>
        <time>2018-11-26T14:43:52.900Z</time>
      </trkpt>
      <trkpt lat="43.77152" lon="7.21331">
        <ele>66.814</ele>
        <time>2018-11-26T14:43:56.523Z</time>
      </trkpt>
      <trkpt lat="43.77165" lon="7.21356">
        <ele>67.015</ele>
        <time>2018-11-26T14:43:59.916Z</time>
      </trkpt>
      <trkpt lat="43.77171" lon="7.21382">
        <ele>67.548</ele>
        <time>2018-11-26T14:44:02.648Z</time>
      </trkpt>
      <trkpt lat="43.77193" lon="7.21382">
        <ele>68.277</ele>
        <time>2018-11-26T14:44:05.100Z</time>
      </trkpt>
      <trkpt lat="43.77222" lon="7.21397">
        <ele>68.893</ele>
        <time>2018-11-26T14:44:07.755Z</time>
      </trkpt>
      <trkpt lat="43.77256" lon="7.21427">
        <ele>69.178</ele>
        <time>2018-11-26T14:44:10.735Z</time>
      </trkpt>
      <trkpt lat="43.7729" lon="7.21458">
        <ele>69.137</ele>
        <time>2018-11-26T14:44:13.444Z</time>
      </trkpt>
      <trkpt lat="43.77334" lon="7.21492">
        <ele>68.983</ele>
        <time>2018-11-26T14:44:16.241Z</time>
      </trkpt>
      <trkpt lat="43.77386" lon="7.21528">
        <ele>68.779</ele>
        <time>2018-11-26T14:44:19.131Z</time>
      </trkpt>
      <trkpt lat="43.77441" lon="7.21572">
        <ele>68.488</ele>
        <time>2018-11-26T14:44:22.137Z</time>
      </trkpt>
      <trkpt lat="43.77499" lon="7.21605">
        <ele>68.273</ele>
        <time>2018-11-26T14:44:25.130Z</time>
      </trkpt>
      <trkpt lat="43.77554" lon="7.21637">
        <ele>68.337</ele>
        <time>2018-11-26T14:44:28.084Z</time>
      </trkpt>
      <trkpt lat="43.7761" lon="7.21665">
        <ele>68.655</ele>
        <time>2018-11-26T14:44:31.082Z</time>
      </trkpt>
      <trkpt lat="43.77664" lon="7.21691">
        <ele>69.109</ele>
        <time>2018-11-26T14:44:33.938Z</time>
      </trkpt>
      <trkpt lat="43.7772" lon="7.21716">
        <ele>69.621</ele>
        <time>2018-11-26T14:44:36.874Z</time>
      </trkpt>
      <trkpt lat="43.77781" lon="7.21736">
        <ele>70.213</ele>
        <time>2018-11-26T14:44:39.910Z</time>
      </trkpt>
      <trkpt lat="43.77841" lon="7.21759">
        <ele>70.927</ele>
        <time>2018-11-26T14:44:42.890Z</time>
      </trkpt>
      <trkpt lat="43.77904" lon="7.21774">
        <ele>71.68</ele>
        <time>2018-11-26T14:44:45.874Z</time>
      </trkpt>
      <trkpt lat="43.7797" lon="7.21784">
        <ele>72.309</ele>
        <time>2018-11-26T14:44:48.944Z</time>
      </trkpt>
      <trkpt lat="43.78033" lon="7.21791">
        <ele>72.759</ele>
        <time>2018-11-26T14:44:51.894Z</time>
      </trkpt>
      <trkpt lat="43.78095" lon="7.21797">
        <ele>73.203</ele>
        <time>2018-11-26T14:44:54.826Z</time>
      </trkpt>
      <trkpt lat="43.78162" lon="7.21801">
        <ele>73.869</ele>
        <time>2018-11-26T14:44:58.040Z</time>
      </trkpt>
      <trkpt lat="43.78224" lon="7.21795">
        <ele>74.62</ele>
        <time>2018-11-26T14:45:00.984Z</time>
      </trkpt>
      <trkpt lat="43.78285" lon="7.21795">
        <ele>75.146</ele>
        <time>2018-11-26T14:45:03.904Z</time>
      </trkpt>
      <trkpt lat="43.78347" lon="7.21785">
        <ele>75.427</ele>
        <time>2018-11-26T14:45:06.909Z</time>
      </trkpt>
      <trkpt lat="43.78408" lon="7.21772">
        <ele>75.715</ele>
        <time>2018-11-26T14:45:09.867Z</time>
      </trkpt>
      <trkpt lat="43.7847" lon="7.21758">
        <ele>76.204</ele>
        <time>2018-11-26T14:45:12.920Z</time>
      </trkpt>
      <trkpt lat="43.7853" lon="7.21739">
        <ele>76.81</ele>
        <time>2018-11-26T14:45:16.012Z</time>
      </trkpt>
      <trkpt lat="43.78586" lon="7.2172">
        <ele>77.371</ele>
        <time>2018-11-26T14:45:19.077Z</time>
      </trkpt>
      <trkpt lat="43.78631" lon="7.21705">
        <ele>77.857</ele>
        <time>2018-11-26T14:45:21.883Z</time>
      </trkpt>
      <trkpt lat="43.78674" lon="7.21682">
        <ele>78.321</ele>
        <time>2018-11-26T14:45:24.768Z</time>
      </trkpt>
      <trkpt lat="43.78722" lon="7.2166">
        <ele>78.799</ele>
        <time>2018-11-26T14:45:27.906Z</time>
      </trkpt>
      <trkpt lat="43.78771" lon="7.21636">
        <ele>79.229</ele>
        <time>2018-11-26T14:45:31.053Z</time>
      </trkpt>
      <trkpt lat="43.78815" lon="7.21612">
        <ele>79.508</ele>
        <time>2018-11-26T14:45:33.953Z</time>
      </trkpt>
      <trkpt lat="43.78857" lon="7.21586">
        <ele>79.635</ele>
        <time>2018-11-26T14:45:36.793Z</time>
      </trkpt>
      <trkpt lat="43.78905" lon="7.21556">
        <ele>79.699</ele>
        <time>2018-11-26T14:45:39.921Z</time>
      </trkpt>
      <trkpt lat="43.78937" lon="7.21536">
        <ele>79.781</ele>
        <time>2018-11-26T14:45:42.020Z</time>
      </trkpt>
      <trkpt lat="43.78962" lon="7.21516">
        <ele>79.881</ele>
        <time>2018-11-26T14:45:43.959Z</time>
      </trkpt>
      <trkpt lat="43.78984" lon="7.21494">
        <ele>79.962</ele>
        <time>2018-11-26T14:45:45.830Z</time>
      </trkpt>
      <trkpt lat="43.79005" lon="7.21477">
        <ele>79.997</ele>
        <time>2018-11-26T14:45:47.749Z</time>
      </trkpt>
      <trkpt lat="43.79026" lon="7.21456">
        <ele>79.98</ele>
        <time>2018-11-26T14:45:49.822Z</time>
      </trkpt>
      <trkpt lat="43.79045" lon="7.21442">
        <ele>79.939</ele>
        <time>2018-11-26T14:45:51.741Z</time>
      </trkpt>
      <trkpt lat="43.79062" lon="7.21433">
        <ele>79.948</ele>
        <time>2018-11-26T14:45:53.643Z</time>
      </trkpt>
      <trkpt lat="43.79076" lon="7.21423">
        <ele>80.211</ele>
        <time>2018-11-26T14:45:55.641Z</time>
      </trkpt>
      <trkpt lat="43.79089" lon="7.21426">
        <ele>80.897</ele>
        <time>2018-11-26T14:45:57.635Z</time>
      </trkpt>
      <trkpt lat="43.79102" lon="7.21431">
        <ele>81.833</ele>
        <time>2018-11-26T14:45:59.620Z</time>
      </trkpt>
      <trkpt lat="43.79115" lon="7.21427">
        <ele>82.644</ele>
        <time>2018-11-26T14:46:01.508Z</time>
      </trkpt>
      <trkpt lat="43.79123" lon="7.21405">
        <ele>83.123</ele>
        <time>2018-11-26T14:46:03.803Z</time>
      </trkpt>
      <trkpt lat="43.79126" lon="7.21377">
        <ele>83.268</ele>
        <time>2018-11-26T14:46:05.682Z</time>
      </trkpt>
      <trkpt lat="43.79141" lon="7.21346">
        <ele>83.16</ele>
        <time>2018-11-26T14:46:07.628Z</time>
      </trkpt>
      <trkpt lat="43.79163" lon="7.2131">
        <ele>82.94</ele>
        <time>2018-11-26T14:46:09.638Z</time>
      </trkpt>
      <trkpt lat="43.79191" lon="7.21271">
        <ele>82.809</ele>
        <time>2018-11-26T14:46:11.700Z</time>
      </trkpt>
      <trkpt lat="43.7922" lon="7.21235">
        <ele>82.877</ele>
        <time>2018-11-26T14:46:13.702Z</time>
      </trkpt>
      <trkpt lat="43.7925" lon="7.21205">
        <ele>83.05</ele>
        <time>2018-11-26T14:46:15.628Z</time>
      </trkpt>
      <trkpt lat="43.79293" lon="7.21155">
        <ele>83.2</ele>
        <time>2018-11-26T14:46:18.629Z</time>
      </trkpt>
      <trkpt lat="43.79335" lon="7.21104">
        <ele>83.303</ele>
        <time>2018-11-26T14:46:21.619Z</time>
      </trkpt>
      <trkpt lat="43.7938" lon="7.21055">
        <ele>83.376</ele>
        <time>2018-11-26T14:46:24.621Z</time>
      </trkpt>
      <trkpt lat="43.79423" lon="7.21002">
        <ele>83.421</ele>
        <time>2018-11-26T14:46:27.611Z</time>
      </trkpt>
      <trkpt lat="43.79469" lon="7.2095">
        <ele>83.441</ele>
        <time>2018-11-26T14:46:30.700Z</time>
      </trkpt>
      <trkpt lat="43.79512" lon="7.20896">
        <ele>83.445</ele>
        <time>2018-11-26T14:46:33.701Z</time>
      </trkpt>
      <trkpt lat="43.79556" lon="7.20845">
        <ele>83.444</ele>
        <time>2018-11-26T14:46:36.720Z</time>
      </trkpt>
      <trkpt lat="43.79598" lon="7.20793">
        <ele>83.442</ele>
        <time>2018-11-26T14:46:39.669Z</time>
      </trkpt>
      <trkpt lat="43.79641" lon="7.20744">
        <ele>83.441</ele>
        <time>2018-11-26T14:46:42.655Z</time>
      </trkpt>
      <trkpt lat="43.79685" lon="7.20696">
        <ele>83.441</ele>
        <time>2018-11-26T14:46:45.660Z</time>
      </trkpt>
      <trkpt lat="43.79725" lon="7.20646">
        <ele>83.441</ele>
        <time>2018-11-26T14:46:48.587Z</time>
      </trkpt>
      <trkpt lat="43.79764" lon="7.20599">
        <ele>83.441</ele>
        <time>2018-11-26T14:46:51.486Z</time>
      </trkpt>
      <trkpt lat="43.79807" lon="7.20552">
        <ele>83.62</ele>
        <time>2018-11-26T14:46:54.614Z</time>
      </trkpt>
      <trkpt lat="43.79844" lon="7.20509">
        <ele>84.223</ele>
        <time>2018-11-26T14:46:57.606Z</time>
      </trkpt>
      <trkpt lat="43.79871" lon="7.20476">
        <ele>85.082</ele>
        <time>2018-11-26T14:47:00.253Z</time>
      </trkpt>
      <trkpt lat="43.79896" lon="7.20448">
        <ele>85.754</ele>
        <time>2018-11-26T14:47:03.034Z</time>
      </trkpt>
      <trkpt lat="43.79921" lon="7.2043">
        <ele>86.129</ele>
        <time>2018-11-26T14:47:05.915Z</time>
      </trkpt>
      <trkpt lat="43.79942" lon="7.20425">
        <ele>86.361</ele>
        <time>2018-11-26T14:47:08.405Z</time>
      </trkpt>
      <trkpt lat="43.79964" lon="7.20434">
        <ele>86.533</ele>
        <time>2018-11-26T14:47:11.565Z</time>
      </trkpt>
      <trkpt lat="43.79981" lon="7.20405">
        <ele>86.655</ele>
        <time>2018-11-26T14:47:15.076Z</time>
      </trkpt>
      <trkpt lat="43.7999" lon="7.20362">
        <ele>86.732</ele>
        <time>2018-11-26T14:47:18.312Z</time>
      </trkpt>
      <trkpt lat="43.80015" lon="7.20309">
        <ele>86.767</ele>
        <time>2018-11-26T14:47:21.497Z</time>
      </trkpt>
      <trkpt lat="43.80058" lon="7.20257">
        <ele>86.776</ele>
        <time>2018-11-26T14:47:24.622Z</time>
      </trkpt>
      <trkpt lat="43.80107" lon="7.20209">
        <ele>86.839</ele>
        <time>2018-11-26T14:47:27.763Z</time>
      </trkpt>
      <trkpt lat="43.8015" lon="7.20158">
        <ele>87.173</ele>
        <time>2018-11-26T14:47:30.763Z</time>
      </trkpt>
      <trkpt lat="43.80188" lon="7.2011">
        <ele>87.937</ele>
        <time>2018-11-26T14:47:33.551Z</time>
      </trkpt>
      <trkpt lat="43.80228" lon="7.20062">
        <ele>88.961</ele>
        <time>2018-11-26T14:47:36.399Z</time>
      </trkpt>
      <trkpt lat="43.80273" lon="7.20012">
        <ele>89.837</ele>
        <time>2018-11-26T14:47:39.447Z</time>
      </trkpt>
      <trkpt lat="43.80318" lon="7.19959">
        <ele>90.275</ele>
        <time>2018-11-26T14:47:42.477Z</time>
      </trkpt>
      <trkpt lat="43.80362" lon="7.19904">
        <ele>90.304</ele>
        <time>2018-11-26T14:47:45.467Z</time>
      </trkpt>
      <trkpt lat="43.80408" lon="7.19855">
        <ele>90.154</ele>
        <time>2018-11-26T14:47:48.432Z</time>
      </trkpt>
      <trkpt lat="43.80456" lon="7.19802">
        <ele>90.01</ele>
        <time>2018-11-26T14:47:51.484Z</time>
      </trkpt>
      <trkpt lat="43.80501" lon="7.19746">
        <ele>90.128</ele>
        <time>2018-11-26T14:47:54.504Z</time>
      </trkpt>
      <trkpt lat="43.80547" lon="7.19696">
        <ele>90.826</ele>
        <time>2018-11-26T14:47:57.448Z</time>
      </trkpt>
      <trkpt lat="43.80592" lon="7.1964">
        <ele>92.075</ele>
        <time>2018-11-26T14:48:00.481Z</time>
      </trkpt>
      <trkpt lat="43.80637" lon="7.19588">
        <ele>93.343</ele>
        <time>2018-11-26T14:48:03.465Z</time>
      </trkpt>
      <trkpt lat="43.80682" lon="7.19539">
        <ele>93.725</ele>
        <time>2018-11-26T14:48:06.404Z</time>
      </trkpt>
      <trkpt lat="43.80725" lon="7.19487">
        <ele>92.942</ele>
        <time>2018-11-26T14:48:09.298Z</time>
      </trkpt>
      <trkpt lat="43.80768" lon="7.19434">
        <ele>92.044</ele>
        <time>2018-11-26T14:48:12.264Z</time>
      </trkpt>
      <trkpt lat="43.80813" lon="7.19386">
        <ele>92.124</ele>
        <time>2018-11-26T14:48:15.215Z</time>
      </trkpt>
      <trkpt lat="43.80856" lon="7.19329">
        <ele>93.099</ele>
        <time>2018-11-26T14:48:18.302Z</time>
      </trkpt>
      <trkpt lat="43.809" lon="7.19281">
        <ele>94.317</ele>
        <time>2018-11-26T14:48:21.346Z</time>
      </trkpt>
      <trkpt lat="43.80943" lon="7.19238">
        <ele>95.325</ele>
        <time>2018-11-26T14:48:24.381Z</time>
      </trkpt>
      <trkpt lat="43.80978" lon="7.19199">
        <ele>96.011</ele>
        <time>2018-11-26T14:48:27.249Z</time>
      </trkpt>
      <trkpt lat="43.81008" lon="7.19158">
        <ele>96.464</ele>
        <time>2018-11-26T14:48:30.056Z</time>
      </trkpt>
      <trkpt lat="43.81047" lon="7.19117">
        <ele>96.932</ele>
        <time>2018-11-26T14:48:33.167Z</time>
      </trkpt>
      <trkpt lat="43.81094" lon="7.19081">
        <ele>97.66</ele>
        <time>2018-11-26T14:48:36.373Z</time>
      </trkpt>
      <trkpt lat="43.81139" lon="7.19041">
        <ele>98.623</ele>
        <time>2018-11-26T14:48:39.394Z</time>
      </trkpt>
      <trkpt lat="43.81188" lon="7.19007">
        <ele>99.563</ele>
        <time>2018-11-26T14:48:42.329Z</time>
      </trkpt>
      <trkpt lat="43.81242" lon="7.18973">
        <ele>100.325</ele>
        <time>2018-11-26T14:48:45.400Z</time>
      </trkpt>
      <trkpt lat="43.81296" lon="7.18946">
        <ele>101.057</ele>
        <time>2018-11-26T14:48:48.329Z</time>
      </trkpt>
      <trkpt lat="43.81351" lon="7.18918">
        <ele>101.825</ele>
        <time>2018-11-26T14:48:51.330Z</time>
      </trkpt>
      <trkpt lat="43.81407" lon="7.18894">
        <ele>102.37</ele>
        <time>2018-11-26T14:48:54.333Z</time>
      </trkpt>
      <trkpt lat="43.81464" lon="7.1887">
        <ele>102.554</ele>
        <time>2018-11-26T14:48:57.352Z</time>
      </trkpt>
      <trkpt lat="43.81522" lon="7.18852">
        <ele>102.563</ele>
        <time>2018-11-26T14:49:00.378Z</time>
      </trkpt>
      <trkpt lat="43.81579" lon="7.18837">
        <ele>102.595</ele>
        <time>2018-11-26T14:49:03.308Z</time>
      </trkpt>
      <trkpt lat="43.81638" lon="7.18825">
        <ele>102.777</ele>
        <time>2018-11-26T14:49:06.306Z</time>
      </trkpt>
      <trkpt lat="43.81696" lon="7.18816">
        <ele>103.2</ele>
        <time>2018-11-26T14:49:09.260Z</time>
      </trkpt>
      <trkpt lat="43.81753" lon="7.18811">
        <ele>103.778</ele>
        <time>2018-11-26T14:49:12.200Z</time>
      </trkpt>
      <trkpt lat="43.81812" lon="7.18806">
        <ele>104.334</ele>
        <time>2018-11-26T14:49:15.303Z</time>
      </trkpt>
      <trkpt lat="43.81862" lon="7.18804">
        <ele>104.924</ele>
        <time>2018-11-26T14:49:18.196Z</time>
      </trkpt>
      <trkpt lat="43.81904" lon="7.18804">
        <ele>105.684</ele>
        <time>2018-11-26T14:49:20.895Z</time>
      </trkpt>
      <trkpt lat="43.81947" lon="7.18816">
        <ele>106.526</ele>
        <time>2018-11-26T14:49:23.844Z</time>
      </trkpt>
      <trkpt lat="43.81995" lon="7.18834">
        <ele>107.254</ele>
        <time>2018-11-26T14:49:27.048Z</time>
      </trkpt>
      <trkpt lat="43.82041" lon="7.18843">
        <ele>107.775</ele>
        <time>2018-11-26T14:49:30.030Z</time>
      </trkpt>
      <trkpt lat="43.82082" lon="7.18856">
        <ele>108.109</ele>
        <time>2018-11-26T14:49:32.911Z</time>
      </trkpt>
      <trkpt lat="43.82118" lon="7.18857">
        <ele>108.32</ele>
        <time>2018-11-26T14:49:35.666Z</time>
      </trkpt>
      <trkpt lat="43.82146" lon="7.18853">
        <ele>108.46</ele>
        <time>2018-11-26T14:49:38.073Z</time>
      </trkpt>
      <trkpt lat="43.82177" lon="7.18856">
        <ele>108.598</ele>
        <time>2018-11-26T14:49:41.057Z</time>
      </trkpt>
      <trkpt lat="43.82199" lon="7.18871">
        <ele>108.775</ele>
        <time>2018-11-26T14:49:43.774Z</time>
      </trkpt>
      <trkpt lat="43.8221" lon="7.18894">
        <ele>108.947</ele>
        <time>2018-11-26T14:49:46.255Z</time>
      </trkpt>
      <trkpt lat="43.82229" lon="7.18886">
        <ele>109.05</ele>
        <time>2018-11-26T14:49:49.128Z</time>
      </trkpt>
      <trkpt lat="43.82255" lon="7.18875">
        <ele>109.086</ele>
        <time>2018-11-26T14:49:53.044Z</time>
      </trkpt>
      <trkpt lat="43.82294" lon="7.18889">
        <ele>109.153</ele>
        <time>2018-11-26T14:49:56.636Z</time>
      </trkpt>
      <trkpt lat="43.82339" lon="7.18902">
        <ele>109.32</ele>
        <time>2018-11-26T14:49:59.881Z</time>
      </trkpt>
      <trkpt lat="43.82385" lon="7.18914">
        <ele>109.618</ele>
        <time>2018-11-26T14:50:02.944Z</time>
      </trkpt>
      <trkpt lat="43.82433" lon="7.18932">
        <ele>110.078</ele>
        <time>2018-11-26T14:50:06.067Z</time>
      </trkpt>
      <trkpt lat="43.8248" lon="7.18949">
        <ele>110.715</ele>
        <time>2018-11-26T14:50:09.061Z</time>
      </trkpt>
      <trkpt lat="43.82527" lon="7.18963">
        <ele>111.484</ele>
        <time>2018-11-26T14:50:11.904Z</time>
      </trkpt>
      <trkpt lat="43.82575" lon="7.18983">
        <ele>112.278</ele>
        <time>2018-11-26T14:50:14.791Z</time>
      </trkpt>
      <trkpt lat="43.82629" lon="7.19008">
        <ele>112.962</ele>
        <time>2018-11-26T14:50:17.924Z</time>
      </trkpt>
      <trkpt lat="43.82687" lon="7.19031">
        <ele>113.549</ele>
        <time>2018-11-26T14:50:21.022Z</time>
      </trkpt>
      <trkpt lat="43.82746" lon="7.1905">
        <ele>114.176</ele>
        <time>2018-11-26T14:50:24.030Z</time>
      </trkpt>
      <trkpt lat="43.82806" lon="7.19067">
        <ele>114.984</ele>
        <time>2018-11-26T14:50:27.065Z</time>
      </trkpt>
      <trkpt lat="43.82865" lon="7.19092">
        <ele>115.852</ele>
        <time>2018-11-26T14:50:30.197Z</time>
      </trkpt>
      <trkpt lat="43.82915" lon="7.1911">
        <ele>116.255</ele>
        <time>2018-11-26T14:50:33.029Z</time>
      </trkpt>
      <trkpt lat="43.82959" lon="7.19126">
        <ele>115.958</ele>
        <time>2018-11-26T14:50:35.841Z</time>
      </trkpt>
      <trkpt lat="43.82999" lon="7.19137">
        <ele>115.478</ele>
        <time>2018-11-26T14:50:38.687Z</time>
      </trkpt>
      <trkpt lat="43.83037" lon="7.19153">
        <ele>115.361</ele>
        <time>2018-11-26T14:50:41.556Z</time>
      </trkpt>
      <trkpt lat="43.83079" lon="7.19167">
        <ele>115.68</ele>
        <time>2018-11-26T14:50:44.483Z</time>
      </trkpt>
      <trkpt lat="43.83127" lon="7.19188">
        <ele>116.226</ele>
        <time>2018-11-26T14:50:47.690Z</time>
      </trkpt>
      <trkpt lat="43.83176" lon="7.19205">
        <ele>116.697</ele>
        <time>2018-11-26T14:50:50.712Z</time>
      </trkpt>
      <trkpt lat="43.83223" lon="7.19218">
        <ele>117.013</ele>
        <time>2018-11-26T14:50:53.630Z</time>
      </trkpt>
      <trkpt lat="43.83271" lon="7.19236">
        <ele>117.349</ele>
        <time>2018-11-26T14:50:56.675Z</time>
      </trkpt>
      <trkpt lat="43.83324" lon="7.19253">
        <ele>117.816</ele>
        <time>2018-11-26T14:50:59.863Z</time>
      </trkpt>
      <trkpt lat="43.83377" lon="7.19269">
        <ele>118.344</ele>
        <time>2018-11-26T14:51:03.008Z</time>
      </trkpt>
      <trkpt lat="43.83422" lon="7.19289">
        <ele>118.836</ele>
        <time>2018-11-26T14:51:05.896Z</time>
      </trkpt>
      <trkpt lat="43.83464" lon="7.19306">
        <ele>119.223</ele>
        <time>2018-11-26T14:51:08.943Z</time>
      </trkpt>
      <trkpt lat="43.83495" lon="7.19319">
        <ele>119.486</ele>
        <time>2018-11-26T14:51:11.488Z</time>
      </trkpt>
      <trkpt lat="43.83515" lon="7.19336">
        <ele>119.665</ele>
        <time>2018-11-26T14:51:13.686Z</time>
      </trkpt>
      <trkpt lat="43.83531" lon="7.19351">
        <ele>119.805</ele>
        <time>2018-11-26T14:51:16.096Z</time>
      </trkpt>
      <trkpt lat="43.83545" lon="7.19365">
        <ele>119.917</ele>
        <time>2018-11-26T14:51:18.744Z</time>
      </trkpt>
      <trkpt lat="43.83564" lon="7.19353">
        <ele>120.008</ele>
        <time>2018-11-26T14:51:22.046Z</time>
      </trkpt>
      <trkpt lat="43.83593" lon="7.1935">
        <ele>120.082</ele>
        <time>2018-11-26T14:51:25.981Z</time>
      </trkpt>
      <trkpt lat="43.8363" lon="7.19366">
        <ele>120.14</ele>
        <time>2018-11-26T14:51:29.612Z</time>
      </trkpt>
      <trkpt lat="43.83663" lon="7.19381">
        <ele>120.276</ele>
        <time>2018-11-26T14:51:32.442Z</time>
      </trkpt>
      <trkpt lat="43.83698" lon="7.19394">
        <ele>120.683</ele>
        <time>2018-11-26T14:51:35.394Z</time>
      </trkpt>
      <trkpt lat="43.83733" lon="7.19406">
        <ele>121.422</ele>
        <time>2018-11-26T14:51:38.403Z</time>
      </trkpt>
      <trkpt lat="43.83766" lon="7.19419">
        <ele>122.282</ele>
        <time>2018-11-26T14:51:41.298Z</time>
      </trkpt>
      <trkpt lat="43.83805" lon="7.19431">
        <ele>123.012</ele>
        <time>2018-11-26T14:51:44.610Z</time>
      </trkpt>
      <trkpt lat="43.83843" lon="7.19444">
        <ele>123.551</ele>
        <time>2018-11-26T14:51:47.757Z</time>
      </trkpt>
      <trkpt lat="43.83877" lon="7.19452">
        <ele>123.993</ele>
        <time>2018-11-26T14:51:50.685Z</time>
      </trkpt>
      <trkpt lat="43.83898" lon="7.19469">
        <ele>124.42</ele>
        <time>2018-11-26T14:51:53.095Z</time>
      </trkpt>
      <trkpt lat="43.83906" lon="7.19489">
        <ele>124.828</ele>
        <time>2018-11-26T14:51:55.392Z</time>
      </trkpt>
      <trkpt lat="43.83922" lon="7.19497">
        <ele>125.158</ele>
        <time>2018-11-26T14:51:58.314Z</time>
      </trkpt>
      <trkpt lat="43.83926" lon="7.19469">
        <ele>125.398</ele>
        <time>2018-11-26T14:52:02.191Z</time>
      </trkpt>
      <trkpt lat="43.83901" lon="7.19458">
        <ele>125.553</ele>
        <time>2018-11-26T14:52:05.832Z</time>
      </trkpt>
      <trkpt lat="43.83866" lon="7.19444">
        <ele>125.595</ele>
        <time>2018-11-26T14:52:09.395Z</time>
      </trkpt>
      <trkpt lat="43.83831" lon="7.1943">
        <ele>125.531</ele>
        <time>2018-11-26T14:52:12.757Z</time>
      </trkpt>
      <trkpt lat="43.83803" lon="7.19419">
        <ele>125.446</ele>
        <time>2018-11-26T14:52:16.013Z</time>
      </trkpt>
      <trkpt lat="43.83785" lon="7.19409">
        <ele>125.43</ele>
        <time>2018-11-26T14:52:18.833Z</time>
      </trkpt>
      <trkpt lat="43.83785" lon="7.19387">
        <ele>125.488</ele>
        <time>2018-11-26T14:52:21.265Z</time>
      </trkpt>
      <trkpt lat="43.83793" lon="7.19351">
        <ele>125.526</ele>
        <time>2018-11-26T14:52:24.481Z</time>
      </trkpt>
      <trkpt lat="43.83801" lon="7.19309">
        <ele>125.347</ele>
        <time>2018-11-26T14:52:27.578Z</time>
      </trkpt>
      <trkpt lat="43.8381" lon="7.19265">
        <ele>124.925</ele>
        <time>2018-11-26T14:52:30.682Z</time>
      </trkpt>
      <trkpt lat="43.83817" lon="7.19225">
        <ele>124.82</ele>
        <time>2018-11-26T14:52:33.610Z</time>
      </trkpt>
      <trkpt lat="43.83824" lon="7.19187">
        <ele>125.528</ele>
        <time>2018-11-26T14:52:36.608Z</time>
      </trkpt>
      <trkpt lat="43.83831" lon="7.19153">
        <ele>126.613</ele>
        <time>2018-11-26T14:52:39.920Z</time>
      </trkpt>
      <trkpt lat="43.83835" lon="7.19128">
        <ele>127.298</ele>
        <time>2018-11-26T14:52:43.077Z</time>
      </trkpt>
      <trkpt lat="43.83837" lon="7.19113">
        <ele>127.296</ele>
        <time>2018-11-26T14:52:45.428Z</time>
      </trkpt>
      <trkpt lat="43.83831" lon="7.19099">
        <ele>126.788</ele>
        <time>2018-11-26T14:52:47.494Z</time>
      </trkpt>
      <trkpt lat="43.83816" lon="7.19103">
        <ele>126.116</ele>
        <time>2018-11-26T14:52:49.366Z</time>
      </trkpt>
      <trkpt lat="43.83798" lon="7.19104">
        <ele>125.544</ele>
        <time>2018-11-26T14:52:51.129Z</time>
      </trkpt>
      <trkpt lat="43.83775" lon="7.19099">
        <ele>125.239</ele>
        <time>2018-11-26T14:52:53.004Z</time>
      </trkpt>
      <trkpt lat="43.83747" lon="7.19089">
        <ele>125.207</ele>
        <time>2018-11-26T14:52:54.905Z</time>
      </trkpt>
      <trkpt lat="43.83717" lon="7.19073">
        <ele>125.107</ele>
        <time>2018-11-26T14:52:56.842Z</time>
      </trkpt>
      <trkpt lat="43.83684" lon="7.1905">
        <ele>124.577</ele>
        <time>2018-11-26T14:52:58.857Z</time>
      </trkpt>
      <trkpt lat="43.83654" lon="7.19017">
        <ele>123.698</ele>
        <time>2018-11-26T14:53:00.931Z</time>
      </trkpt>
      <trkpt lat="43.83624" lon="7.18988">
        <ele>122.824</ele>
        <time>2018-11-26T14:53:02.935Z</time>
      </trkpt>
      <trkpt lat="43.83594" lon="7.18963">
        <ele>122.153</ele>
        <time>2018-11-26T14:53:04.931Z</time>
      </trkpt>
      <trkpt lat="43.83565" lon="7.18942">
        <ele>121.695</ele>
        <time>2018-11-26T14:53:06.865Z</time>
      </trkpt>
      <trkpt lat="43.83539" lon="7.18916">
        <ele>121.388</ele>
        <time>2018-11-26T14:53:08.810Z</time>
      </trkpt>
      <trkpt lat="43.83511" lon="7.18893">
        <ele>121.163</ele>
        <time>2018-11-26T14:53:10.965Z</time>
      </trkpt>
      <trkpt lat="43.8349" lon="7.18873">
        <ele>120.975</ele>
        <time>2018-11-26T14:53:13.113Z</time>
      </trkpt>
      <trkpt lat="43.83473" lon="7.18861">
        <ele>120.803</ele>
        <time>2018-11-26T14:53:15.190Z</time>
      </trkpt>
      <trkpt lat="43.8346" lon="7.18848">
        <ele>120.655</ele>
        <time>2018-11-26T14:53:17.422Z</time>
      </trkpt>
      <trkpt lat="43.83462" lon="7.18827">
        <ele>120.547</ele>
        <time>2018-11-26T14:53:19.621Z</time>
      </trkpt>
      <trkpt lat="43.83452" lon="7.18819">
        <ele>120.481</ele>
        <time>2018-11-26T14:53:21.191Z</time>
      </trkpt>
      <trkpt lat="43.83435" lon="7.18818">
        <ele>120.439</ele>
        <time>2018-11-26T14:53:23.007Z</time>
      </trkpt>
      <trkpt lat="43.83415" lon="7.18803">
        <ele>120.409</ele>
        <time>2018-11-26T14:53:24.687Z</time>
      </trkpt>
      <trkpt lat="43.83373" lon="7.18754">
        <ele>120.384</ele>
        <time>2018-11-26T14:53:28.039Z</time>
      </trkpt>
      <trkpt lat="43.83324" lon="7.18707">
        <ele>120.362</ele>
        <time>2018-11-26T14:53:31.228Z</time>
      </trkpt>
      <trkpt lat="43.83283" lon="7.18664">
        <ele>120.342</ele>
        <time>2018-11-26T14:53:34.095Z</time>
      </trkpt>
      <trkpt lat="43.83235" lon="7.18629">
        <ele>120.323</ele>
        <time>2018-11-26T14:53:37.123Z</time>
      </trkpt>
      <trkpt lat="43.83186" lon="7.18595">
        <ele>120.31</ele>
        <time>2018-11-26T14:53:40.173Z</time>
      </trkpt>
      <trkpt lat="43.83137" lon="7.1857">
        <ele>120.179</ele>
        <time>2018-11-26T14:53:43.027Z</time>
      </trkpt>
      <trkpt lat="43.83082" lon="7.18543">
        <ele>119.855</ele>
        <time>2018-11-26T14:53:46.183Z</time>
      </trkpt>
      <trkpt lat="43.83036" lon="7.18518">
        <ele>119.524</ele>
        <time>2018-11-26T14:53:49.205Z</time>
      </trkpt>
      <trkpt lat="43.82994" lon="7.18504">
        <ele>119.244</ele>
        <time>2018-11-26T14:53:52.364Z</time>
      </trkpt>
      <trkpt lat="43.82962" lon="7.18492">
        <ele>118.807</ele>
        <time>2018-11-26T14:53:55.815Z</time>
      </trkpt>
      <trkpt lat="43.82944" lon="7.18477">
        <ele>118.132</ele>
        <time>2018-11-26T14:53:58.778Z</time>
      </trkpt>
      <trkpt lat="43.82929" lon="7.18463">
        <ele>117.321</ele>
        <time>2018-11-26T14:54:01.167Z</time>
      </trkpt>
      <trkpt lat="43.82903" lon="7.18458">
        <ele>116.531</ele>
        <time>2018-11-26T14:54:03.841Z</time>
      </trkpt>
      <trkpt lat="43.82865" lon="7.18439">
        <ele>115.902</ele>
        <time>2018-11-26T14:54:06.884Z</time>
      </trkpt>
      <trkpt lat="43.82819" lon="7.18411">
        <ele>115.465</ele>
        <time>2018-11-26T14:54:09.837Z</time>
      </trkpt>
      <trkpt lat="43.82765" lon="7.18384">
        <ele>115.181</ele>
        <time>2018-11-26T14:54:13.072Z</time>
      </trkpt>
      <trkpt lat="43.82722" lon="7.18353">
        <ele>114.997</ele>
        <time>2018-11-26T14:54:15.996Z</time>
      </trkpt>
      <trkpt lat="43.82685" lon="7.1831">
        <ele>114.872</ele>
        <time>2018-11-26T14:54:19.059Z</time>
      </trkpt>
      <trkpt lat="43.82655" lon="7.18264">
        <ele>114.782</ele>
        <time>2018-11-26T14:54:21.998Z</time>
      </trkpt>
      <trkpt lat="43.82629" lon="7.18215">
        <ele>114.71</ele>
        <time>2018-11-26T14:54:25.029Z</time>
      </trkpt>
      <trkpt lat="43.82602" lon="7.18168">
        <ele>114.508</ele>
        <time>2018-11-26T14:54:28.231Z</time>
      </trkpt>
      <trkpt lat="43.82582" lon="7.18135">
        <ele>114.066</ele>
        <time>2018-11-26T14:54:31.246Z</time>
      </trkpt>
      <trkpt lat="43.8257" lon="7.18115">
        <ele>113.582</ele>
        <time>2018-11-26T14:54:33.724Z</time>
      </trkpt>
      <trkpt lat="43.8257" lon="7.18087">
        <ele>113.316</ele>
        <time>2018-11-26T14:54:36.975Z</time>
      </trkpt>
      <trkpt lat="43.82553" lon="7.18092">
        <ele>113.319</ele>
        <time>2018-11-26T14:54:39.632Z</time>
      </trkpt>
      <trkpt lat="43.8254" lon="7.18121">
        <ele>113.543</ele>
        <time>2018-11-26T14:54:42.506Z</time>
      </trkpt>
      <trkpt lat="43.8251" lon="7.18149">
        <ele>113.873</ele>
        <time>2018-11-26T14:54:45.477Z</time>
      </trkpt>
      <trkpt lat="43.8247" lon="7.18184">
        <ele>114.163</ele>
        <time>2018-11-26T14:54:48.566Z</time>
      </trkpt>
      <trkpt lat="43.82425" lon="7.18221">
        <ele>114.336</ele>
        <time>2018-11-26T14:54:51.614Z</time>
      </trkpt>
      <trkpt lat="43.82374" lon="7.18264">
        <ele>114.403</ele>
        <time>2018-11-26T14:54:54.769Z</time>
      </trkpt>
      <trkpt lat="43.82316" lon="7.18294">
        <ele>114.243</ele>
        <time>2018-11-26T14:54:57.962Z</time>
      </trkpt>
      <trkpt lat="43.82265" lon="7.1832">
        <ele>113.626</ele>
        <time>2018-11-26T14:55:00.805Z</time>
      </trkpt>
      <trkpt lat="43.82214" lon="7.18344">
        <ele>112.594</ele>
        <time>2018-11-26T14:55:03.720Z</time>
      </trkpt>
      <trkpt lat="43.82161" lon="7.18355">
        <ele>111.498</ele>
        <time>2018-11-26T14:55:06.638Z</time>
      </trkpt>
      <trkpt lat="43.82105" lon="7.18363">
        <ele>110.617</ele>
        <time>2018-11-26T14:55:09.658Z</time>
      </trkpt>
      <trkpt lat="43.82046" lon="7.18374">
        <ele>110.017</ele>
        <time>2018-11-26T14:55:12.794Z</time>
      </trkpt>
      <trkpt lat="43.81987" lon="7.18385">
        <ele>109.64</ele>
        <time>2018-11-26T14:55:15.820Z</time>
      </trkpt>
      <trkpt lat="43.8193" lon="7.18391">
        <ele>109.403</ele>
        <time>2018-11-26T14:55:18.767Z</time>
      </trkpt>
      <trkpt lat="43.81872" lon="7.18397">
        <ele>109.241</ele>
        <time>2018-11-26T14:55:21.794Z</time>
      </trkpt>
      <trkpt lat="43.81817" lon="7.18404">
        <ele>109.121</ele>
        <time>2018-11-26T14:55:24.696Z</time>
      </trkpt>
      <trkpt lat="43.81761" lon="7.18409">
        <ele>108.914</ele>
        <time>2018-11-26T14:55:27.670Z</time>
      </trkpt>
      <trkpt lat="43.81705" lon="7.1841">
        <ele>108.427</ele>
        <time>2018-11-26T14:55:30.607Z</time>
      </trkpt>
      <trkpt lat="43.81648" lon="7.18419">
        <ele>107.601</ele>
        <time>2018-11-26T14:55:33.645Z</time>
      </trkpt>
      <trkpt lat="43.81591" lon="7.18429">
        <ele>106.574</ele>
        <time>2018-11-26T14:55:36.732Z</time>
      </trkpt>
      <trkpt lat="43.81539" lon="7.18438">
        <ele>105.571</ele>
        <time>2018-11-26T14:55:39.810Z</time>
      </trkpt>
      <trkpt lat="43.81494" lon="7.18447">
        <ele>104.778</ele>
        <time>2018-11-26T14:55:42.821Z</time>
      </trkpt>
      <trkpt lat="43.81456" lon="7.1845">
        <ele>104.231</ele>
        <time>2018-11-26T14:55:45.767Z</time>
      </trkpt>
      <trkpt lat="43.81427" lon="7.18452">
        <ele>103.879</ele>
        <time>2018-11-26T14:55:48.786Z</time>
      </trkpt>
      <trkpt lat="43.81414" lon="7.18447">
        <ele>103.651</ele>
        <time>2018-11-26T14:55:50.532Z</time>
      </trkpt>
      <trkpt lat="43.81398" lon="7.18442">
        <ele>103.496</ele>
        <time>2018-11-26T14:55:53.297Z</time>
      </trkpt>
      <trkpt lat="43.81388" lon="7.18455">
        <ele>103.384</ele>
        <time>2018-11-26T14:55:55.810Z</time>
      </trkpt>
      <trkpt lat="43.81387" lon="7.18487">
        <ele>103.301</ele>
        <time>2018-11-26T14:55:59.547Z</time>
      </trkpt>
      <trkpt lat="43.81364" lon="7.18506">
        <ele>103.241</ele>
        <time>2018-11-26T14:56:02.635Z</time>
      </trkpt>
      <trkpt lat="43.81321" lon="7.18514">
        <ele>103.188</ele>
        <time>2018-11-26T14:56:06.014Z</time>
      </trkpt>
      <trkpt lat="43.8127" lon="7.18544">
        <ele>103.044</ele>
        <time>2018-11-26T14:56:09.242Z</time>
      </trkpt>
      <trkpt lat="43.81217" lon="7.18571">
        <ele>102.586</ele>
        <time>2018-11-26T14:56:12.274Z</time>
      </trkpt>
      <trkpt lat="43.81167" lon="7.18601">
        <ele>101.703</ele>
        <time>2018-11-26T14:56:15.229Z</time>
      </trkpt>
      <trkpt lat="43.81119" lon="7.18634">
        <ele>100.699</ele>
        <time>2018-11-26T14:56:18.162Z</time>
      </trkpt>
      <trkpt lat="43.81073" lon="7.18676">
        <ele>99.924</ele>
        <time>2018-11-26T14:56:21.187Z</time>
      </trkpt>
      <trkpt lat="43.81022" lon="7.18717">
        <ele>99.357</ele>
        <time>2018-11-26T14:56:24.303Z</time>
      </trkpt>
      <trkpt lat="43.80976" lon="7.18761">
        <ele>98.852</ele>
        <time>2018-11-26T14:56:27.257Z</time>
      </trkpt>
      <trkpt lat="43.80931" lon="7.18812">
        <ele>98.403</ele>
        <time>2018-11-26T14:56:30.225Z</time>
      </trkpt>
      <trkpt lat="43.80886" lon="7.18863">
        <ele>98.038</ele>
        <time>2018-11-26T14:56:33.278Z</time>
      </trkpt>
      <trkpt lat="43.80843" lon="7.18918">
        <ele>97.758</ele>
        <time>2018-11-26T14:56:36.253Z</time>
      </trkpt>
      <trkpt lat="43.80796" lon="7.18974">
        <ele>97.548</ele>
        <time>2018-11-26T14:56:39.432Z</time>
      </trkpt>
      <trkpt lat="43.8075" lon="7.19024">
        <ele>97.421</ele>
        <time>2018-11-26T14:56:42.426Z</time>
      </trkpt>
      <trkpt lat="43.80705" lon="7.19074">
        <ele>97.376</ele>
        <time>2018-11-26T14:56:45.381Z</time>
      </trkpt>
      <trkpt lat="43.80659" lon="7.19127">
        <ele>97.372</ele>
        <time>2018-11-26T14:56:48.404Z</time>
      </trkpt>
      <trkpt lat="43.80614" lon="7.19177">
        <ele>97.377</ele>
        <time>2018-11-26T14:56:51.372Z</time>
      </trkpt>
      <trkpt lat="43.80568" lon="7.19228">
        <ele>97.375</ele>
        <time>2018-11-26T14:56:54.372Z</time>
      </trkpt>
      <trkpt lat="43.80523" lon="7.19282">
        <ele>97.351</ele>
        <time>2018-11-26T14:56:57.419Z</time>
      </trkpt>
      <trkpt lat="43.80479" lon="7.19329">
        <ele>97.261</ele>
        <time>2018-11-26T14:57:00.295Z</time>
      </trkpt>
      <trkpt lat="43.80436" lon="7.19381">
        <ele>97.015</ele>
        <time>2018-11-26T14:57:03.298Z</time>
      </trkpt>
      <trkpt lat="43.80393" lon="7.19431">
        <ele>96.428</ele>
        <time>2018-11-26T14:57:06.414Z</time>
      </trkpt>
      <trkpt lat="43.80356" lon="7.19477">
        <ele>95.437</ele>
        <time>2018-11-26T14:57:09.392Z</time>
      </trkpt>
      <trkpt lat="43.80324" lon="7.19511">
        <ele>94.317</ele>
        <time>2018-11-26T14:57:12.250Z</time>
      </trkpt>
      <trkpt lat="43.80301" lon="7.19539">
        <ele>93.404</ele>
        <time>2018-11-26T14:57:14.800Z</time>
      </trkpt>
      <trkpt lat="43.80281" lon="7.19565">
        <ele>92.791</ele>
        <time>2018-11-26T14:57:17.676Z</time>
      </trkpt>
      <trkpt lat="43.80265" lon="7.19583">
        <ele>92.419</ele>
        <time>2018-11-26T14:57:20.083Z</time>
      </trkpt>
      <trkpt lat="43.80244" lon="7.19588">
        <ele>92.192</ele>
        <time>2018-11-26T14:57:23.283Z</time>
      </trkpt>
      <trkpt lat="43.80231" lon="7.19591">
        <ele>92.042</ele>
        <time>2018-11-26T14:57:25.602Z</time>
      </trkpt>
      <trkpt lat="43.80222" lon="7.19624">
        <ele>91.932</ele>
        <time>2018-11-26T14:57:29.271Z</time>
      </trkpt>
      <trkpt lat="43.80194" lon="7.19651">
        <ele>91.85</ele>
        <time>2018-11-26T14:57:32.728Z</time>
      </trkpt>
      <trkpt lat="43.80169" lon="7.19679">
        <ele>91.788</ele>
        <time>2018-11-26T14:57:35.795Z</time>
      </trkpt>
      <trkpt lat="43.80146" lon="7.19703">
        <ele>91.743</ele>
        <time>2018-11-26T14:57:38.565Z</time>
      </trkpt>
      <trkpt lat="43.80123" lon="7.1973">
        <ele>91.712</ele>
        <time>2018-11-26T14:57:41.398Z</time>
      </trkpt>
      <trkpt lat="43.8009" lon="7.19777">
        <ele>91.69</ele>
        <time>2018-11-26T14:57:44.898Z</time>
      </trkpt>
      <trkpt lat="43.80049" lon="7.19821">
        <ele>91.674</ele>
        <time>2018-11-26T14:57:48.038Z</time>
      </trkpt>
      <trkpt lat="43.80013" lon="7.19874">
        <ele>91.611</ele>
        <time>2018-11-26T14:57:51.107Z</time>
      </trkpt>
      <trkpt lat="43.79971" lon="7.19918">
        <ele>91.36</ele>
        <time>2018-11-26T14:57:54.091Z</time>
      </trkpt>
      <trkpt lat="43.79927" lon="7.19965">
        <ele>90.803</ele>
        <time>2018-11-26T14:57:57.123Z</time>
      </trkpt>
      <trkpt lat="43.79883" lon="7.20011">
        <ele>90.102</ele>
        <time>2018-11-26T14:58:00.116Z</time>
      </trkpt>
      <trkpt lat="43.7984" lon="7.20057">
        <ele>89.611</ele>
        <time>2018-11-26T14:58:03.052Z</time>
      </trkpt>
      <trkpt lat="43.79799" lon="7.20105">
        <ele>89.463</ele>
        <time>2018-11-26T14:58:06.062Z</time>
      </trkpt>
      <trkpt lat="43.79756" lon="7.20147">
        <ele>89.204</ele>
        <time>2018-11-26T14:58:08.990Z</time>
      </trkpt>
      <trkpt lat="43.79712" lon="7.202">
        <ele>88.432</ele>
        <time>2018-11-26T14:58:12.056Z</time>
      </trkpt>
      <trkpt lat="43.79666" lon="7.20249">
        <ele>87.485</ele>
        <time>2018-11-26T14:58:15.060Z</time>
      </trkpt>
      <trkpt lat="43.7962" lon="7.20302">
        <ele>86.886</ele>
        <time>2018-11-26T14:58:18.133Z</time>
      </trkpt>
      <trkpt lat="43.79573" lon="7.2035">
        <ele>86.672</ele>
        <time>2018-11-26T14:58:21.089Z</time>
      </trkpt>
      <trkpt lat="43.7953" lon="7.204">
        <ele>86.671</ele>
        <time>2018-11-26T14:58:24.066Z</time>
      </trkpt>
      <trkpt lat="43.79489" lon="7.20452">
        <ele>86.726</ele>
        <time>2018-11-26T14:58:27.058Z</time>
      </trkpt>
      <trkpt lat="43.79447" lon="7.20501">
        <ele>86.767</ele>
        <time>2018-11-26T14:58:29.994Z</time>
      </trkpt>
      <trkpt lat="43.794" lon="7.20552">
        <ele>86.721</ele>
        <time>2018-11-26T14:58:33.080Z</time>
      </trkpt>
      <trkpt lat="43.79354" lon="7.20608">
        <ele>86.31</ele>
        <time>2018-11-26T14:58:36.162Z</time>
      </trkpt>
      <trkpt lat="43.79309" lon="7.20657">
        <ele>85.426</ele>
        <time>2018-11-26T14:58:39.089Z</time>
      </trkpt>
      <trkpt lat="43.79266" lon="7.20708">
        <ele>84.441</ele>
        <time>2018-11-26T14:58:41.992Z</time>
      </trkpt>
      <trkpt lat="43.79223" lon="7.20755">
        <ele>83.724</ele>
        <time>2018-11-26T14:58:44.895Z</time>
      </trkpt>
      <trkpt lat="43.79179" lon="7.20807">
        <ele>83.283</ele>
        <time>2018-11-26T14:58:47.926Z</time>
      </trkpt>
      <trkpt lat="43.79134" lon="7.2086">
        <ele>83.029</ele>
        <time>2018-11-26T14:58:50.989Z</time>
      </trkpt>
      <trkpt lat="43.7909" lon="7.20911">
        <ele>82.938</ele>
        <time>2018-11-26T14:58:53.998Z</time>
      </trkpt>
      <trkpt lat="43.79049" lon="7.20965">
        <ele>82.983</ele>
        <time>2018-11-26T14:58:56.980Z</time>
      </trkpt>
      <trkpt lat="43.79004" lon="7.21007">
        <ele>83.009</ele>
        <time>2018-11-26T14:58:59.870Z</time>
      </trkpt>
      <trkpt lat="43.78959" lon="7.21057">
        <ele>82.84</ele>
        <time>2018-11-26T14:59:02.947Z</time>
      </trkpt>
      <trkpt lat="43.78913" lon="7.21101">
        <ele>82.486</ele>
        <time>2018-11-26T14:59:05.907Z</time>
      </trkpt>
      <trkpt lat="43.78864" lon="7.21143">
        <ele>81.983</ele>
        <time>2018-11-26T14:59:08.950Z</time>
      </trkpt>
      <trkpt lat="43.78813" lon="7.21182">
        <ele>81.316</ele>
        <time>2018-11-26T14:59:11.960Z</time>
      </trkpt>
      <trkpt lat="43.78765" lon="7.21218">
        <ele>80.64</ele>
        <time>2018-11-26T14:59:14.799Z</time>
      </trkpt>
      <trkpt lat="43.78714" lon="7.21252">
        <ele>80.027</ele>
        <time>2018-11-26T14:59:17.923Z</time>
      </trkpt>
      <trkpt lat="43.78672" lon="7.21275">
        <ele>79.247</ele>
        <time>2018-11-26T14:59:20.696Z</time>
      </trkpt>
      <trkpt lat="43.78634" lon="7.21293">
        <ele>78.276</ele>
        <time>2018-11-26T14:59:23.487Z</time>
      </trkpt>
      <trkpt lat="43.786" lon="7.2131">
        <ele>77.421</ele>
        <time>2018-11-26T14:59:26.409Z</time>
      </trkpt>
      <trkpt lat="43.78572" lon="7.21326">
        <ele>76.916</ele>
        <time>2018-11-26T14:59:29.131Z</time>
      </trkpt>
      <trkpt lat="43.78551" lon="7.21335">
        <ele>76.729</ele>
        <time>2018-11-26T14:59:31.477Z</time>
      </trkpt>
      <trkpt lat="43.78538" lon="7.21326">
        <ele>76.715</ele>
        <time>2018-11-26T14:59:33.512Z</time>
      </trkpt>
      <trkpt lat="43.78531" lon="7.21301">
        <ele>76.751</ele>
        <time>2018-11-26T14:59:36.821Z</time>
      </trkpt>
      <trkpt lat="43.78512" lon="7.21304">
        <ele>76.779</ele>
        <time>2018-11-26T14:59:40.073Z</time>
      </trkpt>
      <trkpt lat="43.78503" lon="7.21338">
        <ele>76.79</ele>
        <time>2018-11-26T14:59:43.875Z</time>
      </trkpt>
      <trkpt lat="43.78488" lon="7.21368">
        <ele>76.789</ele>
        <time>2018-11-26T14:59:47.087Z</time>
      </trkpt>
      <trkpt lat="43.78462" lon="7.21372">
        <ele>76.783</ele>
        <time>2018-11-26T14:59:49.523Z</time>
      </trkpt>
      <trkpt lat="43.78435" lon="7.21378">
        <ele>76.765</ele>
        <time>2018-11-26T14:59:51.652Z</time>
      </trkpt>
      <trkpt lat="43.78407" lon="7.21384">
        <ele>76.738</ele>
        <time>2018-11-26T14:59:53.705Z</time>
      </trkpt>
      <trkpt lat="43.78379" lon="7.21389">
        <ele>76.719</ele>
        <time>2018-11-26T14:59:55.690Z</time>
      </trkpt>
      <trkpt lat="43.78353" lon="7.21395">
        <ele>76.725</ele>
        <time>2018-11-26T14:59:57.597Z</time>
      </trkpt>
      <trkpt lat="43.78326" lon="7.21401">
        <ele>76.746</ele>
        <time>2018-11-26T14:59:59.563Z</time>
      </trkpt>
      <trkpt lat="43.78298" lon="7.21403">
        <ele>76.766</ele>
        <time>2018-11-26T15:00:01.595Z</time>
      </trkpt>
      <trkpt lat="43.78269" lon="7.2141">
        <ele>76.778</ele>
        <time>2018-11-26T15:00:03.626Z</time>
      </trkpt>
      <trkpt lat="43.78237" lon="7.21412">
        <ele>76.782</ele>
        <time>2018-11-26T15:00:05.686Z</time>
      </trkpt>
      <trkpt lat="43.78201" lon="7.21417">
        <ele>76.783</ele>
        <time>2018-11-26T15:00:07.875Z</time>
      </trkpt>
      <trkpt lat="43.78166" lon="7.21422">
        <ele>76.783</ele>
        <time>2018-11-26T15:00:09.913Z</time>
      </trkpt>
      <trkpt lat="43.78127" lon="7.21417">
        <ele>76.716</ele>
        <time>2018-11-26T15:00:12.001Z</time>
      </trkpt>
      <trkpt lat="43.78087" lon="7.21413">
        <ele>76.318</ele>
        <time>2018-11-26T15:00:14.100Z</time>
      </trkpt>
      <trkpt lat="43.78046" lon="7.21411">
        <ele>75.465</ele>
        <time>2018-11-26T15:00:16.138Z</time>
      </trkpt>
      <trkpt lat="43.78005" lon="7.21409">
        <ele>74.536</ele>
        <time>2018-11-26T15:00:18.125Z</time>
      </trkpt>
      <trkpt lat="43.77966" lon="7.21402">
        <ele>73.957</ele>
        <time>2018-11-26T15:00:20.115Z</time>
      </trkpt>
      <trkpt lat="43.77926" lon="7.21395">
        <ele>73.726</ele>
        <time>2018-11-26T15:00:22.134Z</time>
      </trkpt>
      <trkpt lat="43.77888" lon="7.21386">
        <ele>73.564</ele>
        <time>2018-11-26T15:00:24.069Z</time>
      </trkpt>
      <trkpt lat="43.7785" lon="7.21373">
        <ele>73.269</ele>
        <time>2018-11-26T15:00:26.069Z</time>
      </trkpt>
      <trkpt lat="43.77811" lon="7.21363">
        <ele>72.799</ele>
        <time>2018-11-26T15:00:28.118Z</time>
      </trkpt>
      <trkpt lat="43.77774" lon="7.21352">
        <ele>72.178</ele>
        <time>2018-11-26T15:00:30.072Z</time>
      </trkpt>
      <trkpt lat="43.77722" lon="7.21323">
        <ele>71.528</ele>
        <time>2018-11-26T15:00:33.004Z</time>
      </trkpt>
      <trkpt lat="43.77669" lon="7.21297">
        <ele>71.021</ele>
        <time>2018-11-26T15:00:36.013Z</time>
      </trkpt>
      <trkpt lat="43.77619" lon="7.21269">
        <ele>70.725</ele>
        <time>2018-11-26T15:00:38.937Z</time>
      </trkpt>
      <trkpt lat="43.7757" lon="7.21237">
        <ele>70.569</ele>
        <time>2018-11-26T15:00:41.958Z</time>
      </trkpt>
      <trkpt lat="43.77521" lon="7.21205">
        <ele>70.42</ele>
        <time>2018-11-26T15:00:44.884Z</time>
      </trkpt>
      <trkpt lat="43.77469" lon="7.21161">
        <ele>70.217</ele>
        <time>2018-11-26T15:00:48.031Z</time>
      </trkpt>
      <trkpt lat="43.77417" lon="7.21119">
        <ele>70.007</ele>
        <time>2018-11-26T15:00:51.036Z</time>
      </trkpt>
      <trkpt lat="43.77368" lon="7.21073">
        <ele>69.855</ele>
        <time>2018-11-26T15:00:53.998Z</time>
      </trkpt>
      <trkpt lat="43.7732" lon="7.21023">
        <ele>69.711</ele>
        <time>2018-11-26T15:00:57.056Z</time>
      </trkpt>
      <trkpt lat="43.77275" lon="7.20975">
        <ele>69.332</ele>
        <time>2018-11-26T15:00:59.977Z</time>
      </trkpt>
      <trkpt lat="43.77228" lon="7.20928">
        <ele>68.58</ele>
        <time>2018-11-26T15:01:03.003Z</time>
      </trkpt>
      <trkpt lat="43.77182" lon="7.20881">
        <ele>67.684</ele>
        <time>2018-11-26T15:01:06.032Z</time>
      </trkpt>
      <trkpt lat="43.77137" lon="7.20835">
        <ele>67.01</ele>
        <time>2018-11-26T15:01:08.981Z</time>
      </trkpt>
      <trkpt lat="43.7709" lon="7.20788">
        <ele>66.704</ele>
        <time>2018-11-26T15:01:12.000Z</time>
      </trkpt>
      <trkpt lat="43.77038" lon="7.20742">
        <ele>66.666</ele>
        <time>2018-11-26T15:01:14.953Z</time>
      </trkpt>
      <trkpt lat="43.76977" lon="7.20689">
        <ele>66.724</ele>
        <time>2018-11-26T15:01:18.051Z</time>
      </trkpt>
      <trkpt lat="43.76914" lon="7.20624">
        <ele>66.763</ele>
        <time>2018-11-26T15:01:21.187Z</time>
      </trkpt>
      <trkpt lat="43.76853" lon="7.20551">
        <ele>66.747</ele>
        <time>2018-11-26T15:01:24.258Z</time>
      </trkpt>
      <trkpt lat="43.76792" lon="7.20484">
        <ele>66.724</ele>
        <time>2018-11-26T15:01:27.208Z</time>
      </trkpt>
      <trkpt lat="43.76731" lon="7.20415">
        <ele>66.739</ele>
        <time>2018-11-26T15:01:30.184Z</time>
      </trkpt>
      <trkpt lat="43.7667" lon="7.20342">
        <ele>66.677</ele>
        <time>2018-11-26T15:01:33.190Z</time>
      </trkpt>
      <trkpt lat="43.76607" lon="7.20271">
        <ele>66.084</ele>
        <time>2018-11-26T15:01:36.180Z</time>
      </trkpt>
      <trkpt lat="43.76544" lon="7.20201">
        <ele>64.455</ele>
        <time>2018-11-26T15:01:39.196Z</time>
      </trkpt>
      <trkpt lat="43.76479" lon="7.2014">
        <ele>62.234</ele>
        <time>2018-11-26T15:01:42.202Z</time>
      </trkpt>
      <trkpt lat="43.76416" lon="7.20089">
        <ele>60.701</ele>
        <time>2018-11-26T15:01:45.103Z</time>
      </trkpt>
      <trkpt lat="43.76357" lon="7.20029">
        <ele>60.456</ele>
        <time>2018-11-26T15:01:48.078Z</time>
      </trkpt>
      <trkpt lat="43.76299" lon="7.19963">
        <ele>61.141</ele>
        <time>2018-11-26T15:01:51.112Z</time>
      </trkpt>
      <trkpt lat="43.7624" lon="7.19899">
        <ele>62.129</ele>
        <time>2018-11-26T15:01:54.062Z</time>
      </trkpt>
      <trkpt lat="43.76176" lon="7.19831">
        <ele>62.701</ele>
        <time>2018-11-26T15:01:57.122Z</time>
      </trkpt>
      <trkpt lat="43.76112" lon="7.19762">
        <ele>62.48</ele>
        <time>2018-11-26T15:02:00.156Z</time>
      </trkpt>
      <trkpt lat="43.76054" lon="7.19689">
        <ele>61.809</ele>
        <time>2018-11-26T15:02:03.108Z</time>
      </trkpt>
      <trkpt lat="43.76001" lon="7.19609">
        <ele>61.2</ele>
        <time>2018-11-26T15:02:06.101Z</time>
      </trkpt>
      <trkpt lat="43.75951" lon="7.19531">
        <ele>60.809</ele>
        <time>2018-11-26T15:02:09.007Z</time>
      </trkpt>
      <trkpt lat="43.75897" lon="7.19453">
        <ele>60.571</ele>
        <time>2018-11-26T15:02:12.011Z</time>
      </trkpt>
      <trkpt lat="43.7584" lon="7.19371">
        <ele>60.43</ele>
        <time>2018-11-26T15:02:15.086Z</time>
      </trkpt>
      <trkpt lat="43.75774" lon="7.19305">
        <ele>60.346</ele>
        <time>2018-11-26T15:02:18.079Z</time>
      </trkpt>
      <trkpt lat="43.75707" lon="7.19238">
        <ele>60.275</ele>
        <time>2018-11-26T15:02:21.110Z</time>
      </trkpt>
      <trkpt lat="43.75639" lon="7.19177">
        <ele>60.186</ele>
        <time>2018-11-26T15:02:24.044Z</time>
      </trkpt>
      <trkpt lat="43.75569" lon="7.19125">
        <ele>60.043</ele>
        <time>2018-11-26T15:02:27.003Z</time>
      </trkpt>
      <trkpt lat="43.755" lon="7.19071">
        <ele>59.787</ele>
        <time>2018-11-26T15:02:29.976Z</time>
      </trkpt>
      <trkpt lat="43.75429" lon="7.19019">
        <ele>59.45</ele>
        <time>2018-11-26T15:02:33.009Z</time>
      </trkpt>
      <trkpt lat="43.75365" lon="7.18958">
        <ele>59.143</ele>
        <time>2018-11-26T15:02:35.972Z</time>
      </trkpt>
      <trkpt lat="43.75305" lon="7.18893">
        <ele>58.829</ele>
        <time>2018-11-26T15:02:38.937Z</time>
      </trkpt>
      <trkpt lat="43.75243" lon="7.1883">
        <ele>58.366</ele>
        <time>2018-11-26T15:02:41.919Z</time>
      </trkpt>
      <trkpt lat="43.75183" lon="7.18765">
        <ele>57.775</ele>
        <time>2018-11-26T15:02:44.926Z</time>
      </trkpt>
      <trkpt lat="43.7512" lon="7.18702">
        <ele>57.205</ele>
        <time>2018-11-26T15:02:47.993Z</time>
      </trkpt>
      <trkpt lat="43.75063" lon="7.18642">
        <ele>56.759</ele>
        <time>2018-11-26T15:02:50.842Z</time>
      </trkpt>
      <trkpt lat="43.75002" lon="7.1858">
        <ele>56.432</ele>
        <time>2018-11-26T15:02:53.823Z</time>
      </trkpt>
      <trkpt lat="43.7494" lon="7.18516">
        <ele>56.119</ele>
        <time>2018-11-26T15:02:56.825Z</time>
      </trkpt>
      <trkpt lat="43.74872" lon="7.18457">
        <ele>55.682</ele>
        <time>2018-11-26T15:02:59.874Z</time>
      </trkpt>
      <trkpt lat="43.74802" lon="7.18398">
        <ele>55.048</ele>
        <time>2018-11-26T15:03:02.896Z</time>
      </trkpt>
      <trkpt lat="43.74733" lon="7.18338">
        <ele>54.274</ele>
        <time>2018-11-26T15:03:05.914Z</time>
      </trkpt>
      <trkpt lat="43.74662" lon="7.18283">
        <ele>53.52</ele>
        <time>2018-11-26T15:03:08.922Z</time>
      </trkpt>
      <trkpt lat="43.74591" lon="7.1824">
        <ele>52.912</ele>
        <time>2018-11-26T15:03:11.891Z</time>
      </trkpt>
      <trkpt lat="43.7452" lon="7.18196">
        <ele>52.47</ele>
        <time>2018-11-26T15:03:14.875Z</time>
      </trkpt>
      <trkpt lat="43.74447" lon="7.18159">
        <ele>52.11</ele>
        <time>2018-11-26T15:03:17.861Z</time>
      </trkpt>
      <trkpt lat="43.74371" lon="7.18121">
        <ele>51.633</ele>
        <time>2018-11-26T15:03:20.889Z</time>
      </trkpt>
      <trkpt lat="43.74293" lon="7.18092">
        <ele>50.897</ele>
        <time>2018-11-26T15:03:23.923Z</time>
      </trkpt>
      <trkpt lat="43.74215" lon="7.18068">
        <ele>50.04</ele>
        <time>2018-11-26T15:03:26.909Z</time>
      </trkpt>
      <trkpt lat="43.74138" lon="7.18047">
        <ele>49.309</ele>
        <time>2018-11-26T15:03:29.887Z</time>
      </trkpt>
      <trkpt lat="43.7406" lon="7.18027">
        <ele>48.784</ele>
        <time>2018-11-26T15:03:32.891Z</time>
      </trkpt>
      <trkpt lat="43.73986" lon="7.18007">
        <ele>48.414</ele>
        <time>2018-11-26T15:03:35.805Z</time>
      </trkpt>
      <trkpt lat="43.73911" lon="7.17992">
        <ele>48.143</ele>
        <time>2018-11-26T15:03:38.769Z</time>
      </trkpt>
      <trkpt lat="43.73832" lon="7.17983">
        <ele>47.936</ele>
        <time>2018-11-26T15:03:41.843Z</time>
      </trkpt>
      <trkpt lat="43.73758" lon="7.17982">
        <ele>47.771</ele>
        <time>2018-11-26T15:03:44.768Z</time>
      </trkpt>
      <trkpt lat="43.73679" lon="7.17983">
        <ele>47.588</ele>
        <time>2018-11-26T15:03:47.795Z</time>
      </trkpt>
      <trkpt lat="43.73601" lon="7.17993">
        <ele>47.222</ele>
        <time>2018-11-26T15:03:50.812Z</time>
      </trkpt>
      <trkpt lat="43.73523" lon="7.18005">
        <ele>46.565</ele>
        <time>2018-11-26T15:03:53.770Z</time>
      </trkpt>
      <trkpt lat="43.73445" lon="7.18016">
        <ele>45.748</ele>
        <time>2018-11-26T15:03:56.772Z</time>
      </trkpt>
      <trkpt lat="43.73367" lon="7.1803">
        <ele>45.003</ele>
        <time>2018-11-26T15:03:59.791Z</time>
      </trkpt>
      <trkpt lat="43.73289" lon="7.1804">
        <ele>44.444</ele>
        <time>2018-11-26T15:04:02.804Z</time>
      </trkpt>
      <trkpt lat="43.73209" lon="7.18049">
        <ele>44.047</ele>
        <time>2018-11-26T15:04:05.809Z</time>
      </trkpt>
      <trkpt lat="43.73129" lon="7.18059">
        <ele>43.749</ele>
        <time>2018-11-26T15:04:08.849Z</time>
      </trkpt>
      <trkpt lat="43.73052" lon="7.18071">
        <ele>43.542</ele>
        <time>2018-11-26T15:04:11.836Z</time>
      </trkpt>
      <trkpt lat="43.7298" lon="7.18079">
        <ele>43.339</ele>
        <time>2018-11-26T15:04:14.728Z</time>
      </trkpt>
      <trkpt lat="43.72905" lon="7.18092">
        <ele>42.916</ele>
        <time>2018-11-26T15:04:17.730Z</time>
      </trkpt>
      <trkpt lat="43.72823" lon="7.18101">
        <ele>42.194</ele>
        <time>2018-11-26T15:04:20.844Z</time>
      </trkpt>
      <trkpt lat="43.7274" lon="7.18112">
        <ele>41.363</ele>
        <time>2018-11-26T15:04:23.871Z</time>
      </trkpt>
      <trkpt lat="43.72657" lon="7.18127">
        <ele>40.65</ele>
        <time>2018-11-26T15:04:26.872Z</time>
      </trkpt>
      <trkpt lat="43.72577" lon="7.18138">
        <ele>40.117</ele>
        <time>2018-11-26T15:04:29.818Z</time>
      </trkpt>
      <trkpt lat="43.725" lon="7.18152">
        <ele>39.728</ele>
        <time>2018-11-26T15:04:32.769Z</time>
      </trkpt>
      <trkpt lat="43.72425" lon="7.18154">
        <ele>39.398</ele>
        <time>2018-11-26T15:04:35.692Z</time>
      </trkpt>
      <trkpt lat="43.7235" lon="7.18165">
        <ele>39.038</ele>
        <time>2018-11-26T15:04:38.677Z</time>
      </trkpt>
      <trkpt lat="43.72279" lon="7.18174">
        <ele>38.566</ele>
        <time>2018-11-26T15:04:41.636Z</time>
      </trkpt>
      <trkpt lat="43.72212" lon="7.18188">
        <ele>37.927</ele>
        <time>2018-11-26T15:04:44.497Z</time>
      </trkpt>
      <trkpt lat="43.72137" lon="7.18196">
        <ele>37.183</ele>
        <time>2018-11-26T15:04:47.590Z</time>
      </trkpt>
      <trkpt lat="43.7206" lon="7.18209">
        <ele>36.502</ele>
        <time>2018-11-26T15:04:50.638Z</time>
      </trkpt>
      <trkpt lat="43.71983" lon="7.18224">
        <ele>35.918</ele>
        <time>2018-11-26T15:04:53.611Z</time>
      </trkpt>
      <trkpt lat="43.71904" lon="7.18233">
        <ele>35.274</ele>
        <time>2018-11-26T15:04:56.638Z</time>
      </trkpt>
      <trkpt lat="43.71824" lon="7.18241">
        <ele>34.507</ele>
        <time>2018-11-26T15:04:59.670Z</time>
      </trkpt>
      <trkpt lat="43.71746" lon="7.18252">
        <ele>33.818</ele>
        <time>2018-11-26T15:05:02.684Z</time>
      </trkpt>
      <trkpt lat="43.7167" lon="7.18263">
        <ele>33.408</ele>
        <time>2018-11-26T15:05:05.648Z</time>
      </trkpt>
      <trkpt lat="43.71594" lon="7.18268">
        <ele>33.284</ele>
        <time>2018-11-26T15:05:08.665Z</time>
      </trkpt>
      <trkpt lat="43.71518" lon="7.18273">
        <ele>33.384</ele>
        <time>2018-11-26T15:05:11.677Z</time>
      </trkpt>
      <trkpt lat="43.71442" lon="7.18287">
        <ele>33.641</ele>
        <time>2018-11-26T15:05:14.717Z</time>
      </trkpt>
      <trkpt lat="43.71367" lon="7.18298">
        <ele>33.96</ele>
        <time>2018-11-26T15:05:17.701Z</time>
      </trkpt>
      <trkpt lat="43.7129" lon="7.1831">
        <ele>34.242</ele>
        <time>2018-11-26T15:05:20.701Z</time>
      </trkpt>
      <trkpt lat="43.71213" lon="7.18325">
        <ele>34.431</ele>
        <time>2018-11-26T15:05:23.750Z</time>
      </trkpt>
      <trkpt lat="43.71138" lon="7.18342">
        <ele>34.512</ele>
        <time>2018-11-26T15:05:26.745Z</time>
      </trkpt>
      <trkpt lat="43.71061" lon="7.18358">
        <ele>34.443</ele>
        <time>2018-11-26T15:05:29.687Z</time>
      </trkpt>
      <trkpt lat="43.70975" lon="7.18378">
        <ele>34.105</ele>
        <time>2018-11-26T15:05:32.841Z</time>
      </trkpt>
      <trkpt lat="43.70893" lon="7.18396">
        <ele>33.453</ele>
        <time>2018-11-26T15:05:35.819Z</time>
      </trkpt>
      <trkpt lat="43.70815" lon="7.18407">
        <ele>32.536</ele>
        <time>2018-11-26T15:05:38.768Z</time>
      </trkpt>
      <trkpt lat="43.70735" lon="7.18418">
        <ele>31.422</ele>
        <time>2018-11-26T15:05:41.830Z</time>
      </trkpt>
      <trkpt lat="43.70663" lon="7.18433">
        <ele>30.283</ele>
        <time>2018-11-26T15:05:44.716Z</time>
      </trkpt>
      <trkpt lat="43.706" lon="7.18446">
        <ele>29.34</ele>
        <time>2018-11-26T15:05:47.464Z</time>
      </trkpt>
      <trkpt lat="43.70536" lon="7.18457">
        <ele>28.663</ele>
        <time>2018-11-26T15:05:50.450Z</time>
      </trkpt>
      <trkpt lat="43.70475" lon="7.18461">
        <ele>28.135</ele>
        <time>2018-11-26T15:05:53.420Z</time>
      </trkpt>
      <trkpt lat="43.70422" lon="7.18472">
        <ele>27.56</ele>
        <time>2018-11-26T15:05:56.213Z</time>
      </trkpt>
      <trkpt lat="43.70372" lon="7.1848">
        <ele>26.948</ele>
        <time>2018-11-26T15:05:59.069Z</time>
      </trkpt>
      <trkpt lat="43.70328" lon="7.18489">
        <ele>26.434</ele>
        <time>2018-11-26T15:06:01.812Z</time>
      </trkpt>
      <trkpt lat="43.70293" lon="7.18492">
        <ele>25.954</ele>
        <time>2018-11-26T15:06:04.328Z</time>
      </trkpt>
      <trkpt lat="43.70265" lon="7.18496">
        <ele>25.369</ele>
        <time>2018-11-26T15:06:06.663Z</time>
      </trkpt>
      <trkpt lat="43.70235" lon="7.185">
        <ele>24.781</ele>
        <time>2018-11-26T15:06:09.434Z</time>
      </trkpt>
      <trkpt lat="43.70201" lon="7.18506">
        <ele>24.474</ele>
        <time>2018-11-26T15:06:12.691Z</time>
      </trkpt>
      <trkpt lat="43.70163" lon="7.18509">
        <ele>24.539</ele>
        <time>2018-11-26T15:06:16.071Z</time>
      </trkpt>
      <trkpt lat="43.70128" lon="7.18511">
        <ele>24.736</ele>
        <time>2018-11-26T15:06:19.033Z</time>
      </trkpt>
      <trkpt lat="43.70092" lon="7.18515">
        <ele>24.841</ele>
        <time>2018-11-26T15:06:22.104Z</time>
      </trkpt>
      <trkpt lat="43.70055" lon="7.18521">
        <ele>24.841</ele>
        <time>2018-11-26T15:06:25.074Z</time>
      </trkpt>
      <trkpt lat="43.70016" lon="7.18525">
        <ele>24.783</ele>
        <time>2018-11-26T15:06:28.273Z</time>
      </trkpt>
      <trkpt lat="43.6998" lon="7.18534">
        <ele>24.703</ele>
        <time>2018-11-26T15:06:31.122Z</time>
      </trkpt>
      <trkpt lat="43.69943" lon="7.18538">
        <ele>24.754</ele>
        <time>2018-11-26T15:06:34.058Z</time>
      </trkpt>
      <trkpt lat="43.69904" lon="7.18551">
        <ele>25.036</ele>
        <time>2018-11-26T15:06:37.276Z</time>
      </trkpt>
      <trkpt lat="43.69873" lon="7.18564">
        <ele>25.75</ele>
        <time>2018-11-26T15:06:39.879Z</time>
      </trkpt>
      <trkpt lat="43.69852" lon="7.18578">
        <ele>27.225</ele>
        <time>2018-11-26T15:06:41.971Z</time>
      </trkpt>
      <trkpt lat="43.69839" lon="7.18595">
        <ele>29.226</ele>
        <time>2018-11-26T15:06:43.807Z</time>
      </trkpt>
      <trkpt lat="43.69822" lon="7.18604">
        <ele>30.911</ele>
        <time>2018-11-26T15:06:46.233Z</time>
      </trkpt>
      <trkpt lat="43.69809" lon="7.18613">
        <ele>31.787</ele>
        <time>2018-11-26T15:06:48.613Z</time>
      </trkpt>
      <trkpt lat="43.698" lon="7.1862">
        <ele>31.929</ele>
        <time>2018-11-26T15:06:50.395Z</time>
      </trkpt>
      <trkpt lat="43.69789" lon="7.18632">
        <ele>31.651</ele>
        <time>2018-11-26T15:06:53.091Z</time>
      </trkpt>
      <trkpt lat="43.69776" lon="7.18643">
        <ele>31.237</ele>
        <time>2018-11-26T15:06:56.137Z</time>
      </trkpt>
      <trkpt lat="43.69769" lon="7.18652">
        <ele>30.685</ele>
        <time>2018-11-26T15:06:57.787Z</time>
      </trkpt>
      <trkpt lat="43.69759" lon="7.18667">
        <ele>29.962</ele>
        <time>2018-11-26T15:07:00.370Z</time>
      </trkpt>
      <trkpt lat="43.69749" lon="7.18675">
        <ele>29.408</ele>
        <time>2018-11-26T15:07:02.559Z</time>
      </trkpt>
      <trkpt lat="43.69743" lon="7.1869">
        <ele>29.301</ele>
        <time>2018-11-26T15:07:04.998Z</time>
      </trkpt>
      <trkpt lat="43.69732" lon="7.18702">
        <ele>29.718</ele>
        <time>2018-11-26T15:07:07.603Z</time>
      </trkpt>
      <trkpt lat="43.69723" lon="7.18714">
        <ele>30.708</ele>
        <time>2018-11-26T15:07:09.563Z</time>
      </trkpt>
      <trkpt lat="43.69716" lon="7.18724">
        <ele>32.098</ele>
        <time>2018-11-26T15:07:11.222Z</time>
      </trkpt>
      <trkpt lat="43.69707" lon="7.18738">
        <ele>33.646</ele>
        <time>2018-11-26T15:07:13.453Z</time>
      </trkpt>
      <trkpt lat="43.69701" lon="7.18752">
        <ele>35.223</ele>
        <time>2018-11-26T15:07:15.605Z</time>
      </trkpt>
      <trkpt lat="43.69693" lon="7.18766">
        <ele>36.633</ele>
        <time>2018-11-26T15:07:18.009Z</time>
      </trkpt>
      <trkpt lat="43.69684" lon="7.1878">
        <ele>37.75</ele>
        <time>2018-11-26T15:07:20.816Z</time>
      </trkpt>
      <trkpt lat="43.69681" lon="7.18795">
        <ele>38.569</ele>
        <time>2018-11-26T15:07:22.797Z</time>
      </trkpt>
      <trkpt lat="43.69675" lon="7.18812">
        <ele>39.065</ele>
        <time>2018-11-26T15:07:25.011Z</time>
      </trkpt>
      <trkpt lat="43.69666" lon="7.18831">
        <ele>39.162</ele>
        <time>2018-11-26T15:07:27.592Z</time>
      </trkpt>
      <trkpt lat="43.69655" lon="7.1885">
        <ele>38.836</ele>
        <time>2018-11-26T15:07:30.081Z</time>
      </trkpt>
      <trkpt lat="43.69646" lon="7.18872">
        <ele>38.228</ele>
        <time>2018-11-26T15:07:32.214Z</time>
      </trkpt>
      <trkpt lat="43.69635" lon="7.18896">
        <ele>37.578</ele>
        <time>2018-11-26T15:07:34.436Z</time>
      </trkpt>
      <trkpt lat="43.69625" lon="7.1892">
        <ele>37.001</ele>
        <time>2018-11-26T15:07:36.541Z</time>
      </trkpt>
      <trkpt lat="43.69604" lon="7.18943">
        <ele>36.502</ele>
        <time>2018-11-26T15:07:39.331Z</time>
      </trkpt>
      <trkpt lat="43.69572" lon="7.18953">
        <ele>35.868</ele>
        <time>2018-11-26T15:07:42.598Z</time>
      </trkpt>
      <trkpt lat="43.6954" lon="7.18965">
        <ele>34.878</ele>
        <time>2018-11-26T15:07:45.758Z</time>
      </trkpt>
      <trkpt lat="43.69521" lon="7.18994">
        <ele>32.586</ele>
        <time>2018-11-26T15:07:48.575Z</time>
      </trkpt>
      <trkpt lat="43.6952" lon="7.19043">
        <ele>28.52</ele>
        <time>2018-11-26T15:07:52.140Z</time>
      </trkpt>
      <trkpt lat="43.69537" lon="7.19082">
        <ele>24.524</ele>
        <time>2018-11-26T15:07:55.319Z</time>
      </trkpt>
      <trkpt lat="43.69558" lon="7.19113">
        <ele>22.578</ele>
        <time>2018-11-26T15:07:58.233Z</time>
      </trkpt>
      <trkpt lat="43.6957" lon="7.19151">
        <ele>22.78</ele>
        <time>2018-11-26T15:08:01.342Z</time>
      </trkpt>
      <trkpt lat="43.69556" lon="7.19185">
        <ele>24.261</ele>
        <time>2018-11-26T15:08:04.507Z</time>
      </trkpt>
      <trkpt lat="43.69533" lon="7.19218">
        <ele>25.227</ele>
        <time>2018-11-26T15:08:07.736Z</time>
      </trkpt>
      <trkpt lat="43.6951" lon="7.19248">
        <ele>24.52</ele>
        <time>2018-11-26T15:08:10.691Z</time>
      </trkpt>
      <trkpt lat="43.69482" lon="7.19275">
        <ele>22.844</ele>
        <time>2018-11-26T15:08:13.712Z</time>
      </trkpt>
      <trkpt lat="43.69454" lon="7.19299">
        <ele>21.363</ele>
        <time>2018-11-26T15:08:16.574Z</time>
      </trkpt>
      <trkpt lat="43.69426" lon="7.19322">
        <ele>20.511</ele>
        <time>2018-11-26T15:08:19.530Z</time>
      </trkpt>
      <trkpt lat="43.69399" lon="7.19346">
        <ele>20.164</ele>
        <time>2018-11-26T15:08:22.485Z</time>
      </trkpt>
      <trkpt lat="43.69369" lon="7.19372">
        <ele>19.994</ele>
        <time>2018-11-26T15:08:25.597Z</time>
      </trkpt>
      <trkpt lat="43.69339" lon="7.19397">
        <ele>19.86</ele>
        <time>2018-11-26T15:08:28.624Z</time>
      </trkpt>
      <trkpt lat="43.69311" lon="7.19418">
        <ele>19.802</ele>
        <time>2018-11-26T15:08:31.428Z</time>
      </trkpt>
      <trkpt lat="43.69285" lon="7.19439">
        <ele>19.876</ele>
        <time>2018-11-26T15:08:34.332Z</time>
      </trkpt>
      <trkpt lat="43.6926" lon="7.1946">
        <ele>20.058</ele>
        <time>2018-11-26T15:08:37.253Z</time>
      </trkpt>
      <trkpt lat="43.69236" lon="7.1948">
        <ele>20.231</ele>
        <time>2018-11-26T15:08:40.207Z</time>
      </trkpt>
      <trkpt lat="43.69213" lon="7.195">
        <ele>20.288</ele>
        <time>2018-11-26T15:08:43.136Z</time>
      </trkpt>
      <trkpt lat="43.69188" lon="7.19519">
        <ele>20.229</ele>
        <time>2018-11-26T15:08:46.246Z</time>
      </trkpt>
      <trkpt lat="43.69163" lon="7.19538">
        <ele>20.156</ele>
        <time>2018-11-26T15:08:49.257Z</time>
      </trkpt>
      <trkpt lat="43.69136" lon="7.19554">
        <ele>20.149</ele>
        <time>2018-11-26T15:08:52.377Z</time>
      </trkpt>
      <trkpt lat="43.69106" lon="7.19567">
        <ele>20.167</ele>
        <time>2018-11-26T15:08:55.491Z</time>
      </trkpt>
      <trkpt lat="43.6908" lon="7.1957">
        <ele>20.106</ele>
        <time>2018-11-26T15:08:58.349Z</time>
      </trkpt>
      <trkpt lat="43.69062" lon="7.19547">
        <ele>19.865</ele>
        <time>2018-11-26T15:09:01.325Z</time>
      </trkpt>
      <trkpt lat="43.69047" lon="7.19522">
        <ele>19.415</ele>
        <time>2018-11-26T15:09:04.234Z</time>
      </trkpt>
      <trkpt lat="43.69037" lon="7.19505">
        <ele>18.825</ele>
        <time>2018-11-26T15:09:06.573Z</time>
      </trkpt>
      <trkpt lat="43.69025" lon="7.19486">
        <ele>18.271</ele>
        <time>2018-11-26T15:09:09.633Z</time>
      </trkpt>
      <trkpt lat="43.69011" lon="7.19463">
        <ele>17.94</ele>
        <time>2018-11-26T15:09:13.145Z</time>
      </trkpt>
      <trkpt lat="43.69003" lon="7.19428">
        <ele>17.858</ele>
        <time>2018-11-26T15:09:16.624Z</time>
      </trkpt>
      <trkpt lat="43.68997" lon="7.1939">
        <ele>17.902</ele>
        <time>2018-11-26T15:09:19.844Z</time>
      </trkpt>
      <trkpt lat="43.68992" lon="7.19356">
        <ele>17.934</ele>
        <time>2018-11-26T15:09:22.801Z</time>
      </trkpt>
      <trkpt lat="43.68979" lon="7.19333">
        <ele>17.874</ele>
        <time>2018-11-26T15:09:25.805Z</time>
      </trkpt>
      <trkpt lat="43.68955" lon="7.19329">
        <ele>17.759</ele>
        <time>2018-11-26T15:09:29.257Z</time>
      </trkpt>
      <trkpt lat="43.68931" lon="7.19332">
        <ele>17.656</ele>
        <time>2018-11-26T15:09:32.383Z</time>
      </trkpt>
      <trkpt lat="43.68907" lon="7.19339">
        <ele>17.502</ele>
        <time>2018-11-26T15:09:35.434Z</time>
      </trkpt>
      <trkpt lat="43.68883" lon="7.19347">
        <ele>17.211</ele>
        <time>2018-11-26T15:09:38.462Z</time>
      </trkpt>
      <trkpt lat="43.68858" lon="7.19357">
        <ele>16.809</ele>
        <time>2018-11-26T15:09:41.550Z</time>
      </trkpt>
      <trkpt lat="43.68835" lon="7.19367">
        <ele>16.417</ele>
        <time>2018-11-26T15:09:44.561Z</time>
      </trkpt>
      <trkpt lat="43.68813" lon="7.19375">
        <ele>16.258</ele>
        <time>2018-11-26T15:09:47.502Z</time>
      </trkpt>
      <trkpt lat="43.68791" lon="7.19383">
        <ele>16.454</ele>
        <time>2018-11-26T15:09:50.500Z</time>
      </trkpt>
      <trkpt lat="43.6877" lon="7.19393">
        <ele>16.791</ele>
        <time>2018-11-26T15:09:53.560Z</time>
      </trkpt>
      <trkpt lat="43.6875" lon="7.194">
        <ele>16.975</ele>
        <time>2018-11-26T15:09:56.469Z</time>
      </trkpt>
      <trkpt lat="43.68727" lon="7.19409">
        <ele>16.885</ele>
        <time>2018-11-26T15:09:59.633Z</time>
      </trkpt>
      <trkpt lat="43.68704" lon="7.1942">
        <ele>16.576</ele>
        <time>2018-11-26T15:10:02.718Z</time>
      </trkpt>
      <trkpt lat="43.68689" lon="7.19426">
        <ele>16.191</ele>
        <time>2018-11-26T15:10:04.794Z</time>
      </trkpt>
      <trkpt lat="43.68666" lon="7.19435">
        <ele>15.857</ele>
        <time>2018-11-26T15:10:07.924Z</time>
      </trkpt>
      <trkpt lat="43.68643" lon="7.19443">
        <ele>15.646</ele>
        <time>2018-11-26T15:10:11.023Z</time>
      </trkpt>
      <trkpt lat="43.68626" lon="7.19452">
        <ele>15.558</ele>
        <time>2018-11-26T15:10:13.878Z</time>
      </trkpt>
      <trkpt lat="43.6861" lon="7.19458">
        <ele>15.541</ele>
        <time>2018-11-26T15:10:16.855Z</time>
      </trkpt>
      <trkpt lat="43.68597" lon="7.19463">
        <ele>15.55</ele>
        <time>2018-11-26T15:10:19.904Z</time>
      </trkpt>
      <trkpt lat="43.68587" lon="7.19467">
        <ele>15.551</ele>
        <time>2018-11-26T15:10:22.997Z</time>
      </trkpt>
      <trkpt lat="43.68587" lon="7.19467">
        <ele>15.531</ele>
        <time>2018-11-26T15:10:27.997Z</time>
      </trkpt>
      <trkpt lat="43.68587" lon="7.19467">
        <ele>15.508</ele>
        <time>2018-11-26T15:10:35.000Z</time>
      </trkpt>
      <trkpt lat="43.68566" lon="7.19472">
        <ele>15.501</ele>
        <time>2018-11-26T15:10:40.591Z</time>
      </trkpt>
      <trkpt lat="43.68543" lon="7.19478">
        <ele>15.502</ele>
        <time>2018-11-26T15:10:43.699Z</time>
      </trkpt>
      <trkpt lat="43.68517" lon="7.19491">
        <ele>15.496</ele>
        <time>2018-11-26T15:10:46.857Z</time>
      </trkpt>
      <trkpt lat="43.68494" lon="7.19501">
        <ele>15.437</ele>
        <time>2018-11-26T15:10:49.771Z</time>
      </trkpt>
      <trkpt lat="43.68471" lon="7.19509">
        <ele>15.263</ele>
        <time>2018-11-26T15:10:52.745Z</time>
      </trkpt>
      <trkpt lat="43.68449" lon="7.19516">
        <ele>14.993</ele>
        <time>2018-11-26T15:10:55.742Z</time>
      </trkpt>
      <trkpt lat="43.68429" lon="7.19523">
        <ele>14.727</ele>
        <time>2018-11-26T15:10:58.804Z</time>
      </trkpt>
      <trkpt lat="43.68414" lon="7.19532">
        <ele>14.553</ele>
        <time>2018-11-26T15:11:01.704Z</time>
      </trkpt>
      <trkpt lat="43.684" lon="7.19537">
        <ele>14.485</ele>
        <time>2018-11-26T15:11:04.470Z</time>
      </trkpt>
      <trkpt lat="43.68384" lon="7.19542">
        <ele>14.48</ele>
        <time>2018-11-26T15:11:07.459Z</time>
      </trkpt>
      <trkpt lat="43.68366" lon="7.19548">
        <ele>14.495</ele>
        <time>2018-11-26T15:11:10.644Z</time>
      </trkpt>
      <trkpt lat="43.68349" lon="7.19555">
        <ele>14.508</ele>
        <time>2018-11-26T15:11:13.517Z</time>
      </trkpt>
      <trkpt lat="43.68331" lon="7.19562">
        <ele>14.513</ele>
        <time>2018-11-26T15:11:16.404Z</time>
      </trkpt>
      <trkpt lat="43.68311" lon="7.19569">
        <ele>14.513</ele>
        <time>2018-11-26T15:11:19.462Z</time>
      </trkpt>
      <trkpt lat="43.6829" lon="7.19575">
        <ele>14.512</ele>
        <time>2018-11-26T15:11:22.584Z</time>
      </trkpt>
      <trkpt lat="43.68271" lon="7.19584">
        <ele>14.511</ele>
        <time>2018-11-26T15:11:25.623Z</time>
      </trkpt>
      <trkpt lat="43.68255" lon="7.19591">
        <ele>14.51</ele>
        <time>2018-11-26T15:11:28.489Z</time>
      </trkpt>
      <trkpt lat="43.68236" lon="7.19598">
        <ele>14.503</ele>
        <time>2018-11-26T15:11:31.503Z</time>
      </trkpt>
      <trkpt lat="43.68216" lon="7.19606">
        <ele>14.443</ele>
        <time>2018-11-26T15:11:34.551Z</time>
      </trkpt>
      <trkpt lat="43.68194" lon="7.19614">
        <ele>14.253</ele>
        <time>2018-11-26T15:11:37.494Z</time>
      </trkpt>
      <trkpt lat="43.68168" lon="7.19624">
        <ele>13.943</ele>
        <time>2018-11-26T15:11:40.518Z</time>
      </trkpt>
      <trkpt lat="43.68141" lon="7.19634">
        <ele>13.647</ele>
        <time>2018-11-26T15:11:43.607Z</time>
      </trkpt>
      <trkpt lat="43.68116" lon="7.19643">
        <ele>13.473</ele>
        <time>2018-11-26T15:11:46.565Z</time>
      </trkpt>
      <trkpt lat="43.68091" lon="7.19653">
        <ele>13.417</ele>
        <time>2018-11-26T15:11:49.737Z</time>
      </trkpt>
      <trkpt lat="43.68072" lon="7.1966">
        <ele>13.422</ele>
        <time>2018-11-26T15:11:52.723Z</time>
      </trkpt>
      <trkpt lat="43.68058" lon="7.19671">
        <ele>13.441</ele>
        <time>2018-11-26T15:11:55.311Z</time>
      </trkpt>
      <trkpt lat="43.68059" lon="7.197">
        <ele>13.454</ele>
        <time>2018-11-26T15:11:58.217Z</time>
      </trkpt>
      <trkpt lat="43.68061" lon="7.1974">
        <ele>13.458</ele>
        <time>2018-11-26T15:12:01.561Z</time>
      </trkpt>
      <trkpt lat="43.6807" lon="7.19774">
        <ele>13.458</ele>
        <time>2018-11-26T15:12:04.674Z</time>
      </trkpt>
      <trkpt lat="43.68075" lon="7.198">
        <ele>13.474</ele>
        <time>2018-11-26T15:12:07.459Z</time>
      </trkpt>
      <trkpt lat="43.6808" lon="7.19823">
        <ele>13.531</ele>
        <time>2018-11-26T15:12:10.301Z</time>
      </trkpt>
      <trkpt lat="43.68085" lon="7.19845">
        <ele>13.612</ele>
        <time>2018-11-26T15:12:13.353Z</time>
      </trkpt>
      <trkpt lat="43.68088" lon="7.19859">
        <ele>13.648</ele>
        <time>2018-11-26T15:12:16.204Z</time>
      </trkpt>
      <trkpt lat="43.68091" lon="7.19872">
        <ele>13.605</ele>
        <time>2018-11-26T15:12:19.996Z</time>
      </trkpt>
      <trkpt lat="43.68091" lon="7.19872">
        <ele>13.528</ele>
        <time>2018-11-26T15:12:21.995Z</time>
      </trkpt>
      <trkpt lat="43.68091" lon="7.19872">
        <ele>13.481</ele>
        <time>2018-11-26T15:13:42.605Z</time>
      </trkpt>
      <trkpt lat="43.68097" lon="7.19897">
        <ele>13.479</ele>
        <time>2018-11-26T15:13:55.059Z</time>
      </trkpt>
      <trkpt lat="43.68089" lon="7.19909">
        <ele>13.488</ele>
        <time>2018-11-26T15:13:57.159Z</time>
      </trkpt>
      <trkpt lat="43.68069" lon="7.19922">
        <ele>13.481</ele>
        <time>2018-11-26T15:14:00.039Z</time>
      </trkpt>
      <trkpt lat="43.68051" lon="7.19932">
        <ele>13.465</ele>
        <time>2018-11-26T15:14:01.981Z</time>
      </trkpt>
      <trkpt lat="43.6803" lon="7.19944">
        <ele>13.455</ele>
        <time>2018-11-26T15:14:04.041Z</time>
      </trkpt>
      <trkpt lat="43.6801" lon="7.19955">
        <ele>13.453</ele>
        <time>2018-11-26T15:14:06.077Z</time>
      </trkpt>
      <trkpt lat="43.67992" lon="7.19966">
        <ele>13.447</ele>
        <time>2018-11-26T15:14:08.066Z</time>
      </trkpt>
      <trkpt lat="43.67975" lon="7.19976">
        <ele>13.432</ele>
        <time>2018-11-26T15:14:09.997Z</time>
      </trkpt>
      <trkpt lat="43.67956" lon="7.19987">
        <ele>13.414</ele>
        <time>2018-11-26T15:14:11.938Z</time>
      </trkpt>
      <trkpt lat="43.67935" lon="7.19998">
        <ele>13.384</ele>
        <time>2018-11-26T15:14:13.943Z</time>
      </trkpt>
      <trkpt lat="43.67913" lon="7.2001">
        <ele>13.294</ele>
        <time>2018-11-26T15:14:16.011Z</time>
      </trkpt>
      <trkpt lat="43.67893" lon="7.20023">
        <ele>13.138</ele>
        <time>2018-11-26T15:14:17.986Z</time>
      </trkpt>
      <trkpt lat="43.67872" lon="7.20034">
        <ele>12.984</ele>
        <time>2018-11-26T15:14:19.939Z</time>
      </trkpt>
      <trkpt lat="43.67849" lon="7.20047">
        <ele>12.847</ele>
        <time>2018-11-26T15:14:21.970Z</time>
      </trkpt>
      <trkpt lat="43.67826" lon="7.2006">
        <ele>12.707</ele>
        <time>2018-11-26T15:14:24.018Z</time>
      </trkpt>
      <trkpt lat="43.67804" lon="7.20073">
        <ele>12.632</ele>
        <time>2018-11-26T15:14:26.027Z</time>
      </trkpt>
      <trkpt lat="43.6778" lon="7.20086">
        <ele>13.04</ele>
        <time>2018-11-26T15:14:28.041Z</time>
      </trkpt>
      <trkpt lat="43.67757" lon="7.20097">
        <ele>14.306</ele>
        <time>2018-11-26T15:14:30.055Z</time>
      </trkpt>
      <trkpt lat="43.67734" lon="7.20108">
        <ele>16.034</ele>
        <time>2018-11-26T15:14:32.064Z</time>
      </trkpt>
      <trkpt lat="43.67711" lon="7.20116">
        <ele>17.468</ele>
        <time>2018-11-26T15:14:34.049Z</time>
      </trkpt>
      <trkpt lat="43.67687" lon="7.20122">
        <ele>18.287</ele>
        <time>2018-11-26T15:14:36.002Z</time>
      </trkpt>
      <trkpt lat="43.67662" lon="7.20127">
        <ele>18.559</ele>
        <time>2018-11-26T15:14:37.988Z</time>
      </trkpt>
      <trkpt lat="43.67637" lon="7.20132">
        <ele>18.491</ele>
        <time>2018-11-26T15:14:39.945Z</time>
      </trkpt>
      <trkpt lat="43.67599" lon="7.20139">
        <ele>18.255</ele>
        <time>2018-11-26T15:14:42.912Z</time>
      </trkpt>
      <trkpt lat="43.6756" lon="7.20146">
        <ele>17.96</ele>
        <time>2018-11-26T15:14:45.945Z</time>
      </trkpt>
      <trkpt lat="43.67523" lon="7.20153">
        <ele>17.679</ele>
        <time>2018-11-26T15:14:48.939Z</time>
      </trkpt>
      <trkpt lat="43.67488" lon="7.2016">
        <ele>17.448</ele>
        <time>2018-11-26T15:14:51.880Z</time>
      </trkpt>
      <trkpt lat="43.67452" lon="7.20166">
        <ele>17.269</ele>
        <time>2018-11-26T15:14:54.895Z</time>
      </trkpt>
      <trkpt lat="43.67417" lon="7.2017">
        <ele>17.132</ele>
        <time>2018-11-26T15:14:57.810Z</time>
      </trkpt>
      <trkpt lat="43.6738" lon="7.20176">
        <ele>17.011</ele>
        <time>2018-11-26T15:15:00.831Z</time>
      </trkpt>
      <trkpt lat="43.67342" lon="7.20181">
        <ele>16.476</ele>
        <time>2018-11-26T15:15:03.819Z</time>
      </trkpt>
      <trkpt lat="43.67304" lon="7.20184">
        <ele>15.283</ele>
        <time>2018-11-26T15:15:06.797Z</time>
      </trkpt>
      <trkpt lat="43.67266" lon="7.20191">
        <ele>13.865</ele>
        <time>2018-11-26T15:15:09.842Z</time>
      </trkpt>
      <trkpt lat="43.67231" lon="7.20199">
        <ele>12.611</ele>
        <time>2018-11-26T15:15:12.818Z</time>
      </trkpt>
      <trkpt lat="43.67199" lon="7.2021">
        <ele>11.554</ele>
        <time>2018-11-26T15:15:15.665Z</time>
      </trkpt>
      <trkpt lat="43.67165" lon="7.20224">
        <ele>10.78</ele>
        <time>2018-11-26T15:15:18.661Z</time>
      </trkpt>
      <trkpt lat="43.67129" lon="7.20242">
        <ele>10.313</ele>
        <time>2018-11-26T15:15:21.740Z</time>
      </trkpt>
      <trkpt lat="43.67094" lon="7.2026">
        <ele>10.117</ele>
        <time>2018-11-26T15:15:24.797Z</time>
      </trkpt>
      <trkpt lat="43.67062" lon="7.20278">
        <ele>10.008</ele>
        <time>2018-11-26T15:15:27.720Z</time>
      </trkpt>
      <trkpt lat="43.67031" lon="7.20296">
        <ele>9.79</ele>
        <time>2018-11-26T15:15:30.693Z</time>
      </trkpt>
      <trkpt lat="43.67001" lon="7.20315">
        <ele>9.482</ele>
        <time>2018-11-26T15:15:33.644Z</time>
      </trkpt>
      <trkpt lat="43.66971" lon="7.20333">
        <ele>9.241</ele>
        <time>2018-11-26T15:15:36.574Z</time>
      </trkpt>
      <trkpt lat="43.6694" lon="7.20351">
        <ele>9.062</ele>
        <time>2018-11-26T15:15:39.518Z</time>
      </trkpt>
      <trkpt lat="43.66909" lon="7.20369">
        <ele>8.708</ele>
        <time>2018-11-26T15:15:42.454Z</time>
      </trkpt>
      <trkpt lat="43.66877" lon="7.20388">
        <ele>8.135</ele>
        <time>2018-11-26T15:15:45.422Z</time>
      </trkpt>
      <trkpt lat="43.66833" lon="7.2041">
        <ele>7.721</ele>
        <time>2018-11-26T15:15:49.442Z</time>
      </trkpt>
      <trkpt lat="43.66802" lon="7.20425">
        <ele>7.721</ele>
        <time>2018-11-26T15:15:52.470Z</time>
      </trkpt>
      <trkpt lat="43.66775" lon="7.20437">
        <ele>7.938</ele>
        <time>2018-11-26T15:15:55.458Z</time>
      </trkpt>
      <trkpt lat="43.66706" lon="7.20476">
        <ele>8.116</ele>
        <time>2018-11-26T15:16:03.736Z</time>
      </trkpt>
      <trkpt lat="43.66682" lon="7.20491">
        <ele>8.204</ele>
        <time>2018-11-26T15:16:06.753Z</time>
      </trkpt>
      <trkpt lat="43.66657" lon="7.20506">
        <ele>8.329</ele>
        <time>2018-11-26T15:16:09.793Z</time>
      </trkpt>
      <trkpt lat="43.66633" lon="7.2052">
        <ele>8.562</ele>
        <time>2018-11-26T15:16:12.718Z</time>
      </trkpt>
      <trkpt lat="43.66607" lon="7.20526">
        <ele>8.496</ele>
        <time>2018-11-26T15:16:15.801Z</time>
      </trkpt>
      <trkpt lat="43.66588" lon="7.20507">
        <ele>7.577</ele>
        <time>2018-11-26T15:16:18.668Z</time>
      </trkpt>
      <trkpt lat="43.66578" lon="7.20471">
        <ele>6.111</ele>
        <time>2018-11-26T15:16:21.854Z</time>
      </trkpt>
      <trkpt lat="43.66571" lon="7.20435">
        <ele>5.708</ele>
        <time>2018-11-26T15:16:24.986Z</time>
      </trkpt>
      <trkpt lat="43.66566" lon="7.20407">
        <ele>7.165</ele>
        <time>2018-11-26T15:16:27.748Z</time>
      </trkpt>
      <trkpt lat="43.66564" lon="7.2039">
        <ele>9.137</ele>
        <time>2018-11-26T15:16:29.998Z</time>
      </trkpt>
      <trkpt lat="43.66564" lon="7.2039">
        <ele>10.241</ele>
        <time>2018-11-26T15:16:33.998Z</time>
      </trkpt>
      <trkpt lat="43.66564" lon="7.2039">
        <ele>10.524</ele>
        <time>2018-11-26T15:17:28.299Z</time>
      </trkpt>
      <trkpt lat="43.66559" lon="7.20368">
        <ele>10.438</ele>
        <time>2018-11-26T15:17:35.843Z</time>
      </trkpt>
      <trkpt lat="43.66557" lon="7.20344">
        <ele>10.43</ele>
        <time>2018-11-26T15:17:39.152Z</time>
      </trkpt>
      <trkpt lat="43.66557" lon="7.20318">
        <ele>10.684</ele>
        <time>2018-11-26T15:17:41.982Z</time>
      </trkpt>
      <trkpt lat="43.66554" lon="7.20289">
        <ele>11.005</ele>
        <time>2018-11-26T15:17:44.746Z</time>
      </trkpt>
      <trkpt lat="43.66544" lon="7.20254">
        <ele>11.174</ele>
        <time>2018-11-26T15:17:47.686Z</time>
      </trkpt>
      <trkpt lat="43.66531" lon="7.20215">
        <ele>11.21</ele>
        <time>2018-11-26T15:17:50.558Z</time>
      </trkpt>
      <trkpt lat="43.66515" lon="7.2017">
        <ele>11.188</ele>
        <time>2018-11-26T15:17:53.534Z</time>
      </trkpt>
      <trkpt lat="43.66498" lon="7.20124">
        <ele>11.146</ele>
        <time>2018-11-26T15:17:56.420Z</time>
      </trkpt>
      <trkpt lat="43.66478" lon="7.20074">
        <ele>11.002</ele>
        <time>2018-11-26T15:17:59.327Z</time>
      </trkpt>
      <trkpt lat="43.66458" lon="7.20018">
        <ele>10.673</ele>
        <time>2018-11-26T15:18:02.310Z</time>
      </trkpt>
      <trkpt lat="43.66435" lon="7.19961">
        <ele>10.202</ele>
        <time>2018-11-26T15:18:05.291Z</time>
      </trkpt>
      <trkpt lat="43.66412" lon="7.19903">
        <ele>9.709</ele>
        <time>2018-11-26T15:18:08.199Z</time>
      </trkpt>
      <trkpt lat="43.66391" lon="7.1984">
        <ele>9.175</ele>
        <time>2018-11-26T15:18:11.259Z</time>
      </trkpt>
      <trkpt lat="43.66369" lon="7.19781">
        <ele>8.467</ele>
        <time>2018-11-26T15:18:14.271Z</time>
      </trkpt>
      <trkpt lat="43.66352" lon="7.19739">
        <ele>7.574</ele>
        <time>2018-11-26T15:18:16.804Z</time>
      </trkpt>
      <trkpt lat="43.66339" lon="7.19704">
        <ele>6.607</ele>
        <time>2018-11-26T15:18:19.285Z</time>
      </trkpt>
      <trkpt lat="43.66326" lon="7.19671">
        <ele>5.754</ele>
        <time>2018-11-26T15:18:22.202Z</time>
      </trkpt>
      <trkpt lat="43.6631" lon="7.19633">
        <ele>5.207</ele>
        <time>2018-11-26T15:18:25.520Z</time>
      </trkpt>
      <trkpt lat="43.66294" lon="7.19602">
        <ele>4.883</ele>
        <time>2018-11-26T15:18:28.341Z</time>
      </trkpt>
      <trkpt lat="43.66278" lon="7.19566">
        <ele>4.619</ele>
        <time>2018-11-26T15:18:31.614Z</time>
      </trkpt>
      <trkpt lat="43.66268" lon="7.19535">
        <ele>5.855</ele>
        <time>2018-11-26T15:18:34.316Z</time>
      </trkpt>
      <trkpt lat="43.66255" lon="7.19511">
        <ele>9.492</ele>
        <time>2018-11-26T15:18:37.055Z</time>
      </trkpt>
      <trkpt lat="43.66243" lon="7.19483">
        <ele>13.299</ele>
        <time>2018-11-26T15:18:40.169Z</time>
      </trkpt>
      <trkpt lat="43.66231" lon="7.19447">
        <ele>15.029</ele>
        <time>2018-11-26T15:18:43.536Z</time>
      </trkpt>
      <trkpt lat="43.66216" lon="7.19411">
        <ele>15.024</ele>
        <time>2018-11-26T15:18:46.885Z</time>
      </trkpt>
      <trkpt lat="43.66208" lon="7.19391">
        <ele>14.329</ele>
        <time>2018-11-26T15:18:48.996Z</time>
      </trkpt>
      <trkpt lat="43.66208" lon="7.19391">
        <ele>13.714</ele>
        <time>2018-11-26T15:18:54.996Z</time>
      </trkpt>
      <trkpt lat="43.66208" lon="7.19391">
        <ele>13.451</ele>
        <time>2018-11-26T15:19:33.971Z</time>
      </trkpt>
      <trkpt lat="43.66201" lon="7.19365">
        <ele>13.48</ele>
        <time>2018-11-26T15:19:43.558Z</time>
      </trkpt>
      <trkpt lat="43.66193" lon="7.19353">
        <ele>13.476</ele>
        <time>2018-11-26T15:19:46.412Z</time>
      </trkpt>
      <trkpt lat="43.66176" lon="7.19356">
        <ele>13.213</ele>
        <time>2018-11-26T15:19:50.112Z</time>
      </trkpt>
      <trkpt lat="43.66158" lon="7.19358">
        <ele>12.833</ele>
        <time>2018-11-26T15:19:53.503Z</time>
      </trkpt>
      <trkpt lat="43.66149" lon="7.19341">
        <ele>12.459</ele>
        <time>2018-11-26T15:19:55.955Z</time>
      </trkpt>
      <trkpt lat="43.6614" lon="7.19319">
        <ele>12.056</ele>
        <time>2018-11-26T15:19:58.428Z</time>
      </trkpt>
      <trkpt lat="43.66132" lon="7.19296">
        <ele>11.715</ele>
        <time>2018-11-26T15:20:00.954Z</time>
      </trkpt>
      <trkpt lat="43.66122" lon="7.19272">
        <ele>11.511</ele>
        <time>2018-11-26T15:20:03.772Z</time>
      </trkpt>
      <trkpt lat="43.66132" lon="7.19247">
        <ele>11.316</ele>
        <time>2018-11-26T15:20:07.112Z</time>
      </trkpt>
      <trkpt lat="43.66151" lon="7.19242">
        <ele>10.925</ele>
        <time>2018-11-26T15:20:10.871Z</time>
      </trkpt>
      <trkpt lat="43.66164" lon="7.19244">
        <ele>10.159</ele>
        <time>2018-11-26T15:20:12.859Z</time>
      </trkpt>
      <trkpt lat="43.66192" lon="7.1926">
        <ele>8.72</ele>
        <time>2018-11-26T15:20:16.810Z</time>
      </trkpt>
      <trkpt lat="43.66207" lon="7.19286">
        <ele>6.809</ele>
        <time>2018-11-26T15:20:19.730Z</time>
      </trkpt>
      <trkpt lat="43.66208" lon="7.19312">
        <ele>6.26</ele>
        <time>2018-11-26T15:20:22.449Z</time>
      </trkpt>
      <trkpt lat="43.66211" lon="7.19336">
        <ele>8.32</ele>
        <time>2018-11-26T15:20:25.393Z</time>
      </trkpt>
      <trkpt lat="43.66219" lon="7.19354">
        <ele>11.355</ele>
        <time>2018-11-26T15:20:28.265Z</time>
      </trkpt>
      <trkpt lat="43.66225" lon="7.19373">
        <ele>13.29</ele>
        <time>2018-11-26T15:20:31.173Z</time>
      </trkpt>
      <trkpt lat="43.6623" lon="7.19391">
        <ele>13.903</ele>
        <time>2018-11-26T15:20:34.232Z</time>
      </trkpt>
      <trkpt lat="43.66235" lon="7.19405">
        <ele>13.82</ele>
        <time>2018-11-26T15:20:37.053Z</time>
      </trkpt>
      <trkpt lat="43.66245" lon="7.1941">
        <ele>13.593</ele>
        <time>2018-11-26T15:20:39.600Z</time>
      </trkpt>
      <trkpt lat="43.66256" lon="7.1941">
        <ele>13.453</ele>
        <time>2018-11-26T15:20:42.487Z</time>
      </trkpt>
      <trkpt lat="43.66267" lon="7.19408">
        <ele>13.418</ele>
        <time>2018-11-26T15:20:45.023Z</time>
      </trkpt>
      <trkpt lat="43.66279" lon="7.19405">
        <ele>13.479</ele>
        <time>2018-11-26T15:20:47.787Z</time>
      </trkpt>
      <trkpt lat="43.66293" lon="7.19402">
        <ele>13.66</ele>
        <time>2018-11-26T15:20:50.759Z</time>
      </trkpt>
      <trkpt lat="43.66307" lon="7.19399">
        <ele>13.978</ele>
        <time>2018-11-26T15:20:53.503Z</time>
      </trkpt>
      <trkpt lat="43.6632" lon="7.19392">
        <ele>14.41</ele>
        <time>2018-11-26T15:20:56.336Z</time>
      </trkpt>
      <trkpt lat="43.66334" lon="7.19388">
        <ele>14.905</ele>
        <time>2018-11-26T15:20:59.133Z</time>
      </trkpt>
      <trkpt lat="43.66347" lon="7.19385">
        <ele>15.418</ele>
        <time>2018-11-26T15:21:01.994Z</time>
      </trkpt>
      <trkpt lat="43.66347" lon="7.19385">
        <ele>15.859</ele>
        <time>2018-11-26T15:21:08.998Z</time>
      </trkpt>
      <trkpt lat="43.66347" lon="7.19385">
        <ele>16.079</ele>
        <time>2018-11-26T15:21:13.064Z</time>
      </trkpt>
      <trkpt lat="43.66376" lon="7.19378">
        <ele>16.051</ele>
        <time>2018-11-26T15:21:52.856Z</time>
      </trkpt>
      <trkpt lat="43.66386" lon="7.19372">
        <ele>16.039</ele>
        <time>2018-11-26T15:21:56.488Z</time>
      </trkpt>
      <trkpt lat="43.66395" lon="7.1937">
        <ele>16.238</ele>
        <time>2018-11-26T15:21:58.969Z</time>
      </trkpt>
      <trkpt lat="43.66408" lon="7.19369">
        <ele>16.503</ele>
        <time>2018-11-26T15:22:01.378Z</time>
      </trkpt>
      <trkpt lat="43.66423" lon="7.19365">
        <ele>16.696</ele>
        <time>2018-11-26T15:22:03.529Z</time>
      </trkpt>
      <trkpt lat="43.66446" lon="7.19359">
        <ele>16.91</ele>
        <time>2018-11-26T15:22:06.414Z</time>
      </trkpt>
      <trkpt lat="43.66471" lon="7.19352">
        <ele>17.19</ele>
        <time>2018-11-26T15:22:09.372Z</time>
      </trkpt>
      <trkpt lat="43.665" lon="7.19343">
        <ele>17.432</ele>
        <time>2018-11-26T15:22:12.907Z</time>
      </trkpt>
      <trkpt lat="43.66522" lon="7.19335">
        <ele>17.551</ele>
        <time>2018-11-26T15:22:15.617Z</time>
      </trkpt>
      <trkpt lat="43.66542" lon="7.19328">
        <ele>17.584</ele>
        <time>2018-11-26T15:22:18.070Z</time>
      </trkpt>
      <trkpt lat="43.66565" lon="7.19318">
        <ele>17.618</ele>
        <time>2018-11-26T15:22:20.801Z</time>
      </trkpt>
      <trkpt lat="43.6659" lon="7.19308">
        <ele>17.73</ele>
        <time>2018-11-26T15:22:23.629Z</time>
      </trkpt>
      <trkpt lat="43.66613" lon="7.19299">
        <ele>17.961</ele>
        <time>2018-11-26T15:22:26.280Z</time>
      </trkpt>
      <trkpt lat="43.66635" lon="7.19289">
        <ele>18.265</ele>
        <time>2018-11-26T15:22:29.019Z</time>
      </trkpt>
      <trkpt lat="43.66659" lon="7.19279">
        <ele>18.559</ele>
        <time>2018-11-26T15:22:32.031Z</time>
      </trkpt>
      <trkpt lat="43.66679" lon="7.1927">
        <ele>18.825</ele>
        <time>2018-11-26T15:22:34.827Z</time>
      </trkpt>
      <trkpt lat="43.66695" lon="7.19263">
        <ele>19.133</ele>
        <time>2018-11-26T15:22:37.034Z</time>
      </trkpt>
      <trkpt lat="43.6672" lon="7.19255">
        <ele>19.647</ele>
        <time>2018-11-26T15:22:40.129Z</time>
      </trkpt>
      <trkpt lat="43.66742" lon="7.19245">
        <ele>20.324</ele>
        <time>2018-11-26T15:22:43.322Z</time>
      </trkpt>
      <trkpt lat="43.66757" lon="7.19238">
        <ele>20.708</ele>
        <time>2018-11-26T15:22:46.184Z</time>
      </trkpt>
      <trkpt lat="43.66768" lon="7.19233">
        <ele>20.437</ele>
        <time>2018-11-26T15:22:48.791Z</time>
      </trkpt>
      <trkpt lat="43.6678" lon="7.19227">
        <ele>19.755</ele>
        <time>2018-11-26T15:22:51.768Z</time>
      </trkpt>
      <trkpt lat="43.66789" lon="7.19222">
        <ele>19.168</ele>
        <time>2018-11-26T15:22:54.913Z</time>
      </trkpt>
      <trkpt lat="43.66798" lon="7.19218">
        <ele>18.885</ele>
        <time>2018-11-26T15:22:58.369Z</time>
      </trkpt>
      <trkpt lat="43.6681" lon="7.19212">
        <ele>18.791</ele>
        <time>2018-11-26T15:23:02.007Z</time>
      </trkpt>
      <trkpt lat="43.66824" lon="7.19205">
        <ele>18.755</ele>
        <time>2018-11-26T15:23:05.098Z</time>
      </trkpt>
      <trkpt lat="43.66838" lon="7.19199">
        <ele>18.776</ele>
        <time>2018-11-26T15:23:08.133Z</time>
      </trkpt>
      <trkpt lat="43.66849" lon="7.19195">
        <ele>18.94</ele>
        <time>2018-11-26T15:23:11.370Z</time>
      </trkpt>
      <trkpt lat="43.66858" lon="7.19191">
        <ele>19.249</ele>
        <time>2018-11-26T15:23:15.998Z</time>
      </trkpt>
      <trkpt lat="43.66858" lon="7.19191">
        <ele>19.557</ele>
        <time>2018-11-26T15:23:16.998Z</time>
      </trkpt>
      <trkpt lat="43.66858" lon="7.19191">
        <ele>19.705</ele>
        <time>2018-11-26T15:23:17.098Z</time>
      </trkpt>
      <trkpt lat="43.66872" lon="7.19186">
        <ele>19.682</ele>
        <time>2018-11-26T15:23:22.509Z</time>
      </trkpt>
      <trkpt lat="43.66885" lon="7.19179">
        <ele>19.632</ele>
        <time>2018-11-26T15:23:25.478Z</time>
      </trkpt>
      <trkpt lat="43.66899" lon="7.1917">
        <ele>19.665</ele>
        <time>2018-11-26T15:23:28.577Z</time>
      </trkpt>
      <trkpt lat="43.66912" lon="7.19164">
        <ele>19.74</ele>
        <time>2018-11-26T15:23:31.327Z</time>
      </trkpt>
      <trkpt lat="43.66924" lon="7.19157">
        <ele>19.787</ele>
        <time>2018-11-26T15:23:33.909Z</time>
      </trkpt>
      <trkpt lat="43.66936" lon="7.19151">
        <ele>19.807</ele>
        <time>2018-11-26T15:23:36.609Z</time>
      </trkpt>
      <trkpt lat="43.66947" lon="7.19146">
        <ele>19.865</ele>
        <time>2018-11-26T15:23:39.287Z</time>
      </trkpt>
      <trkpt lat="43.66956" lon="7.19142">
        <ele>20.048</ele>
        <time>2018-11-26T15:23:42.337Z</time>
      </trkpt>
      <trkpt lat="43.66966" lon="7.19137">
        <ele>20.352</ele>
        <time>2018-11-26T15:23:45.820Z</time>
      </trkpt>
      <trkpt lat="43.66976" lon="7.19132">
        <ele>20.65</ele>
        <time>2018-11-26T15:23:49.125Z</time>
      </trkpt>
      <trkpt lat="43.66984" lon="7.19128">
        <ele>20.83</ele>
        <time>2018-11-26T15:23:51.724Z</time>
      </trkpt>
      <trkpt lat="43.66993" lon="7.19124">
        <ele>20.896</ele>
        <time>2018-11-26T15:23:54.889Z</time>
      </trkpt>
      <trkpt lat="43.67002" lon="7.19119">
        <ele>20.943</ele>
        <time>2018-11-26T15:23:59.423Z</time>
      </trkpt>
      <trkpt lat="43.67013" lon="7.19114">
        <ele>21.061</ele>
        <time>2018-11-26T15:24:04.867Z</time>
      </trkpt>
      <trkpt lat="43.67022" lon="7.19109">
        <ele>21.271</ele>
        <time>2018-11-26T15:24:09.997Z</time>
      </trkpt>
      <trkpt lat="43.67022" lon="7.19109">
        <ele>21.506</ele>
        <time>2018-11-26T15:24:12.997Z</time>
      </trkpt>
      <trkpt lat="43.67022" lon="7.19109">
        <ele>21.638</ele>
        <time>2018-11-26T15:24:13.384Z</time>
      </trkpt>
      <trkpt lat="43.67049" lon="7.19159">
        <ele>21.559</ele>
        <time>2018-11-26T15:24:34.838Z</time>
      </trkpt>
      <trkpt lat="43.67094" lon="7.1921">
        <ele>21.592</ele>
        <time>2018-11-26T15:24:44.607Z</time>
      </trkpt>
      <trkpt lat="43.671" lon="7.19236">
        <ele>21.765</ele>
        <time>2018-11-26T15:24:47.442Z</time>
      </trkpt>
      <trkpt lat="43.67107" lon="7.19261">
        <ele>22</ele>
        <time>2018-11-26T15:24:50.606Z</time>
      </trkpt>
      <trkpt lat="43.67119" lon="7.1927">
        <ele>22.069</ele>
        <time>2018-11-26T15:24:53.076Z</time>
      </trkpt>
      <trkpt lat="43.67137" lon="7.19264">
        <ele>21.739</ele>
        <time>2018-11-26T15:24:55.940Z</time>
      </trkpt>
      <trkpt lat="43.67157" lon="7.19254">
        <ele>21.01</ele>
        <time>2018-11-26T15:24:59.110Z</time>
      </trkpt>
      <trkpt lat="43.67174" lon="7.1925">
        <ele>20.199</ele>
        <time>2018-11-26T15:25:01.600Z</time>
      </trkpt>
      <trkpt lat="43.67188" lon="7.19272">
        <ele>19.659</ele>
        <time>2018-11-26T15:25:04.418Z</time>
      </trkpt>
      <trkpt lat="43.67198" lon="7.19301">
        <ele>19.329</ele>
        <time>2018-11-26T15:25:07.384Z</time>
      </trkpt>
      <trkpt lat="43.67203" lon="7.19323">
        <ele>18.752</ele>
        <time>2018-11-26T15:25:09.889Z</time>
      </trkpt>
      <trkpt lat="43.67207" lon="7.19338">
        <ele>17.648</ele>
        <time>2018-11-26T15:25:11.997Z</time>
      </trkpt>
      <trkpt lat="43.67207" lon="7.19338">
        <ele>16.377</ele>
        <time>2018-11-26T15:25:15.997Z</time>
      </trkpt>
      <trkpt lat="43.67207" lon="7.19338">
        <ele>15.656</ele>
        <time>2018-11-26T15:25:46.059Z</time>
      </trkpt>
      <trkpt lat="43.67208" lon="7.19367">
        <ele>15.703</ele>
        <time>2018-11-26T15:25:58.824Z</time>
      </trkpt>
      <trkpt lat="43.67204" lon="7.19391">
        <ele>15.671</ele>
        <time>2018-11-26T15:26:02.066Z</time>
      </trkpt>
      <trkpt lat="43.67222" lon="7.19401">
        <ele>14.898</ele>
        <time>2018-11-26T15:26:04.651Z</time>
      </trkpt>
      <trkpt lat="43.67245" lon="7.19393">
        <ele>13.919</ele>
        <time>2018-11-26T15:26:07.411Z</time>
      </trkpt>
      <trkpt lat="43.6727" lon="7.19384">
        <ele>13.396</ele>
        <time>2018-11-26T15:26:10.323Z</time>
      </trkpt>
      <trkpt lat="43.67295" lon="7.19367">
        <ele>13.279</ele>
        <time>2018-11-26T15:26:13.083Z</time>
      </trkpt>
      <trkpt lat="43.67323" lon="7.19345">
        <ele>13.339</ele>
        <time>2018-11-26T15:26:15.951Z</time>
      </trkpt>
      <trkpt lat="43.67357" lon="7.19328">
        <ele>13.409</ele>
        <time>2018-11-26T15:26:18.913Z</time>
      </trkpt>
      <trkpt lat="43.67392" lon="7.19311">
        <ele>13.427</ele>
        <time>2018-11-26T15:26:21.855Z</time>
      </trkpt>
      <trkpt lat="43.67427" lon="7.19294">
        <ele>13.437</ele>
        <time>2018-11-26T15:26:24.852Z</time>
      </trkpt>
      <trkpt lat="43.67462" lon="7.19276">
        <ele>13.536</ele>
        <time>2018-11-26T15:26:27.822Z</time>
      </trkpt>
      <trkpt lat="43.67497" lon="7.19258">
        <ele>13.772</ele>
        <time>2018-11-26T15:26:30.760Z</time>
      </trkpt>
      <trkpt lat="43.67532" lon="7.19242">
        <ele>14.085</ele>
        <time>2018-11-26T15:26:33.871Z</time>
      </trkpt>
      <trkpt lat="43.67562" lon="7.19227">
        <ele>14.351</ele>
        <time>2018-11-26T15:26:36.886Z</time>
      </trkpt>
      <trkpt lat="43.67588" lon="7.19215">
        <ele>14.496</ele>
        <time>2018-11-26T15:26:39.692Z</time>
      </trkpt>
      <trkpt lat="43.67617" lon="7.19203">
        <ele>14.537</ele>
        <time>2018-11-26T15:26:42.764Z</time>
      </trkpt>
      <trkpt lat="43.67643" lon="7.19194">
        <ele>14.531</ele>
        <time>2018-11-26T15:26:45.751Z</time>
      </trkpt>
      <trkpt lat="43.67668" lon="7.19188">
        <ele>14.572</ele>
        <time>2018-11-26T15:26:48.637Z</time>
      </trkpt>
      <trkpt lat="43.67695" lon="7.19181">
        <ele>14.764</ele>
        <time>2018-11-26T15:26:51.603Z</time>
      </trkpt>
      <trkpt lat="43.6772" lon="7.19173">
        <ele>15.05</ele>
        <time>2018-11-26T15:26:54.569Z</time>
      </trkpt>
      <trkpt lat="43.67744" lon="7.19163">
        <ele>15.221</ele>
        <time>2018-11-26T15:26:57.552Z</time>
      </trkpt>
      <trkpt lat="43.67766" lon="7.19153">
        <ele>15.186</ele>
        <time>2018-11-26T15:27:00.355Z</time>
      </trkpt>
      <trkpt lat="43.67791" lon="7.19141">
        <ele>15.025</ele>
        <time>2018-11-26T15:27:03.369Z</time>
      </trkpt>
      <trkpt lat="43.67815" lon="7.19125">
        <ele>14.759</ele>
        <time>2018-11-26T15:27:06.384Z</time>
      </trkpt>
      <trkpt lat="43.67839" lon="7.19107">
        <ele>14.416</ele>
        <time>2018-11-26T15:27:09.467Z</time>
      </trkpt>
      <trkpt lat="43.67861" lon="7.19092">
        <ele>14.17</ele>
        <time>2018-11-26T15:27:12.326Z</time>
      </trkpt>
      <trkpt lat="43.67883" lon="7.19078">
        <ele>14.13</ele>
        <time>2018-11-26T15:27:15.420Z</time>
      </trkpt>
      <trkpt lat="43.67906" lon="7.19068">
        <ele>14.219</ele>
        <time>2018-11-26T15:27:18.412Z</time>
      </trkpt>
      <trkpt lat="43.67926" lon="7.19059">
        <ele>14.365</ele>
        <time>2018-11-26T15:27:21.370Z</time>
      </trkpt>
      <trkpt lat="43.67947" lon="7.19051">
        <ele>14.555</ele>
        <time>2018-11-26T15:27:24.322Z</time>
      </trkpt>
      <trkpt lat="43.67967" lon="7.19042">
        <ele>14.741</ele>
        <time>2018-11-26T15:27:27.312Z</time>
      </trkpt>
      <trkpt lat="43.67989" lon="7.19034">
        <ele>14.849</ele>
        <time>2018-11-26T15:27:30.291Z</time>
      </trkpt>
      <trkpt lat="43.6801" lon="7.19025">
        <ele>14.874</ele>
        <time>2018-11-26T15:27:33.285Z</time>
      </trkpt>
      <trkpt lat="43.6803" lon="7.19017">
        <ele>14.84</ele>
        <time>2018-11-26T15:27:36.111Z</time>
      </trkpt>
      <trkpt lat="43.6805" lon="7.19008">
        <ele>14.777</ele>
        <time>2018-11-26T15:27:39.061Z</time>
      </trkpt>
      <trkpt lat="43.68071" lon="7.19">
        <ele>14.745</ele>
        <time>2018-11-26T15:27:42.049Z</time>
      </trkpt>
      <trkpt lat="43.68092" lon="7.18991">
        <ele>14.776</ele>
        <time>2018-11-26T15:27:44.974Z</time>
      </trkpt>
      <trkpt lat="43.68115" lon="7.18982">
        <ele>14.847</ele>
        <time>2018-11-26T15:27:47.993Z</time>
      </trkpt>
      <trkpt lat="43.68138" lon="7.18973">
        <ele>14.918</ele>
        <time>2018-11-26T15:27:51.035Z</time>
      </trkpt>
      <trkpt lat="43.6816" lon="7.18963">
        <ele>14.993</ele>
        <time>2018-11-26T15:27:53.980Z</time>
      </trkpt>
      <trkpt lat="43.68182" lon="7.18953">
        <ele>15.137</ele>
        <time>2018-11-26T15:27:56.944Z</time>
      </trkpt>
      <trkpt lat="43.68205" lon="7.18942">
        <ele>15.406</ele>
        <time>2018-11-26T15:28:00.077Z</time>
      </trkpt>
      <trkpt lat="43.68224" lon="7.18934">
        <ele>15.78</ele>
        <time>2018-11-26T15:28:02.850Z</time>
      </trkpt>
      <trkpt lat="43.68244" lon="7.18925">
        <ele>16.231</ele>
        <time>2018-11-26T15:28:05.837Z</time>
      </trkpt>
      <trkpt lat="43.68263" lon="7.18917">
        <ele>16.672</ele>
        <time>2018-11-26T15:28:08.912Z</time>
      </trkpt>
      <trkpt lat="43.68279" lon="7.18909">
        <ele>16.917</ele>
        <time>2018-11-26T15:28:11.712Z</time>
      </trkpt>
      <trkpt lat="43.68288" lon="7.18906">
        <ele>16.897</ele>
        <time>2018-11-26T15:28:13.519Z</time>
      </trkpt>
      <trkpt lat="43.68298" lon="7.18904">
        <ele>16.735</ele>
        <time>2018-11-26T15:28:15.516Z</time>
      </trkpt>
      <trkpt lat="43.68309" lon="7.18901">
        <ele>16.505</ele>
        <time>2018-11-26T15:28:17.704Z</time>
      </trkpt>
      <trkpt lat="43.68318" lon="7.18887">
        <ele>16.18</ele>
        <time>2018-11-26T15:28:19.995Z</time>
      </trkpt>
      <trkpt lat="43.68315" lon="7.18869">
        <ele>15.82</ele>
        <time>2018-11-26T15:28:22.337Z</time>
      </trkpt>
      <trkpt lat="43.68304" lon="7.18857">
        <ele>15.653</ele>
        <time>2018-11-26T15:28:24.486Z</time>
      </trkpt>
      <trkpt lat="43.68296" lon="7.18843">
        <ele>15.816</ele>
        <time>2018-11-26T15:28:26.473Z</time>
      </trkpt>
      <trkpt lat="43.68292" lon="7.18825">
        <ele>16.159</ele>
        <time>2018-11-26T15:28:28.438Z</time>
      </trkpt>
      <trkpt lat="43.68286" lon="7.18806">
        <ele>16.452</ele>
        <time>2018-11-26T15:28:30.527Z</time>
      </trkpt>
      <trkpt lat="43.68282" lon="7.18787">
        <ele>16.603</ele>
        <time>2018-11-26T15:28:32.552Z</time>
      </trkpt>
      <trkpt lat="43.68279" lon="7.18767">
        <ele>16.641</ele>
        <time>2018-11-26T15:28:34.602Z</time>
      </trkpt>
      <trkpt lat="43.68274" lon="7.18749">
        <ele>16.627</ele>
        <time>2018-11-26T15:28:36.597Z</time>
      </trkpt>
      <trkpt lat="43.6827" lon="7.18728">
        <ele>16.658</ele>
        <time>2018-11-26T15:28:38.636Z</time>
      </trkpt>
      <trkpt lat="43.68268" lon="7.18706">
        <ele>16.876</ele>
        <time>2018-11-26T15:28:40.660Z</time>
      </trkpt>
      <trkpt lat="43.68268" lon="7.18683">
        <ele>17.35</ele>
        <time>2018-11-26T15:28:42.703Z</time>
      </trkpt>
      <trkpt lat="43.68271" lon="7.18661">
        <ele>18.05</ele>
        <time>2018-11-26T15:28:44.684Z</time>
      </trkpt>
      <trkpt lat="43.68274" lon="7.18639">
        <ele>18.948</ele>
        <time>2018-11-26T15:28:46.700Z</time>
      </trkpt>
      <trkpt lat="43.68279" lon="7.18619">
        <ele>20.076</ele>
        <time>2018-11-26T15:28:48.936Z</time>
      </trkpt>
      <trkpt lat="43.68285" lon="7.18597">
        <ele>21.49</ele>
        <time>2018-11-26T15:28:51.887Z</time>
      </trkpt>
      <trkpt lat="43.68289" lon="7.18579">
        <ele>23.139</ele>
        <time>2018-11-26T15:28:54.627Z</time>
      </trkpt>
      <trkpt lat="43.68294" lon="7.18559">
        <ele>24.877</ele>
        <time>2018-11-26T15:28:57.295Z</time>
      </trkpt>
      <trkpt lat="43.68305" lon="7.18533">
        <ele>26.559</ele>
        <time>2018-11-26T15:29:00.504Z</time>
      </trkpt>
      <trkpt lat="43.68321" lon="7.18509">
        <ele>28.007</ele>
        <time>2018-11-26T15:29:03.581Z</time>
      </trkpt>
      <trkpt lat="43.68335" lon="7.18486">
        <ele>29.13</ele>
        <time>2018-11-26T15:29:06.507Z</time>
      </trkpt>
      <trkpt lat="43.68354" lon="7.18471">
        <ele>30.006</ele>
        <time>2018-11-26T15:29:09.395Z</time>
      </trkpt>
      <trkpt lat="43.68374" lon="7.18456">
        <ele>30.828</ele>
        <time>2018-11-26T15:29:12.254Z</time>
      </trkpt>
      <trkpt lat="43.68392" lon="7.18431">
        <ele>31.909</ele>
        <time>2018-11-26T15:29:15.356Z</time>
      </trkpt>
      <trkpt lat="43.68412" lon="7.18416">
        <ele>33.323</ele>
        <time>2018-11-26T15:29:18.303Z</time>
      </trkpt>
      <trkpt lat="43.68429" lon="7.18394">
        <ele>34.827</ele>
        <time>2018-11-26T15:29:21.625Z</time>
      </trkpt>
      <trkpt lat="43.68434" lon="7.18365">
        <ele>36.302</ele>
        <time>2018-11-26T15:29:24.755Z</time>
      </trkpt>
      <trkpt lat="43.68429" lon="7.18339">
        <ele>37.74</ele>
        <time>2018-11-26T15:29:27.593Z</time>
      </trkpt>
      <trkpt lat="43.68419" lon="7.18312">
        <ele>39.057</ele>
        <time>2018-11-26T15:29:30.661Z</time>
      </trkpt>
      <trkpt lat="43.68427" lon="7.18283">
        <ele>40.303</ele>
        <time>2018-11-26T15:29:33.576Z</time>
      </trkpt>
      <trkpt lat="43.68441" lon="7.18252">
        <ele>41.735</ele>
        <time>2018-11-26T15:29:36.939Z</time>
      </trkpt>
      <trkpt lat="43.68454" lon="7.18226">
        <ele>43.664</ele>
        <time>2018-11-26T15:29:39.853Z</time>
      </trkpt>
      <trkpt lat="43.68465" lon="7.18197">
        <ele>46.547</ele>
        <time>2018-11-26T15:29:43.062Z</time>
      </trkpt>
      <trkpt lat="43.68475" lon="7.18177">
        <ele>50.597</ele>
        <time>2018-11-26T15:29:46.374Z</time>
      </trkpt>
      <trkpt lat="43.68482" lon="7.18168">
        <ele>55.166</ele>
        <time>2018-11-26T15:29:49.832Z</time>
      </trkpt>
      <trkpt lat="43.6849" lon="7.1816">
        <ele>59.176</ele>
        <time>2018-11-26T15:29:53.999Z</time>
      </trkpt>
      <trkpt lat="43.6849" lon="7.1816">
        <ele>61.853</ele>
        <time>2018-11-26T15:29:56.999Z</time>
      </trkpt>
      <trkpt lat="43.6849" lon="7.1816">
        <ele>62.889</ele>
        <time>2018-11-26T15:29:58.291Z</time>
      </trkpt>
      <trkpt lat="43.68512" lon="7.18153">
        <ele>62.703</ele>
        <time>2018-11-26T15:30:03.628Z</time>
      </trkpt>
      <trkpt lat="43.68531" lon="7.1814">
        <ele>62.563</ele>
        <time>2018-11-26T15:30:06.856Z</time>
      </trkpt>
      <trkpt lat="43.68546" lon="7.1813">
        <ele>63.364</ele>
        <time>2018-11-26T15:30:09.639Z</time>
      </trkpt>
      <trkpt lat="43.68561" lon="7.1812">
        <ele>64.755</ele>
        <time>2018-11-26T15:30:12.511Z</time>
      </trkpt>
      <trkpt lat="43.68579" lon="7.18108">
        <ele>66.053</ele>
        <time>2018-11-26T15:30:15.487Z</time>
      </trkpt>
      <trkpt lat="43.686" lon="7.18092">
        <ele>67.007</ele>
        <time>2018-11-26T15:30:18.756Z</time>
      </trkpt>
      <trkpt lat="43.68619" lon="7.1808">
        <ele>67.536</ele>
        <time>2018-11-26T15:30:21.517Z</time>
      </trkpt>
      <trkpt lat="43.68641" lon="7.18066">
        <ele>67.684</ele>
        <time>2018-11-26T15:30:24.637Z</time>
      </trkpt>
      <trkpt lat="43.6866" lon="7.18054">
        <ele>67.554</ele>
        <time>2018-11-26T15:30:27.514Z</time>
      </trkpt>
      <trkpt lat="43.68676" lon="7.18032">
        <ele>67.229</ele>
        <time>2018-11-26T15:30:30.778Z</time>
      </trkpt>
      <trkpt lat="43.68678" lon="7.17998">
        <ele>66.835</ele>
        <time>2018-11-26T15:30:33.870Z</time>
      </trkpt>
      <trkpt lat="43.68658" lon="7.17968">
        <ele>66.862</ele>
        <time>2018-11-26T15:30:36.989Z</time>
      </trkpt>
      <trkpt lat="43.68633" lon="7.1794">
        <ele>68.114</ele>
        <time>2018-11-26T15:30:40.278Z</time>
      </trkpt>
      <trkpt lat="43.68625" lon="7.17906">
        <ele>70.815</ele>
        <time>2018-11-26T15:30:43.454Z</time>
      </trkpt>
      <trkpt lat="43.68643" lon="7.17891">
        <ele>74.707</ele>
        <time>2018-11-26T15:30:45.969Z</time>
      </trkpt>
      <trkpt lat="43.68672" lon="7.17909">
        <ele>79.853</ele>
        <time>2018-11-26T15:30:48.997Z</time>
      </trkpt>
      <trkpt lat="43.68706" lon="7.17924">
        <ele>85.262</ele>
        <time>2018-11-26T15:30:52.002Z</time>
      </trkpt>
      <trkpt lat="43.68743" lon="7.1792">
        <ele>88.833</ele>
        <time>2018-11-26T15:30:55.116Z</time>
      </trkpt>
      <trkpt lat="43.68778" lon="7.17927">
        <ele>90.225</ele>
        <time>2018-11-26T15:30:58.003Z</time>
      </trkpt>
      <trkpt lat="43.68815" lon="7.17938">
        <ele>91.311</ele>
        <time>2018-11-26T15:31:01.046Z</time>
      </trkpt>
      <trkpt lat="43.68851" lon="7.17943">
        <ele>93.085</ele>
        <time>2018-11-26T15:31:04.060Z</time>
      </trkpt>
      <trkpt lat="43.68886" lon="7.17944">
        <ele>94.603</ele>
        <time>2018-11-26T15:31:07.045Z</time>
      </trkpt>
      <trkpt lat="43.68919" lon="7.1794">
        <ele>94.622</ele>
        <time>2018-11-26T15:31:10.018Z</time>
      </trkpt>
      <trkpt lat="43.68952" lon="7.17929">
        <ele>93.14</ele>
        <time>2018-11-26T15:31:12.967Z</time>
      </trkpt>
      <trkpt lat="43.68986" lon="7.17918">
        <ele>91.27</ele>
        <time>2018-11-26T15:31:15.918Z</time>
      </trkpt>
      <trkpt lat="43.69023" lon="7.17912">
        <ele>90.287</ele>
        <time>2018-11-26T15:31:18.933Z</time>
      </trkpt>
      <trkpt lat="43.69061" lon="7.17904">
        <ele>90.697</ele>
        <time>2018-11-26T15:31:21.895Z</time>
      </trkpt>
      <trkpt lat="43.69099" lon="7.17899">
        <ele>92.015</ele>
        <time>2018-11-26T15:31:25.041Z</time>
      </trkpt>
      <trkpt lat="43.69133" lon="7.17913">
        <ele>93.208</ele>
        <time>2018-11-26T15:31:28.106Z</time>
      </trkpt>
      <trkpt lat="43.69166" lon="7.17925">
        <ele>93.442</ele>
        <time>2018-11-26T15:31:31.106Z</time>
      </trkpt>
      <trkpt lat="43.69201" lon="7.17922">
        <ele>92.571</ele>
        <time>2018-11-26T15:31:34.063Z</time>
      </trkpt>
      <trkpt lat="43.69234" lon="7.179">
        <ele>91.277</ele>
        <time>2018-11-26T15:31:37.067Z</time>
      </trkpt>
      <trkpt lat="43.69267" lon="7.17876">
        <ele>90.632</ele>
        <time>2018-11-26T15:31:40.127Z</time>
      </trkpt>
      <trkpt lat="43.69301" lon="7.17861">
        <ele>91.09</ele>
        <time>2018-11-26T15:31:43.157Z</time>
      </trkpt>
      <trkpt lat="43.69332" lon="7.17843">
        <ele>92.133</ele>
        <time>2018-11-26T15:31:46.207Z</time>
      </trkpt>
      <trkpt lat="43.69363" lon="7.17828">
        <ele>93.042</ele>
        <time>2018-11-26T15:31:49.230Z</time>
      </trkpt>
      <trkpt lat="43.69394" lon="7.17831">
        <ele>94.061</ele>
        <time>2018-11-26T15:31:52.035Z</time>
      </trkpt>
      <trkpt lat="43.6943" lon="7.17829">
        <ele>95.661</ele>
        <time>2018-11-26T15:31:55.109Z</time>
      </trkpt>
      <trkpt lat="43.69467" lon="7.17825">
        <ele>97.372</ele>
        <time>2018-11-26T15:31:58.177Z</time>
      </trkpt>
      <trkpt lat="43.69504" lon="7.17821">
        <ele>98.458</ele>
        <time>2018-11-26T15:32:01.188Z</time>
      </trkpt>
      <trkpt lat="43.6954" lon="7.17815">
        <ele>98.741</ele>
        <time>2018-11-26T15:32:04.197Z</time>
      </trkpt>
      <trkpt lat="43.69576" lon="7.17805">
        <ele>98.198</ele>
        <time>2018-11-26T15:32:07.350Z</time>
      </trkpt>
      <trkpt lat="43.69608" lon="7.17795">
        <ele>96.83</ele>
        <time>2018-11-26T15:32:10.212Z</time>
      </trkpt>
      <trkpt lat="43.69642" lon="7.17787">
        <ele>94.849</ele>
        <time>2018-11-26T15:32:13.175Z</time>
      </trkpt>
      <trkpt lat="43.69677" lon="7.17779">
        <ele>92.592</ele>
        <time>2018-11-26T15:32:16.185Z</time>
      </trkpt>
      <trkpt lat="43.69711" lon="7.17765">
        <ele>90.409</ele>
        <time>2018-11-26T15:32:19.193Z</time>
      </trkpt>
      <trkpt lat="43.69742" lon="7.17746">
        <ele>88.769</ele>
        <time>2018-11-26T15:32:22.122Z</time>
      </trkpt>
      <trkpt lat="43.69771" lon="7.17717">
        <ele>88.03</ele>
        <time>2018-11-26T15:32:25.178Z</time>
      </trkpt>
      <trkpt lat="43.69802" lon="7.17691">
        <ele>88.334</ele>
        <time>2018-11-26T15:32:28.256Z</time>
      </trkpt>
      <trkpt lat="43.69831" lon="7.17664">
        <ele>89.685</ele>
        <time>2018-11-26T15:32:31.259Z</time>
      </trkpt>
      <trkpt lat="43.6986" lon="7.17637">
        <ele>91.796</ele>
        <time>2018-11-26T15:32:34.270Z</time>
      </trkpt>
      <trkpt lat="43.69893" lon="7.17623">
        <ele>94.224</ele>
        <time>2018-11-26T15:32:37.212Z</time>
      </trkpt>
      <trkpt lat="43.69927" lon="7.17612">
        <ele>96.611</ele>
        <time>2018-11-26T15:32:40.213Z</time>
      </trkpt>
      <trkpt lat="43.6996" lon="7.17599">
        <ele>98.714</ele>
        <time>2018-11-26T15:32:43.186Z</time>
      </trkpt>
      <trkpt lat="43.69991" lon="7.17577">
        <ele>100.568</ele>
        <time>2018-11-26T15:32:46.193Z</time>
      </trkpt>
      <trkpt lat="43.70021" lon="7.17554">
        <ele>102.478</ele>
        <time>2018-11-26T15:32:49.195Z</time>
      </trkpt>
      <trkpt lat="43.70051" lon="7.17533">
        <ele>104.694</ele>
        <time>2018-11-26T15:32:52.124Z</time>
      </trkpt>
      <trkpt lat="43.70086" lon="7.17528">
        <ele>107.316</ele>
        <time>2018-11-26T15:32:55.101Z</time>
      </trkpt>
      <trkpt lat="43.70121" lon="7.17525">
        <ele>110.331</ele>
        <time>2018-11-26T15:32:58.108Z</time>
      </trkpt>
      <trkpt lat="43.70152" lon="7.17505">
        <ele>113.214</ele>
        <time>2018-11-26T15:33:01.000Z</time>
      </trkpt>
      <trkpt lat="43.70184" lon="7.1748">
        <ele>115.091</ele>
        <time>2018-11-26T15:33:03.971Z</time>
      </trkpt>
      <trkpt lat="43.70219" lon="7.17464">
        <ele>116.07</ele>
        <time>2018-11-26T15:33:06.950Z</time>
      </trkpt>
      <trkpt lat="43.70255" lon="7.17451">
        <ele>116.883</ele>
        <time>2018-11-26T15:33:09.902Z</time>
      </trkpt>
      <trkpt lat="43.70292" lon="7.17444">
        <ele>117.57</ele>
        <time>2018-11-26T15:33:12.967Z</time>
      </trkpt>
      <trkpt lat="43.70323" lon="7.17437">
        <ele>117.897</ele>
        <time>2018-11-26T15:33:15.826Z</time>
      </trkpt>
      <trkpt lat="43.70354" lon="7.17424">
        <ele>118.089</ele>
        <time>2018-11-26T15:33:18.748Z</time>
      </trkpt>
      <trkpt lat="43.70386" lon="7.17407">
        <ele>118.601</ele>
        <time>2018-11-26T15:33:21.671Z</time>
      </trkpt>
      <trkpt lat="43.70418" lon="7.17389">
        <ele>119.674</ele>
        <time>2018-11-26T15:33:24.625Z</time>
      </trkpt>
      <trkpt lat="43.70452" lon="7.17372">
        <ele>121.239</ele>
        <time>2018-11-26T15:33:27.587Z</time>
      </trkpt>
      <trkpt lat="43.70487" lon="7.17378">
        <ele>123.093</ele>
        <time>2018-11-26T15:33:30.497Z</time>
      </trkpt>
      <trkpt lat="43.70522" lon="7.1739">
        <ele>124.732</ele>
        <time>2018-11-26T15:33:33.485Z</time>
      </trkpt>
      <trkpt lat="43.7056" lon="7.17387">
        <ele>125.676</ele>
        <time>2018-11-26T15:33:36.558Z</time>
      </trkpt>
      <trkpt lat="43.70597" lon="7.17387">
        <ele>125.986</ele>
        <time>2018-11-26T15:33:39.502Z</time>
      </trkpt>
      <trkpt lat="43.70637" lon="7.17388">
        <ele>126.311</ele>
        <time>2018-11-26T15:33:42.482Z</time>
      </trkpt>
      <trkpt lat="43.70676" lon="7.1739">
        <ele>127.327</ele>
        <time>2018-11-26T15:33:45.464Z</time>
      </trkpt>
      <trkpt lat="43.70714" lon="7.17393">
        <ele>128.836</ele>
        <time>2018-11-26T15:33:48.482Z</time>
      </trkpt>
      <trkpt lat="43.70749" lon="7.17392">
        <ele>130.008</ele>
        <time>2018-11-26T15:33:51.348Z</time>
      </trkpt>
      <trkpt lat="43.70783" lon="7.17383">
        <ele>130.34</ele>
        <time>2018-11-26T15:33:54.366Z</time>
      </trkpt>
      <trkpt lat="43.70818" lon="7.17371">
        <ele>129.821</ele>
        <time>2018-11-26T15:33:57.364Z</time>
      </trkpt>
      <trkpt lat="43.7085" lon="7.17358">
        <ele>128.912</ele>
        <time>2018-11-26T15:34:00.286Z</time>
      </trkpt>
      <trkpt lat="43.7088" lon="7.17342">
        <ele>128.267</ele>
        <time>2018-11-26T15:34:03.233Z</time>
      </trkpt>
      <trkpt lat="43.70908" lon="7.17318">
        <ele>128.19</ele>
        <time>2018-11-26T15:34:06.410Z</time>
      </trkpt>
      <trkpt lat="43.70929" lon="7.17294">
        <ele>128.627</ele>
        <time>2018-11-26T15:34:09.282Z</time>
      </trkpt>
      <trkpt lat="43.70942" lon="7.17259">
        <ele>129.56</ele>
        <time>2018-11-26T15:34:12.344Z</time>
      </trkpt>
      <trkpt lat="43.70959" lon="7.17231">
        <ele>130.775</ele>
        <time>2018-11-26T15:34:15.207Z</time>
      </trkpt>
      <trkpt lat="43.70991" lon="7.17238">
        <ele>131.785</ele>
        <time>2018-11-26T15:34:18.430Z</time>
      </trkpt>
      <trkpt lat="43.71019" lon="7.17265">
        <ele>132.343</ele>
        <time>2018-11-26T15:34:21.716Z</time>
      </trkpt>
      <trkpt lat="43.71047" lon="7.17273">
        <ele>132.572</ele>
        <time>2018-11-26T15:34:24.583Z</time>
      </trkpt>
      <trkpt lat="43.71066" lon="7.17246">
        <ele>132.637</ele>
        <time>2018-11-26T15:34:27.537Z</time>
      </trkpt>
      <trkpt lat="43.71076" lon="7.17211">
        <ele>132.768</ele>
        <time>2018-11-26T15:34:30.976Z</time>
      </trkpt>
      <trkpt lat="43.71094" lon="7.17203">
        <ele>133.369</ele>
        <time>2018-11-26T15:34:33.392Z</time>
      </trkpt>
      <trkpt lat="43.71117" lon="7.17236">
        <ele>135.026</ele>
        <time>2018-11-26T15:34:36.779Z</time>
      </trkpt>
      <trkpt lat="43.71144" lon="7.17267">
        <ele>137.446</ele>
        <time>2018-11-26T15:34:39.925Z</time>
      </trkpt>
      <trkpt lat="43.71174" lon="7.1728">
        <ele>139.163</ele>
        <time>2018-11-26T15:34:42.826Z</time>
      </trkpt>
      <trkpt lat="43.71208" lon="7.17276">
        <ele>139.415</ele>
        <time>2018-11-26T15:34:45.795Z</time>
      </trkpt>
      <trkpt lat="43.71244" lon="7.17273">
        <ele>139.199</ele>
        <time>2018-11-26T15:34:48.797Z</time>
      </trkpt>
      <trkpt lat="43.7128" lon="7.17277">
        <ele>139.823</ele>
        <time>2018-11-26T15:34:51.871Z</time>
      </trkpt>
      <trkpt lat="43.71313" lon="7.17281">
        <ele>141.408</ele>
        <time>2018-11-26T15:34:54.816Z</time>
      </trkpt>
      <trkpt lat="43.71345" lon="7.17272">
        <ele>143.111</ele>
        <time>2018-11-26T15:34:57.769Z</time>
      </trkpt>
      <trkpt lat="43.71376" lon="7.17269">
        <ele>144.268</ele>
        <time>2018-11-26T15:35:00.750Z</time>
      </trkpt>
      <trkpt lat="43.71404" lon="7.1729">
        <ele>144.816</ele>
        <time>2018-11-26T15:35:03.719Z</time>
      </trkpt>
      <trkpt lat="43.71439" lon="7.17286">
        <ele>144.967</ele>
        <time>2018-11-26T15:35:06.734Z</time>
      </trkpt>
      <trkpt lat="43.71475" lon="7.17273">
        <ele>144.8</ele>
        <time>2018-11-26T15:35:09.789Z</time>
      </trkpt>
      <trkpt lat="43.71509" lon="7.1726">
        <ele>144.36</ele>
        <time>2018-11-26T15:35:12.659Z</time>
      </trkpt>
      <trkpt lat="43.71544" lon="7.17249">
        <ele>143.881</ele>
        <time>2018-11-26T15:35:15.755Z</time>
      </trkpt>
      <trkpt lat="43.71576" lon="7.17243">
        <ele>143.608</ele>
        <time>2018-11-26T15:35:18.731Z</time>
      </trkpt>
      <trkpt lat="43.71595" lon="7.17238">
        <ele>143.608</ele>
        <time>2018-11-26T15:35:20.803Z</time>
      </trkpt>
      <trkpt lat="43.71611" lon="7.1723">
        <ele>143.89</ele>
        <time>2018-11-26T15:35:22.818Z</time>
      </trkpt>
      <trkpt lat="43.71624" lon="7.17212">
        <ele>144.492</ele>
        <time>2018-11-26T15:35:25.067Z</time>
      </trkpt>
      <trkpt lat="43.71628" lon="7.17189">
        <ele>145.507</ele>
        <time>2018-11-26T15:35:27.174Z</time>
      </trkpt>
      <trkpt lat="43.71618" lon="7.17171">
        <ele>146.949</ele>
        <time>2018-11-26T15:35:29.033Z</time>
      </trkpt>
      <trkpt lat="43.71598" lon="7.17161">
        <ele>148.644</ele>
        <time>2018-11-26T15:35:31.034Z</time>
      </trkpt>
      <trkpt lat="43.71574" lon="7.17162">
        <ele>150.274</ele>
        <time>2018-11-26T15:35:33.079Z</time>
      </trkpt>
      <trkpt lat="43.7155" lon="7.1716">
        <ele>151.662</ele>
        <time>2018-11-26T15:35:35.038Z</time>
      </trkpt>
      <trkpt lat="43.71527" lon="7.17166">
        <ele>153.445</ele>
        <time>2018-11-26T15:35:36.982Z</time>
      </trkpt>
      <trkpt lat="43.71504" lon="7.17171">
        <ele>156.496</ele>
        <time>2018-11-26T15:35:38.869Z</time>
      </trkpt>
      <trkpt lat="43.7148" lon="7.17176">
        <ele>160.477</ele>
        <time>2018-11-26T15:35:40.834Z</time>
      </trkpt>
      <trkpt lat="43.71456" lon="7.17182">
        <ele>164.16</ele>
        <time>2018-11-26T15:35:42.776Z</time>
      </trkpt>
      <trkpt lat="43.71432" lon="7.17181">
        <ele>167.05</ele>
        <time>2018-11-26T15:35:44.751Z</time>
      </trkpt>
      <trkpt lat="43.7141" lon="7.17172">
        <ele>169.366</ele>
        <time>2018-11-26T15:35:46.722Z</time>
      </trkpt>
      <trkpt lat="43.71388" lon="7.17163">
        <ele>171.202</ele>
        <time>2018-11-26T15:35:48.706Z</time>
      </trkpt>
      <trkpt lat="43.71365" lon="7.17164">
        <ele>172.574</ele>
        <time>2018-11-26T15:35:50.720Z</time>
      </trkpt>
      <trkpt lat="43.71334" lon="7.17176">
        <ele>173.805</ele>
        <time>2018-11-26T15:35:53.597Z</time>
      </trkpt>
      <trkpt lat="43.71301" lon="7.17177">
        <ele>175.106</ele>
        <time>2018-11-26T15:35:56.524Z</time>
      </trkpt>
      <trkpt lat="43.71266" lon="7.17175">
        <ele>176.339</ele>
        <time>2018-11-26T15:35:59.538Z</time>
      </trkpt>
      <trkpt lat="43.71233" lon="7.17162">
        <ele>177.389</ele>
        <time>2018-11-26T15:36:02.576Z</time>
      </trkpt>
      <trkpt lat="43.71203" lon="7.17148">
        <ele>178.571</ele>
        <time>2018-11-26T15:36:05.502Z</time>
      </trkpt>
      <trkpt lat="43.71181" lon="7.17122">
        <ele>180.169</ele>
        <time>2018-11-26T15:36:08.466Z</time>
      </trkpt>
      <trkpt lat="43.71163" lon="7.17096">
        <ele>181.907</ele>
        <time>2018-11-26T15:36:11.509Z</time>
      </trkpt>
      <trkpt lat="43.71153" lon="7.17074">
        <ele>183.471</ele>
        <time>2018-11-26T15:36:14.273Z</time>
      </trkpt>
      <trkpt lat="43.71148" lon="7.17055">
        <ele>184.886</ele>
        <time>2018-11-26T15:36:17.369Z</time>
      </trkpt>
      <trkpt lat="43.71151" lon="7.1704">
        <ele>186.263</ele>
        <time>2018-11-26T15:36:20.401Z</time>
      </trkpt>
      <trkpt lat="43.71169" lon="7.17035">
        <ele>187.797</ele>
        <time>2018-11-26T15:36:23.896Z</time>
      </trkpt>
      <trkpt lat="43.71196" lon="7.17027">
        <ele>189.563</ele>
        <time>2018-11-26T15:36:27.000Z</time>
      </trkpt>
      <trkpt lat="43.71226" lon="7.17025">
        <ele>191.285</ele>
        <time>2018-11-26T15:36:29.970Z</time>
      </trkpt>
      <trkpt lat="43.71259" lon="7.17027">
        <ele>192.714</ele>
        <time>2018-11-26T15:36:33.043Z</time>
      </trkpt>
      <trkpt lat="43.71289" lon="7.17031">
        <ele>193.973</ele>
        <time>2018-11-26T15:36:35.867Z</time>
      </trkpt>
      <trkpt lat="43.71318" lon="7.17034">
        <ele>195.259</ele>
        <time>2018-11-26T15:36:38.772Z</time>
      </trkpt>
      <trkpt lat="43.71349" lon="7.1702">
        <ele>196.527</ele>
        <time>2018-11-26T15:36:41.921Z</time>
      </trkpt>
      <trkpt lat="43.71373" lon="7.17002">
        <ele>197.565</ele>
        <time>2018-11-26T15:36:44.773Z</time>
      </trkpt>
      <trkpt lat="43.7138" lon="7.16967">
        <ele>198.302</ele>
        <time>2018-11-26T15:36:47.591Z</time>
      </trkpt>
      <trkpt lat="43.71361" lon="7.16922">
        <ele>198.905</ele>
        <time>2018-11-26T15:36:50.970Z</time>
      </trkpt>
      <trkpt lat="43.71335" lon="7.16882">
        <ele>199.71</ele>
        <time>2018-11-26T15:36:54.150Z</time>
      </trkpt>
      <trkpt lat="43.71305" lon="7.16873">
        <ele>200.988</ele>
        <time>2018-11-26T15:36:56.928Z</time>
      </trkpt>
      <trkpt lat="43.71276" lon="7.1689">
        <ele>203.304</ele>
        <time>2018-11-26T15:37:00.407Z</time>
      </trkpt>
      <trkpt lat="43.71258" lon="7.1689">
        <ele>206.503</ele>
        <time>2018-11-26T15:37:03.414Z</time>
      </trkpt>
      <trkpt lat="43.71252" lon="7.16875">
        <ele>208.875</ele>
        <time>2018-11-26T15:37:06.014Z</time>
      </trkpt>
      <trkpt lat="43.71275" lon="7.16875">
        <ele>208.687</ele>
        <time>2018-11-26T15:37:09.103Z</time>
      </trkpt>
      <trkpt lat="43.71311" lon="7.16875">
        <ele>206.44</ele>
        <time>2018-11-26T15:37:12.460Z</time>
      </trkpt>
      <trkpt lat="43.71344" lon="7.16872">
        <ele>204.786</ele>
        <time>2018-11-26T15:37:15.379Z</time>
      </trkpt>
      <trkpt lat="43.71372" lon="7.16899">
        <ele>206.023</ele>
        <time>2018-11-26T15:37:18.156Z</time>
      </trkpt>
      <trkpt lat="43.71413" lon="7.16904">
        <ele>209.669</ele>
        <time>2018-11-26T15:37:21.189Z</time>
      </trkpt>
      <trkpt lat="43.7146" lon="7.16903">
        <ele>213.561</ele>
        <time>2018-11-26T15:37:24.361Z</time>
      </trkpt>
      <trkpt lat="43.71504" lon="7.16891">
        <ele>216.368</ele>
        <time>2018-11-26T15:37:27.581Z</time>
      </trkpt>
      <trkpt lat="43.71538" lon="7.16872">
        <ele>218.49</ele>
        <time>2018-11-26T15:37:30.513Z</time>
      </trkpt>
      <trkpt lat="43.71558" lon="7.16829">
        <ele>220.846</ele>
        <time>2018-11-26T15:37:33.313Z</time>
      </trkpt>
      <trkpt lat="43.71586" lon="7.16774">
        <ele>223.544</ele>
        <time>2018-11-26T15:37:36.570Z</time>
      </trkpt>
      <trkpt lat="43.71622" lon="7.16733">
        <ele>226.286</ele>
        <time>2018-11-26T15:37:39.448Z</time>
      </trkpt>
      <trkpt lat="43.7167" lon="7.16692">
        <ele>229.202</ele>
        <time>2018-11-26T15:37:42.577Z</time>
      </trkpt>
      <trkpt lat="43.71717" lon="7.16646">
        <ele>232.589</ele>
        <time>2018-11-26T15:37:45.688Z</time>
      </trkpt>
      <trkpt lat="43.71769" lon="7.16624">
        <ele>236.523</ele>
        <time>2018-11-26T15:37:48.958Z</time>
      </trkpt>
      <trkpt lat="43.71807" lon="7.16604">
        <ele>240.86</ele>
        <time>2018-11-26T15:37:52.298Z</time>
      </trkpt>
      <trkpt lat="43.71829" lon="7.1659">
        <ele>244.934</ele>
        <time>2018-11-26T15:37:54.815Z</time>
      </trkpt>
      <trkpt lat="43.71857" lon="7.16581">
        <ele>247.95</ele>
        <time>2018-11-26T15:37:57.828Z</time>
      </trkpt>
      <trkpt lat="43.71887" lon="7.1658">
        <ele>249.797</ele>
        <time>2018-11-26T15:38:00.934Z</time>
      </trkpt>
      <trkpt lat="43.71913" lon="7.16571">
        <ele>250.911</ele>
        <time>2018-11-26T15:38:03.860Z</time>
      </trkpt>
      <trkpt lat="43.71936" lon="7.16547">
        <ele>251.6</ele>
        <time>2018-11-26T15:38:07.050Z</time>
      </trkpt>
      <trkpt lat="43.71958" lon="7.16531">
        <ele>252.062</ele>
        <time>2018-11-26T15:38:09.960Z</time>
      </trkpt>
      <trkpt lat="43.7198" lon="7.16519">
        <ele>252.736</ele>
        <time>2018-11-26T15:38:13.159Z</time>
      </trkpt>
      <trkpt lat="43.71994" lon="7.1651">
        <ele>253.953</ele>
        <time>2018-11-26T15:38:16.030Z</time>
      </trkpt>
      <trkpt lat="43.72003" lon="7.16505">
        <ele>255.385</ele>
        <time>2018-11-26T15:38:18.459Z</time>
      </trkpt>
      <trkpt lat="43.72014" lon="7.16506">
        <ele>256.437</ele>
        <time>2018-11-26T15:38:22.018Z</time>
      </trkpt>
      <trkpt lat="43.72028" lon="7.16502">
        <ele>256.837</ele>
        <time>2018-11-26T15:38:26.299Z</time>
      </trkpt>
      <trkpt lat="43.72045" lon="7.16501">
        <ele>256.713</ele>
        <time>2018-11-26T15:38:30.053Z</time>
      </trkpt>
      <trkpt lat="43.72068" lon="7.16509">
        <ele>256.399</ele>
        <time>2018-11-26T15:38:33.960Z</time>
      </trkpt>
      <trkpt lat="43.72093" lon="7.16523">
        <ele>256.204</ele>
        <time>2018-11-26T15:38:37.258Z</time>
      </trkpt>
      <trkpt lat="43.72119" lon="7.16533">
        <ele>256.328</ele>
        <time>2018-11-26T15:38:40.350Z</time>
      </trkpt>
      <trkpt lat="43.72146" lon="7.16538">
        <ele>256.89</ele>
        <time>2018-11-26T15:38:43.559Z</time>
      </trkpt>
      <trkpt lat="43.72165" lon="7.16562">
        <ele>258</ele>
        <time>2018-11-26T15:38:46.477Z</time>
      </trkpt>
      <trkpt lat="43.72173" lon="7.16605">
        <ele>259.677</ele>
        <time>2018-11-26T15:38:49.708Z</time>
      </trkpt>
      <trkpt lat="43.72166" lon="7.16655">
        <ele>261.593</ele>
        <time>2018-11-26T15:38:53.070Z</time>
      </trkpt>
      <trkpt lat="43.72166" lon="7.16698">
        <ele>263.172</ele>
        <time>2018-11-26T15:38:56.048Z</time>
      </trkpt>
      <trkpt lat="43.72173" lon="7.16726">
        <ele>264.112</ele>
        <time>2018-11-26T15:38:58.617Z</time>
      </trkpt>
      <trkpt lat="43.72189" lon="7.16734">
        <ele>264.543</ele>
        <time>2018-11-26T15:39:01.206Z</time>
      </trkpt>
      <trkpt lat="43.72203" lon="7.16745">
        <ele>264.727</ele>
        <time>2018-11-26T15:39:04.342Z</time>
      </trkpt>
      <trkpt lat="43.72221" lon="7.16752">
        <ele>264.919</ele>
        <time>2018-11-26T15:39:07.871Z</time>
      </trkpt>
      <trkpt lat="43.72231" lon="7.16758">
        <ele>265.349</ele>
        <time>2018-11-26T15:39:09.996Z</time>
      </trkpt>
      <trkpt lat="43.72231" lon="7.16758">
        <ele>265.938</ele>
        <time>2018-11-26T15:39:15.995Z</time>
      </trkpt>
      <trkpt lat="43.72231" lon="7.16758">
        <ele>266.261</ele>
        <time>2018-11-26T15:39:16.095Z</time>
      </trkpt>
      <trkpt lat="43.72238" lon="7.16765">
        <ele>266.129</ele>
        <time>2018-11-26T15:39:24.180Z</time>
      </trkpt>
      <trkpt lat="43.72252" lon="7.16782">
        <ele>266.091</ele>
        <time>2018-11-26T15:39:28.071Z</time>
      </trkpt>
      <trkpt lat="43.72266" lon="7.16792">
        <ele>266.611</ele>
        <time>2018-11-26T15:39:30.967Z</time>
      </trkpt>
      <trkpt lat="43.72284" lon="7.16795">
        <ele>267.325</ele>
        <time>2018-11-26T15:39:33.810Z</time>
      </trkpt>
      <trkpt lat="43.72302" lon="7.1681">
        <ele>267.787</ele>
        <time>2018-11-26T15:39:36.596Z</time>
      </trkpt>
      <trkpt lat="43.72322" lon="7.16818">
        <ele>268.144</ele>
        <time>2018-11-26T15:39:39.092Z</time>
      </trkpt>
      <trkpt lat="43.7235" lon="7.16833">
        <ele>268.775</ele>
        <time>2018-11-26T15:39:42.331Z</time>
      </trkpt>
      <trkpt lat="43.72376" lon="7.16844">
        <ele>269.769</ele>
        <time>2018-11-26T15:39:45.311Z</time>
      </trkpt>
      <trkpt lat="43.72398" lon="7.16863">
        <ele>271.038</ele>
        <time>2018-11-26T15:39:48.192Z</time>
      </trkpt>
      <trkpt lat="43.72416" lon="7.16889">
        <ele>272.455</ele>
        <time>2018-11-26T15:39:51.040Z</time>
      </trkpt>
      <trkpt lat="43.72434" lon="7.16914">
        <ele>273.616</ele>
        <time>2018-11-26T15:39:53.668Z</time>
      </trkpt>
      <trkpt lat="43.72464" lon="7.16922">
        <ele>274.179</ele>
        <time>2018-11-26T15:39:56.440Z</time>
      </trkpt>
      <trkpt lat="43.72499" lon="7.16924">
        <ele>274.419</ele>
        <time>2018-11-26T15:39:59.348Z</time>
      </trkpt>
      <trkpt lat="43.72533" lon="7.16929">
        <ele>274.733</ele>
        <time>2018-11-26T15:40:02.221Z</time>
      </trkpt>
      <trkpt lat="43.72566" lon="7.1694">
        <ele>275.155</ele>
        <time>2018-11-26T15:40:05.061Z</time>
      </trkpt>
      <trkpt lat="43.72598" lon="7.16953">
        <ele>275.639</ele>
        <time>2018-11-26T15:40:07.849Z</time>
      </trkpt>
      <trkpt lat="43.72632" lon="7.16964">
        <ele>276.17</ele>
        <time>2018-11-26T15:40:10.717Z</time>
      </trkpt>
      <trkpt lat="43.72668" lon="7.16964">
        <ele>276.573</ele>
        <time>2018-11-26T15:40:13.724Z</time>
      </trkpt>
      <trkpt lat="43.72698" lon="7.16964">
        <ele>276.739</ele>
        <time>2018-11-26T15:40:16.527Z</time>
      </trkpt>
      <trkpt lat="43.72723" lon="7.16965">
        <ele>276.803</ele>
        <time>2018-11-26T15:40:19.357Z</time>
      </trkpt>
      <trkpt lat="43.72743" lon="7.16966">
        <ele>276.906</ele>
        <time>2018-11-26T15:40:22.217Z</time>
      </trkpt>
      <trkpt lat="43.72757" lon="7.16962">
        <ele>277.058</ele>
        <time>2018-11-26T15:40:25.132Z</time>
      </trkpt>
      <trkpt lat="43.72768" lon="7.16961">
        <ele>277.182</ele>
        <time>2018-11-26T15:40:28.205Z</time>
      </trkpt>
      <trkpt lat="43.72778" lon="7.1696">
        <ele>277.25</ele>
        <time>2018-11-26T15:40:32.994Z</time>
      </trkpt>
      <trkpt lat="43.72778" lon="7.1696">
        <ele>277.274</ele>
        <time>2018-11-26T15:40:35.994Z</time>
      </trkpt>
      <trkpt lat="43.72778" lon="7.1696">
        <ele>277.232</ele>
        <time>2018-11-26T15:40:38.668Z</time>
      </trkpt>
      <trkpt lat="43.72804" lon="7.16951">
        <ele>276.997</ele>
        <time>2018-11-26T15:40:50.169Z</time>
      </trkpt>
      <trkpt lat="43.72825" lon="7.1694">
        <ele>276.984</ele>
        <time>2018-11-26T15:40:55.317Z</time>
      </trkpt>
      <trkpt lat="43.7285" lon="7.16931">
        <ele>277.089</ele>
        <time>2018-11-26T15:40:58.562Z</time>
      </trkpt>
      <trkpt lat="43.72876" lon="7.1692">
        <ele>277.216</ele>
        <time>2018-11-26T15:41:01.636Z</time>
      </trkpt>
      <trkpt lat="43.729" lon="7.16906">
        <ele>277.281</ele>
        <time>2018-11-26T15:41:04.534Z</time>
      </trkpt>
      <trkpt lat="43.72928" lon="7.16891">
        <ele>277.293</ele>
        <time>2018-11-26T15:41:07.631Z</time>
      </trkpt>
      <trkpt lat="43.72958" lon="7.16874">
        <ele>277.283</ele>
        <time>2018-11-26T15:41:10.732Z</time>
      </trkpt>
      <trkpt lat="43.72988" lon="7.16853">
        <ele>277.272</ele>
        <time>2018-11-26T15:41:13.828Z</time>
      </trkpt>
      <trkpt lat="43.73017" lon="7.16825">
        <ele>277.266</ele>
        <time>2018-11-26T15:41:16.976Z</time>
      </trkpt>
      <trkpt lat="43.73044" lon="7.16791">
        <ele>277.3</ele>
        <time>2018-11-26T15:41:20.215Z</time>
      </trkpt>
      <trkpt lat="43.73065" lon="7.16759">
        <ele>277.643</ele>
        <time>2018-11-26T15:41:23.285Z</time>
      </trkpt>
      <trkpt lat="43.73077" lon="7.16727">
        <ele>278.527</ele>
        <time>2018-11-26T15:41:26.167Z</time>
      </trkpt>
      <trkpt lat="43.73089" lon="7.16693">
        <ele>279.658</ele>
        <time>2018-11-26T15:41:29.286Z</time>
      </trkpt>
      <trkpt lat="43.73101" lon="7.16658">
        <ele>280.538</ele>
        <time>2018-11-26T15:41:32.531Z</time>
      </trkpt>
      <trkpt lat="43.73111" lon="7.16627">
        <ele>281.03</ele>
        <time>2018-11-26T15:41:35.561Z</time>
      </trkpt>
      <trkpt lat="43.73121" lon="7.16598">
        <ele>281.26</ele>
        <time>2018-11-26T15:41:38.507Z</time>
      </trkpt>
      <trkpt lat="43.73129" lon="7.16569">
        <ele>281.408</ele>
        <time>2018-11-26T15:41:41.484Z</time>
      </trkpt>
      <trkpt lat="43.73138" lon="7.16538">
        <ele>281.686</ele>
        <time>2018-11-26T15:41:44.593Z</time>
      </trkpt>
      <trkpt lat="43.73145" lon="7.1651">
        <ele>282.291</ele>
        <time>2018-11-26T15:41:47.848Z</time>
      </trkpt>
      <trkpt lat="43.73151" lon="7.16489">
        <ele>283.224</ele>
        <time>2018-11-26T15:41:50.668Z</time>
      </trkpt>
      <trkpt lat="43.73156" lon="7.1647">
        <ele>284.236</ele>
        <time>2018-11-26T15:41:53.368Z</time>
      </trkpt>
      <trkpt lat="43.73165" lon="7.16445">
        <ele>285.026</ele>
        <time>2018-11-26T15:41:56.496Z</time>
      </trkpt>
      <trkpt lat="43.73178" lon="7.16415">
        <ele>285.465</ele>
        <time>2018-11-26T15:41:59.526Z</time>
      </trkpt>
      <trkpt lat="43.73194" lon="7.16382">
        <ele>285.63</ele>
        <time>2018-11-26T15:42:02.601Z</time>
      </trkpt>
      <trkpt lat="43.73212" lon="7.16349">
        <ele>285.655</ele>
        <time>2018-11-26T15:42:05.623Z</time>
      </trkpt>
      <trkpt lat="43.73231" lon="7.16318">
        <ele>285.644</ele>
        <time>2018-11-26T15:42:08.620Z</time>
      </trkpt>
      <trkpt lat="43.7325" lon="7.16287">
        <ele>285.882</ele>
        <time>2018-11-26T15:42:11.678Z</time>
      </trkpt>
      <trkpt lat="43.73265" lon="7.16253">
        <ele>286.687</ele>
        <time>2018-11-26T15:42:14.732Z</time>
      </trkpt>
      <trkpt lat="43.73278" lon="7.1622">
        <ele>287.87</ele>
        <time>2018-11-26T15:42:17.722Z</time>
      </trkpt>
      <trkpt lat="43.7329" lon="7.16186">
        <ele>288.934</ele>
        <time>2018-11-26T15:42:20.539Z</time>
      </trkpt>
      <trkpt lat="43.73301" lon="7.16144">
        <ele>289.614</ele>
        <time>2018-11-26T15:42:23.556Z</time>
      </trkpt>
      <trkpt lat="43.73307" lon="7.16112">
        <ele>290.003</ele>
        <time>2018-11-26T15:42:25.621Z</time>
      </trkpt>
      <trkpt lat="43.73311" lon="7.16079">
        <ele>290.482</ele>
        <time>2018-11-26T15:42:27.640Z</time>
      </trkpt>
      <trkpt lat="43.73313" lon="7.16047">
        <ele>291.278</ele>
        <time>2018-11-26T15:42:29.611Z</time>
      </trkpt>
      <trkpt lat="43.73313" lon="7.16015">
        <ele>292.279</ele>
        <time>2018-11-26T15:42:31.586Z</time>
      </trkpt>
      <trkpt lat="43.73313" lon="7.15983">
        <ele>293.388</ele>
        <time>2018-11-26T15:42:33.598Z</time>
      </trkpt>
      <trkpt lat="43.73306" lon="7.15954">
        <ele>294.713</ele>
        <time>2018-11-26T15:42:35.633Z</time>
      </trkpt>
      <trkpt lat="43.73305" lon="7.15925">
        <ele>296.353</ele>
        <time>2018-11-26T15:42:37.555Z</time>
      </trkpt>
      <trkpt lat="43.73303" lon="7.15895">
        <ele>298.154</ele>
        <time>2018-11-26T15:42:39.543Z</time>
      </trkpt>
      <trkpt lat="43.73302" lon="7.15864">
        <ele>299.804</ele>
        <time>2018-11-26T15:42:41.550Z</time>
      </trkpt>
      <trkpt lat="43.73299" lon="7.15834">
        <ele>301.271</ele>
        <time>2018-11-26T15:42:43.496Z</time>
      </trkpt>
      <trkpt lat="43.7329" lon="7.15803">
        <ele>302.729</ele>
        <time>2018-11-26T15:42:45.504Z</time>
      </trkpt>
      <trkpt lat="43.73278" lon="7.15772">
        <ele>304.114</ele>
        <time>2018-11-26T15:42:47.519Z</time>
      </trkpt>
      <trkpt lat="43.73264" lon="7.15742">
        <ele>305.182</ele>
        <time>2018-11-26T15:42:49.520Z</time>
      </trkpt>
      <trkpt lat="43.73252" lon="7.15711">
        <ele>305.846</ele>
        <time>2018-11-26T15:42:51.497Z</time>
      </trkpt>
      <trkpt lat="43.73241" lon="7.1568">
        <ele>306.191</ele>
        <time>2018-11-26T15:42:53.474Z</time>
      </trkpt>
      <trkpt lat="43.73235" lon="7.1565">
        <ele>306.348</ele>
        <time>2018-11-26T15:42:55.427Z</time>
      </trkpt>
      <trkpt lat="43.73231" lon="7.15623">
        <ele>306.419</ele>
        <time>2018-11-26T15:42:57.220Z</time>
      </trkpt>
      <trkpt lat="43.73229" lon="7.15594">
        <ele>306.458</ele>
        <time>2018-11-26T15:42:59.204Z</time>
      </trkpt>
      <trkpt lat="43.73229" lon="7.15567">
        <ele>306.482</ele>
        <time>2018-11-26T15:43:01.236Z</time>
      </trkpt>
      <trkpt lat="43.73233" lon="7.15538">
        <ele>306.499</ele>
        <time>2018-11-26T15:43:04.009Z</time>
      </trkpt>
      <trkpt lat="43.73235" lon="7.15523">
        <ele>306.538</ele>
        <time>2018-11-26T15:43:05.998Z</time>
      </trkpt>
      <trkpt lat="43.73235" lon="7.15523">
        <ele>306.619</ele>
        <time>2018-11-26T15:43:10.998Z</time>
      </trkpt>
      <trkpt lat="43.73235" lon="7.15523">
        <ele>306.634</ele>
        <time>2018-11-26T15:43:12.469Z</time>
      </trkpt>
      <trkpt lat="43.73241" lon="7.15511">
        <ele>306.506</ele>
        <time>2018-11-26T15:43:20.332Z</time>
      </trkpt>
      <trkpt lat="43.73253" lon="7.15482">
        <ele>306.738</ele>
        <time>2018-11-26T15:43:24.204Z</time>
      </trkpt>
      <trkpt lat="43.7327" lon="7.15445">
        <ele>307.77</ele>
        <time>2018-11-26T15:43:27.511Z</time>
      </trkpt>
      <trkpt lat="43.73287" lon="7.15406">
        <ele>309.107</ele>
        <time>2018-11-26T15:43:30.429Z</time>
      </trkpt>
      <trkpt lat="43.73313" lon="7.15375">
        <ele>310.069</ele>
        <time>2018-11-26T15:43:33.280Z</time>
      </trkpt>
      <trkpt lat="43.73349" lon="7.15361">
        <ele>310.663</ele>
        <time>2018-11-26T15:43:36.348Z</time>
      </trkpt>
      <trkpt lat="43.73383" lon="7.15349">
        <ele>311.271</ele>
        <time>2018-11-26T15:43:39.274Z</time>
      </trkpt>
      <trkpt lat="43.7341" lon="7.15318">
        <ele>312.152</ele>
        <time>2018-11-26T15:43:42.383Z</time>
      </trkpt>
      <trkpt lat="43.73434" lon="7.15292">
        <ele>313.07</ele>
        <time>2018-11-26T15:43:45.228Z</time>
      </trkpt>
      <trkpt lat="43.73462" lon="7.1527">
        <ele>313.922</ele>
        <time>2018-11-26T15:43:48.415Z</time>
      </trkpt>
      <trkpt lat="43.73486" lon="7.1525">
        <ele>315.003</ele>
        <time>2018-11-26T15:43:51.455Z</time>
      </trkpt>
      <trkpt lat="43.73505" lon="7.15226">
        <ele>316.216</ele>
        <time>2018-11-26T15:43:54.524Z</time>
      </trkpt>
      <trkpt lat="43.73519" lon="7.15202">
        <ele>317.067</ele>
        <time>2018-11-26T15:43:57.685Z</time>
      </trkpt>
      <trkpt lat="43.73531" lon="7.15182">
        <ele>317.482</ele>
        <time>2018-11-26T15:44:00.613Z</time>
      </trkpt>
      <trkpt lat="43.73544" lon="7.15164">
        <ele>317.834</ele>
        <time>2018-11-26T15:44:03.314Z</time>
      </trkpt>
      <trkpt lat="43.7356" lon="7.15138">
        <ele>318.476</ele>
        <time>2018-11-26T15:44:06.332Z</time>
      </trkpt>
      <trkpt lat="43.73576" lon="7.1511">
        <ele>319.43</ele>
        <time>2018-11-26T15:44:09.364Z</time>
      </trkpt>
      <trkpt lat="43.73587" lon="7.1508">
        <ele>320.548</ele>
        <time>2018-11-26T15:44:12.529Z</time>
      </trkpt>
      <trkpt lat="43.73597" lon="7.15053">
        <ele>321.629</ele>
        <time>2018-11-26T15:44:15.589Z</time>
      </trkpt>
      <trkpt lat="43.73617" lon="7.15042">
        <ele>322.391</ele>
        <time>2018-11-26T15:44:18.649Z</time>
      </trkpt>
      <trkpt lat="43.7364" lon="7.15047">
        <ele>322.62</ele>
        <time>2018-11-26T15:44:21.663Z</time>
      </trkpt>
      <trkpt lat="43.73663" lon="7.15051">
        <ele>322.34</ele>
        <time>2018-11-26T15:44:24.736Z</time>
      </trkpt>
      <trkpt lat="43.73685" lon="7.1505">
        <ele>321.732</ele>
        <time>2018-11-26T15:44:27.925Z</time>
      </trkpt>
      <trkpt lat="43.73704" lon="7.1504">
        <ele>321.029</ele>
        <time>2018-11-26T15:44:30.971Z</time>
      </trkpt>
      <trkpt lat="43.73722" lon="7.15024">
        <ele>320.448</ele>
        <time>2018-11-26T15:44:34.145Z</time>
      </trkpt>
      <trkpt lat="43.73738" lon="7.15008">
        <ele>320.12</ele>
        <time>2018-11-26T15:44:36.923Z</time>
      </trkpt>
      <trkpt lat="43.73756" lon="7.14991">
        <ele>319.985</ele>
        <time>2018-11-26T15:44:39.293Z</time>
      </trkpt>
      <trkpt lat="43.73783" lon="7.14968">
        <ele>319.89</ele>
        <time>2018-11-26T15:44:42.317Z</time>
      </trkpt>
      <trkpt lat="43.7381" lon="7.14937">
        <ele>319.755</ele>
        <time>2018-11-26T15:44:45.367Z</time>
      </trkpt>
      <trkpt lat="43.73839" lon="7.14905">
        <ele>319.598</ele>
        <time>2018-11-26T15:44:48.454Z</time>
      </trkpt>
      <trkpt lat="43.73866" lon="7.14872">
        <ele>319.466</ele>
        <time>2018-11-26T15:44:51.478Z</time>
      </trkpt>
      <trkpt lat="43.73895" lon="7.14846">
        <ele>319.198</ele>
        <time>2018-11-26T15:44:54.381Z</time>
      </trkpt>
      <trkpt lat="43.73927" lon="7.14826">
        <ele>318.571</ele>
        <time>2018-11-26T15:44:57.359Z</time>
      </trkpt>
      <trkpt lat="43.73959" lon="7.14807">
        <ele>317.669</ele>
        <time>2018-11-26T15:45:00.341Z</time>
      </trkpt>
      <trkpt lat="43.7399" lon="7.1479">
        <ele>316.636</ele>
        <time>2018-11-26T15:45:03.280Z</time>
      </trkpt>
      <trkpt lat="43.7402" lon="7.14772">
        <ele>315.399</ele>
        <time>2018-11-26T15:45:06.250Z</time>
      </trkpt>
      <trkpt lat="43.74047" lon="7.14753">
        <ele>313.919</ele>
        <time>2018-11-26T15:45:09.008Z</time>
      </trkpt>
      <trkpt lat="43.74068" lon="7.14714">
        <ele>312.227</ele>
        <time>2018-11-26T15:45:12.054Z</time>
      </trkpt>
      <trkpt lat="43.74091" lon="7.14675">
        <ele>310.517</ele>
        <time>2018-11-26T15:45:15.062Z</time>
      </trkpt>
      <trkpt lat="43.74116" lon="7.14639">
        <ele>309.236</ele>
        <time>2018-11-26T15:45:18.105Z</time>
      </trkpt>
      <trkpt lat="43.74145" lon="7.1461">
        <ele>308.629</ele>
        <time>2018-11-26T15:45:21.222Z</time>
      </trkpt>
      <trkpt lat="43.7417" lon="7.14582">
        <ele>308.399</ele>
        <time>2018-11-26T15:45:24.317Z</time>
      </trkpt>
      <trkpt lat="43.74191" lon="7.14555">
        <ele>308.053</ele>
        <time>2018-11-26T15:45:27.382Z</time>
      </trkpt>
      <trkpt lat="43.74209" lon="7.1453">
        <ele>307.329</ele>
        <time>2018-11-26T15:45:30.568Z</time>
      </trkpt>
      <trkpt lat="43.74222" lon="7.1451">
        <ele>306.289</ele>
        <time>2018-11-26T15:45:33.889Z</time>
      </trkpt>
      <trkpt lat="43.74232" lon="7.14496">
        <ele>305.186</ele>
        <time>2018-11-26T15:45:37.054Z</time>
      </trkpt>
      <trkpt lat="43.74242" lon="7.14484">
        <ele>304.206</ele>
        <time>2018-11-26T15:45:40.529Z</time>
      </trkpt>
      <trkpt lat="43.74252" lon="7.14475">
        <ele>303.444</ele>
        <time>2018-11-26T15:45:43.144Z</time>
      </trkpt>
      <trkpt lat="43.7427" lon="7.14466">
        <ele>302.979</ele>
        <time>2018-11-26T15:45:46.281Z</time>
      </trkpt>
      <trkpt lat="43.74289" lon="7.14462">
        <ele>302.757</ele>
        <time>2018-11-26T15:45:49.590Z</time>
      </trkpt>
      <trkpt lat="43.74301" lon="7.1446">
        <ele>302.613</ele>
        <time>2018-11-26T15:45:52.370Z</time>
      </trkpt>
      <trkpt lat="43.74315" lon="7.14461">
        <ele>302.498</ele>
        <time>2018-11-26T15:45:54.992Z</time>
      </trkpt>
      <trkpt lat="43.74331" lon="7.14475">
        <ele>302.445</ele>
        <time>2018-11-26T15:45:58.217Z</time>
      </trkpt>
      <trkpt lat="43.74339" lon="7.14498">
        <ele>302.611</ele>
        <time>2018-11-26T15:46:00.957Z</time>
      </trkpt>
      <trkpt lat="43.74346" lon="7.14527">
        <ele>303.104</ele>
        <time>2018-11-26T15:46:03.847Z</time>
      </trkpt>
      <trkpt lat="43.74352" lon="7.14559">
        <ele>303.721</ele>
        <time>2018-11-26T15:46:06.833Z</time>
      </trkpt>
      <trkpt lat="43.74358" lon="7.1459">
        <ele>304.17</ele>
        <time>2018-11-26T15:46:09.924Z</time>
      </trkpt>
      <trkpt lat="43.74366" lon="7.14613">
        <ele>304.405</ele>
        <time>2018-11-26T15:46:12.788Z</time>
      </trkpt>
      <trkpt lat="43.74375" lon="7.14635">
        <ele>304.517</ele>
        <time>2018-11-26T15:46:15.828Z</time>
      </trkpt>
      <trkpt lat="43.74382" lon="7.14654">
        <ele>304.546</ele>
        <time>2018-11-26T15:46:18.295Z</time>
      </trkpt>
      <trkpt lat="43.74397" lon="7.1468">
        <ele>304.496</ele>
        <time>2018-11-26T15:46:21.358Z</time>
      </trkpt>
      <trkpt lat="43.74417" lon="7.14713">
        <ele>304.543</ele>
        <time>2018-11-26T15:46:24.476Z</time>
      </trkpt>
      <trkpt lat="43.7444" lon="7.14748">
        <ele>304.81</ele>
        <time>2018-11-26T15:46:27.604Z</time>
      </trkpt>
      <trkpt lat="43.74461" lon="7.14783">
        <ele>305.134</ele>
        <time>2018-11-26T15:46:30.576Z</time>
      </trkpt>
      <trkpt lat="43.74481" lon="7.14818">
        <ele>305.33</ele>
        <time>2018-11-26T15:46:33.537Z</time>
      </trkpt>
      <trkpt lat="43.74501" lon="7.14851">
        <ele>305.25</ele>
        <time>2018-11-26T15:46:36.623Z</time>
      </trkpt>
      <trkpt lat="43.74523" lon="7.14875">
        <ele>304.729</ele>
        <time>2018-11-26T15:46:39.534Z</time>
      </trkpt>
      <trkpt lat="43.74543" lon="7.14899">
        <ele>303.888</ele>
        <time>2018-11-26T15:46:42.506Z</time>
      </trkpt>
      <trkpt lat="43.74561" lon="7.14924">
        <ele>303.126</ele>
        <time>2018-11-26T15:46:45.488Z</time>
      </trkpt>
      <trkpt lat="43.74571" lon="7.1495">
        <ele>302.716</ele>
        <time>2018-11-26T15:46:48.265Z</time>
      </trkpt>
      <trkpt lat="43.74582" lon="7.14977">
        <ele>302.592</ele>
        <time>2018-11-26T15:46:51.236Z</time>
      </trkpt>
      <trkpt lat="43.74592" lon="7.15006">
        <ele>302.559</ele>
        <time>2018-11-26T15:46:54.251Z</time>
      </trkpt>
      <trkpt lat="43.74601" lon="7.15031">
        <ele>302.516</ele>
        <time>2018-11-26T15:46:57.174Z</time>
      </trkpt>
      <trkpt lat="43.74609" lon="7.15054">
        <ele>302.433</ele>
        <time>2018-11-26T15:46:59.965Z</time>
      </trkpt>
      <trkpt lat="43.74616" lon="7.15081">
        <ele>302.221</ele>
        <time>2018-11-26T15:47:02.856Z</time>
      </trkpt>
      <trkpt lat="43.74624" lon="7.15112">
        <ele>301.847</ele>
        <time>2018-11-26T15:47:05.906Z</time>
      </trkpt>
      <trkpt lat="43.74631" lon="7.15143">
        <ele>301.383</ele>
        <time>2018-11-26T15:47:08.864Z</time>
      </trkpt>
      <trkpt lat="43.74636" lon="7.15174">
        <ele>300.948</ele>
        <time>2018-11-26T15:47:11.867Z</time>
      </trkpt>
      <trkpt lat="43.74639" lon="7.15201">
        <ele>300.654</ele>
        <time>2018-11-26T15:47:14.701Z</time>
      </trkpt>
      <trkpt lat="43.74639" lon="7.15227">
        <ele>300.471</ele>
        <time>2018-11-26T15:47:17.524Z</time>
      </trkpt>
      <trkpt lat="43.74637" lon="7.15256">
        <ele>300.139</ele>
        <time>2018-11-26T15:47:20.653Z</time>
      </trkpt>
      <trkpt lat="43.74637" lon="7.15285">
        <ele>299.53</ele>
        <time>2018-11-26T15:47:23.741Z</time>
      </trkpt>
      <trkpt lat="43.74639" lon="7.15311">
        <ele>298.818</ele>
        <time>2018-11-26T15:47:26.534Z</time>
      </trkpt>
      <trkpt lat="43.74643" lon="7.15342">
        <ele>298.24</ele>
        <time>2018-11-26T15:47:29.683Z</time>
      </trkpt>
      <trkpt lat="43.74645" lon="7.15376">
        <ele>297.777</ele>
        <time>2018-11-26T15:47:32.802Z</time>
      </trkpt>
      <trkpt lat="43.74635" lon="7.15409">
        <ele>297.338</ele>
        <time>2018-11-26T15:47:35.857Z</time>
      </trkpt>
      <trkpt lat="43.74624" lon="7.15437">
        <ele>297.032</ele>
        <time>2018-11-26T15:47:38.705Z</time>
      </trkpt>
      <trkpt lat="43.74611" lon="7.15465">
        <ele>296.964</ele>
        <time>2018-11-26T15:47:41.664Z</time>
      </trkpt>
      <trkpt lat="43.74599" lon="7.15493">
        <ele>297.02</ele>
        <time>2018-11-26T15:47:44.618Z</time>
      </trkpt>
      <trkpt lat="43.74586" lon="7.1552">
        <ele>297.092</ele>
        <time>2018-11-26T15:47:47.497Z</time>
      </trkpt>
      <trkpt lat="43.74573" lon="7.15547">
        <ele>297.149</ele>
        <time>2018-11-26T15:47:50.422Z</time>
      </trkpt>
      <trkpt lat="43.74555" lon="7.15586">
        <ele>296.97</ele>
        <time>2018-11-26T15:47:53.742Z</time>
      </trkpt>
      <trkpt lat="43.74541" lon="7.15631">
        <ele>296.309</ele>
        <time>2018-11-26T15:47:56.770Z</time>
      </trkpt>
      <trkpt lat="43.74542" lon="7.15677">
        <ele>295.275</ele>
        <time>2018-11-26T15:47:59.667Z</time>
      </trkpt>
      <trkpt lat="43.74554" lon="7.15723">
        <ele>294.125</ele>
        <time>2018-11-26T15:48:02.714Z</time>
      </trkpt>
      <trkpt lat="43.74569" lon="7.15769">
        <ele>293.114</ele>
        <time>2018-11-26T15:48:05.672Z</time>
      </trkpt>
      <trkpt lat="43.74575" lon="7.15814">
        <ele>292.573</ele>
        <time>2018-11-26T15:48:08.538Z</time>
      </trkpt>
      <trkpt lat="43.74563" lon="7.15857">
        <ele>292.536</ele>
        <time>2018-11-26T15:48:11.505Z</time>
      </trkpt>
      <trkpt lat="43.74539" lon="7.1589">
        <ele>292.66</ele>
        <time>2018-11-26T15:48:14.511Z</time>
      </trkpt>
      <trkpt lat="43.74519" lon="7.15921">
        <ele>292.584</ele>
        <time>2018-11-26T15:48:17.265Z</time>
      </trkpt>
      <trkpt lat="43.74521" lon="7.15966">
        <ele>292.147</ele>
        <time>2018-11-26T15:48:20.290Z</time>
      </trkpt>
      <trkpt lat="43.74536" lon="7.16014">
        <ele>291.305</ele>
        <time>2018-11-26T15:48:23.442Z</time>
      </trkpt>
      <trkpt lat="43.74554" lon="7.16063">
        <ele>290.129</ele>
        <time>2018-11-26T15:48:26.450Z</time>
      </trkpt>
      <trkpt lat="43.74565" lon="7.16112">
        <ele>288.972</ele>
        <time>2018-11-26T15:48:29.237Z</time>
      </trkpt>
      <trkpt lat="43.74581" lon="7.16158">
        <ele>288.197</ele>
        <time>2018-11-26T15:48:32.111Z</time>
      </trkpt>
      <trkpt lat="43.74611" lon="7.16198">
        <ele>287.748</ele>
        <time>2018-11-26T15:48:35.164Z</time>
      </trkpt>
      <trkpt lat="43.74641" lon="7.16231">
        <ele>287.434</ele>
        <time>2018-11-26T15:48:38.019Z</time>
      </trkpt>
      <trkpt lat="43.74676" lon="7.1626">
        <ele>287.272</ele>
        <time>2018-11-26T15:48:41.039Z</time>
      </trkpt>
      <trkpt lat="43.74706" lon="7.16284">
        <ele>287.288</ele>
        <time>2018-11-26T15:48:43.787Z</time>
      </trkpt>
      <trkpt lat="43.74734" lon="7.16291">
        <ele>287.248</ele>
        <time>2018-11-26T15:48:46.357Z</time>
      </trkpt>
      <trkpt lat="43.74758" lon="7.16281">
        <ele>286.968</ele>
        <time>2018-11-26T15:48:48.971Z</time>
      </trkpt>
      <trkpt lat="43.7478" lon="7.16275">
        <ele>286.62</ele>
        <time>2018-11-26T15:48:51.580Z</time>
      </trkpt>
      <trkpt lat="43.748" lon="7.16288">
        <ele>286.425</ele>
        <time>2018-11-26T15:48:54.461Z</time>
      </trkpt>
      <trkpt lat="43.74801" lon="7.16329">
        <ele>286.363</ele>
        <time>2018-11-26T15:48:58.074Z</time>
      </trkpt>
      <trkpt lat="43.74794" lon="7.16374">
        <ele>286.098</ele>
        <time>2018-11-26T15:49:01.425Z</time>
      </trkpt>
      <trkpt lat="43.74784" lon="7.16415">
        <ele>285.447</ele>
        <time>2018-11-26T15:49:04.298Z</time>
      </trkpt>
      <trkpt lat="43.74777" lon="7.16451">
        <ele>284.946</ele>
        <time>2018-11-26T15:49:06.981Z</time>
      </trkpt>
      <trkpt lat="43.74779" lon="7.16485">
        <ele>285.049</ele>
        <time>2018-11-26T15:49:09.625Z</time>
      </trkpt>
      <trkpt lat="43.74789" lon="7.16518">
        <ele>285.387</ele>
        <time>2018-11-26T15:49:12.581Z</time>
      </trkpt>
      <trkpt lat="43.74801" lon="7.16555">
        <ele>285.439</ele>
        <time>2018-11-26T15:49:15.850Z</time>
      </trkpt>
      <trkpt lat="43.7481" lon="7.1659">
        <ele>285.101</ele>
        <time>2018-11-26T15:49:18.675Z</time>
      </trkpt>
      <trkpt lat="43.74822" lon="7.16625">
        <ele>284.539</ele>
        <time>2018-11-26T15:49:21.621Z</time>
      </trkpt>
      <trkpt lat="43.74841" lon="7.16652">
        <ele>283.789</ele>
        <time>2018-11-26T15:49:24.536Z</time>
      </trkpt>
      <trkpt lat="43.74871" lon="7.16659">
        <ele>282.732</ele>
        <time>2018-11-26T15:49:27.790Z</time>
      </trkpt>
      <trkpt lat="43.74894" lon="7.1666">
        <ele>281.296</ele>
        <time>2018-11-26T15:49:29.979Z</time>
      </trkpt>
      <trkpt lat="43.74916" lon="7.1665">
        <ele>279.571</ele>
        <time>2018-11-26T15:49:32.067Z</time>
      </trkpt>
      <trkpt lat="43.74937" lon="7.16631">
        <ele>278.01</ele>
        <time>2018-11-26T15:49:34.187Z</time>
      </trkpt>
      <trkpt lat="43.74961" lon="7.16616">
        <ele>277.292</ele>
        <time>2018-11-26T15:49:36.299Z</time>
      </trkpt>
      <trkpt lat="43.74988" lon="7.16612">
        <ele>277.773</ele>
        <time>2018-11-26T15:49:38.329Z</time>
      </trkpt>
      <trkpt lat="43.75017" lon="7.16611">
        <ele>279.086</ele>
        <time>2018-11-26T15:49:40.377Z</time>
      </trkpt>
      <trkpt lat="43.75043" lon="7.16605">
        <ele>280.358</ele>
        <time>2018-11-26T15:49:42.335Z</time>
      </trkpt>
      <trkpt lat="43.75066" lon="7.16588">
        <ele>280.879</ele>
        <time>2018-11-26T15:49:44.264Z</time>
      </trkpt>
      <trkpt lat="43.75088" lon="7.16576">
        <ele>280.618</ele>
        <time>2018-11-26T15:49:46.043Z</time>
      </trkpt>
      <trkpt lat="43.75112" lon="7.16567">
        <ele>280.089</ele>
        <time>2018-11-26T15:49:48.106Z</time>
      </trkpt>
      <trkpt lat="43.75137" lon="7.16575">
        <ele>279.863</ele>
        <time>2018-11-26T15:49:50.228Z</time>
      </trkpt>
      <trkpt lat="43.75163" lon="7.16598">
        <ele>280.139</ele>
        <time>2018-11-26T15:49:52.560Z</time>
      </trkpt>
      <trkpt lat="43.7519" lon="7.16622">
        <ele>280.667</ele>
        <time>2018-11-26T15:49:54.728Z</time>
      </trkpt>
      <trkpt lat="43.75218" lon="7.16646">
        <ele>281.058</ele>
        <time>2018-11-26T15:49:56.783Z</time>
      </trkpt>
      <trkpt lat="43.75245" lon="7.16668">
        <ele>281.243</ele>
        <time>2018-11-26T15:49:58.690Z</time>
      </trkpt>
      <trkpt lat="43.75269" lon="7.1668">
        <ele>281.347</ele>
        <time>2018-11-26T15:50:00.330Z</time>
      </trkpt>
      <trkpt lat="43.75294" lon="7.16696">
        <ele>281.334</ele>
        <time>2018-11-26T15:50:02.282Z</time>
      </trkpt>
      <trkpt lat="43.75323" lon="7.16721">
        <ele>281.146</ele>
        <time>2018-11-26T15:50:04.776Z</time>
      </trkpt>
      <trkpt lat="43.75349" lon="7.16753">
        <ele>280.929</ele>
        <time>2018-11-26T15:50:07.033Z</time>
      </trkpt>
      <trkpt lat="43.75382" lon="7.16796">
        <ele>280.792</ele>
        <time>2018-11-26T15:50:09.859Z</time>
      </trkpt>
      <trkpt lat="43.75412" lon="7.16834">
        <ele>280.212</ele>
        <time>2018-11-26T15:50:12.517Z</time>
      </trkpt>
      <trkpt lat="43.75452" lon="7.16855">
        <ele>278.575</ele>
        <time>2018-11-26T15:50:15.445Z</time>
      </trkpt>
      <trkpt lat="43.75489" lon="7.16874">
        <ele>276.445</ele>
        <time>2018-11-26T15:50:18.423Z</time>
      </trkpt>
      <trkpt lat="43.75507" lon="7.16924">
        <ele>275.117</ele>
        <time>2018-11-26T15:50:21.530Z</time>
      </trkpt>
      <trkpt lat="43.75521" lon="7.16969">
        <ele>275.266</ele>
        <time>2018-11-26T15:50:24.406Z</time>
      </trkpt>
      <trkpt lat="43.75525" lon="7.17026">
        <ele>276.621</ele>
        <time>2018-11-26T15:50:27.679Z</time>
      </trkpt>
      <trkpt lat="43.75535" lon="7.17085">
        <ele>278.195</ele>
        <time>2018-11-26T15:50:30.813Z</time>
      </trkpt>
      <trkpt lat="43.75555" lon="7.17136">
        <ele>279.052</ele>
        <time>2018-11-26T15:50:33.673Z</time>
      </trkpt>
      <trkpt lat="43.75577" lon="7.17182">
        <ele>278.879</ele>
        <time>2018-11-26T15:50:36.492Z</time>
      </trkpt>
      <trkpt lat="43.75597" lon="7.17232">
        <ele>278.026</ele>
        <time>2018-11-26T15:50:39.336Z</time>
      </trkpt>
      <trkpt lat="43.75615" lon="7.17291">
        <ele>277.124</ele>
        <time>2018-11-26T15:50:42.480Z</time>
      </trkpt>
      <trkpt lat="43.75627" lon="7.17366">
        <ele>276.33</ele>
        <time>2018-11-26T15:50:45.884Z</time>
      </trkpt>
      <trkpt lat="43.75629" lon="7.17435">
        <ele>275.445</ele>
        <time>2018-11-26T15:50:48.730Z</time>
      </trkpt>
      <trkpt lat="43.75644" lon="7.17501">
        <ele>274.447</ele>
        <time>2018-11-26T15:50:51.670Z</time>
      </trkpt>
      <trkpt lat="43.75661" lon="7.17556">
        <ele>273.364</ele>
        <time>2018-11-26T15:50:54.469Z</time>
      </trkpt>
      <trkpt lat="43.75671" lon="7.17597">
        <ele>272.153</ele>
        <time>2018-11-26T15:50:56.670Z</time>
      </trkpt>
      <trkpt lat="43.75676" lon="7.17632">
        <ele>270.701</ele>
        <time>2018-11-26T15:50:58.751Z</time>
      </trkpt>
      <trkpt lat="43.75681" lon="7.17655">
        <ele>269.021</ele>
        <time>2018-11-26T15:51:00.447Z</time>
      </trkpt>
      <trkpt lat="43.75687" lon="7.17681">
        <ele>267.347</ele>
        <time>2018-11-26T15:51:02.943Z</time>
      </trkpt>
      <trkpt lat="43.75701" lon="7.1771">
        <ele>265.882</ele>
        <time>2018-11-26T15:51:06.622Z</time>
      </trkpt>
      <trkpt lat="43.75721" lon="7.17735">
        <ele>264.765</ele>
        <time>2018-11-26T15:51:10.474Z</time>
      </trkpt>
      <trkpt lat="43.75742" lon="7.1775">
        <ele>264.047</ele>
        <time>2018-11-26T15:51:13.551Z</time>
      </trkpt>
      <trkpt lat="43.75766" lon="7.17758">
        <ele>263.607</ele>
        <time>2018-11-26T15:51:16.608Z</time>
      </trkpt>
      <trkpt lat="43.7579" lon="7.17754">
        <ele>263.365</ele>
        <time>2018-11-26T15:51:19.732Z</time>
      </trkpt>
      <trkpt lat="43.75814" lon="7.17753">
        <ele>263.287</ele>
        <time>2018-11-26T15:51:22.941Z</time>
      </trkpt>
      <trkpt lat="43.75837" lon="7.17743">
        <ele>263.153</ele>
        <time>2018-11-26T15:51:26.231Z</time>
      </trkpt>
      <trkpt lat="43.75853" lon="7.1772">
        <ele>262.668</ele>
        <time>2018-11-26T15:51:29.387Z</time>
      </trkpt>
      <trkpt lat="43.75864" lon="7.17704">
        <ele>261.868</ele>
        <time>2018-11-26T15:51:31.706Z</time>
      </trkpt>
      <trkpt lat="43.75879" lon="7.17682">
        <ele>260.979</ele>
        <time>2018-11-26T15:51:34.979Z</time>
      </trkpt>
      <trkpt lat="43.75887" lon="7.17651">
        <ele>260.05</ele>
        <time>2018-11-26T15:51:38.427Z</time>
      </trkpt>
      <trkpt lat="43.75892" lon="7.17622">
        <ele>259.199</ele>
        <time>2018-11-26T15:51:41.268Z</time>
      </trkpt>
      <trkpt lat="43.75897" lon="7.17597">
        <ele>258.776</ele>
        <time>2018-11-26T15:51:43.850Z</time>
      </trkpt>
      <trkpt lat="43.75904" lon="7.17575">
        <ele>259.178</ele>
        <time>2018-11-26T15:51:46.326Z</time>
      </trkpt>
      <trkpt lat="43.7592" lon="7.17564">
        <ele>260.399</ele>
        <time>2018-11-26T15:51:49.083Z</time>
      </trkpt>
      <trkpt lat="43.75944" lon="7.1757">
        <ele>261.842</ele>
        <time>2018-11-26T15:51:53.180Z</time>
      </trkpt>
      <trkpt lat="43.75962" lon="7.17574">
        <ele>262.858</ele>
        <time>2018-11-26T15:51:56.177Z</time>
      </trkpt>
      <trkpt lat="43.75977" lon="7.17582">
        <ele>263.242</ele>
        <time>2018-11-26T15:51:58.760Z</time>
      </trkpt>
      <trkpt lat="43.75988" lon="7.17591">
        <ele>263.066</ele>
        <time>2018-11-26T15:52:00.961Z</time>
      </trkpt>
      <trkpt lat="43.75999" lon="7.17594">
        <ele>262.612</ele>
        <time>2018-11-26T15:52:03.245Z</time>
      </trkpt>
      <trkpt lat="43.76007" lon="7.17611">
        <ele>262.283</ele>
        <time>2018-11-26T15:52:07.917Z</time>
      </trkpt>
      <trkpt lat="43.76023" lon="7.17605">
        <ele>262.264</ele>
        <time>2018-11-26T15:52:14.412Z</time>
      </trkpt>
      <trkpt lat="43.76039" lon="7.17589">
        <ele>262.25</ele>
        <time>2018-11-26T15:52:18.705Z</time>
      </trkpt>
      <trkpt lat="43.76051" lon="7.17573">
        <ele>261.906</ele>
        <time>2018-11-26T15:52:21.687Z</time>
      </trkpt>
      <trkpt lat="43.76061" lon="7.17551">
        <ele>261.352</ele>
        <time>2018-11-26T15:52:24.853Z</time>
      </trkpt>
      <trkpt lat="43.76077" lon="7.17528">
        <ele>260.895</ele>
        <time>2018-11-26T15:52:28.237Z</time>
      </trkpt>
      <trkpt lat="43.76091" lon="7.17509">
        <ele>260.499</ele>
        <time>2018-11-26T15:52:31.050Z</time>
      </trkpt>
      <trkpt lat="43.7611" lon="7.17493">
        <ele>259.811</ele>
        <time>2018-11-26T15:52:34.317Z</time>
      </trkpt>
      <trkpt lat="43.76132" lon="7.17497">
        <ele>258.727</ele>
        <time>2018-11-26T15:52:37.578Z</time>
      </trkpt>
      <trkpt lat="43.76155" lon="7.17509">
        <ele>257.589</ele>
        <time>2018-11-26T15:52:40.799Z</time>
      </trkpt>
      <trkpt lat="43.76176" lon="7.17524">
        <ele>256.469</ele>
        <time>2018-11-26T15:52:43.623Z</time>
      </trkpt>
      <trkpt lat="43.7619" lon="7.17549">
        <ele>255.145</ele>
        <time>2018-11-26T15:52:46.553Z</time>
      </trkpt>
      <trkpt lat="43.76203" lon="7.17557">
        <ele>253.721</ele>
        <time>2018-11-26T15:52:48.827Z</time>
      </trkpt>
      <trkpt lat="43.76223" lon="7.17554">
        <ele>252.328</ele>
        <time>2018-11-26T15:52:52.042Z</time>
      </trkpt>
      <trkpt lat="43.76249" lon="7.1756">
        <ele>250.949</ele>
        <time>2018-11-26T15:52:55.764Z</time>
      </trkpt>
      <trkpt lat="43.76261" lon="7.17572">
        <ele>249.845</ele>
        <time>2018-11-26T15:52:57.996Z</time>
      </trkpt>
      <trkpt lat="43.76261" lon="7.17572">
        <ele>249.318</ele>
        <time>2018-11-26T15:53:01.996Z</time>
      </trkpt>
      <trkpt lat="43.76261" lon="7.17572">
        <ele>249.275</ele>
        <time>2018-11-26T15:53:02.756Z</time>
      </trkpt>
      <trkpt lat="43.76265" lon="7.17585">
        <ele>249.34</ele>
        <time>2018-11-26T15:53:08.339Z</time>
      </trkpt>
      <trkpt lat="43.7628" lon="7.17601">
        <ele>249.055</ele>
        <time>2018-11-26T15:53:12.392Z</time>
      </trkpt>
      <trkpt lat="43.763" lon="7.17612">
        <ele>248.148</ele>
        <time>2018-11-26T15:53:15.585Z</time>
      </trkpt>
      <trkpt lat="43.76325" lon="7.17626">
        <ele>246.714</ele>
        <time>2018-11-26T15:53:18.906Z</time>
      </trkpt>
      <trkpt lat="43.76345" lon="7.17646">
        <ele>245.226</ele>
        <time>2018-11-26T15:53:21.974Z</time>
      </trkpt>
      <trkpt lat="43.76364" lon="7.17662">
        <ele>244.165</ele>
        <time>2018-11-26T15:53:24.676Z</time>
      </trkpt>
      <trkpt lat="43.76386" lon="7.17679">
        <ele>243.59</ele>
        <time>2018-11-26T15:53:27.754Z</time>
      </trkpt>
      <trkpt lat="43.76402" lon="7.17703">
        <ele>243.118</ele>
        <time>2018-11-26T15:53:30.778Z</time>
      </trkpt>
      <trkpt lat="43.76418" lon="7.17729">
        <ele>242.297</ele>
        <time>2018-11-26T15:53:33.960Z</time>
      </trkpt>
      <trkpt lat="43.76435" lon="7.17749">
        <ele>240.893</ele>
        <time>2018-11-26T15:53:37.055Z</time>
      </trkpt>
      <trkpt lat="43.76453" lon="7.1776">
        <ele>239.051</ele>
        <time>2018-11-26T15:53:39.955Z</time>
      </trkpt>
      <trkpt lat="43.76471" lon="7.17772">
        <ele>237.165</ele>
        <time>2018-11-26T15:53:43.020Z</time>
      </trkpt>
      <trkpt lat="43.76489" lon="7.17782">
        <ele>235.606</ele>
        <time>2018-11-26T15:53:46.084Z</time>
      </trkpt>
      <trkpt lat="43.76505" lon="7.17789">
        <ele>234.395</ele>
        <time>2018-11-26T15:53:48.761Z</time>
      </trkpt>
      <trkpt lat="43.76527" lon="7.1779">
        <ele>233.167</ele>
        <time>2018-11-26T15:53:51.283Z</time>
      </trkpt>
      <trkpt lat="43.76549" lon="7.17812">
        <ele>231.691</ele>
        <time>2018-11-26T15:53:54.061Z</time>
      </trkpt>
      <trkpt lat="43.76576" lon="7.17833">
        <ele>230.258</ele>
        <time>2018-11-26T15:53:57.148Z</time>
      </trkpt>
      <trkpt lat="43.76598" lon="7.17858">
        <ele>229.024</ele>
        <time>2018-11-26T15:54:00.022Z</time>
      </trkpt>
      <trkpt lat="43.76608" lon="7.17901">
        <ele>227.839</ele>
        <time>2018-11-26T15:54:03.240Z</time>
      </trkpt>
      <trkpt lat="43.76628" lon="7.17933">
        <ele>226.672</ele>
        <time>2018-11-26T15:54:06.287Z</time>
      </trkpt>
      <trkpt lat="43.76655" lon="7.17942">
        <ele>225.493</ele>
        <time>2018-11-26T15:54:09.123Z</time>
      </trkpt>
      <trkpt lat="43.76684" lon="7.17928">
        <ele>224.334</ele>
        <time>2018-11-26T15:54:12.113Z</time>
      </trkpt>
      <trkpt lat="43.7671" lon="7.17901">
        <ele>223.249</ele>
        <time>2018-11-26T15:54:15.091Z</time>
      </trkpt>
      <trkpt lat="43.76739" lon="7.17884">
        <ele>222.237</ele>
        <time>2018-11-26T15:54:18.044Z</time>
      </trkpt>
      <trkpt lat="43.7677" lon="7.1787">
        <ele>221.515</ele>
        <time>2018-11-26T15:54:20.991Z</time>
      </trkpt>
      <trkpt lat="43.76796" lon="7.1785">
        <ele>221.026</ele>
        <time>2018-11-26T15:54:24.044Z</time>
      </trkpt>
      <trkpt lat="43.76811" lon="7.17823">
        <ele>220.023</ele>
        <time>2018-11-26T15:54:26.751Z</time>
      </trkpt>
      <trkpt lat="43.76816" lon="7.17782">
        <ele>218.138</ele>
        <time>2018-11-26T15:54:30.022Z</time>
      </trkpt>
      <trkpt lat="43.76817" lon="7.17746">
        <ele>215.901</ele>
        <time>2018-11-26T15:54:33.235Z</time>
      </trkpt>
      <trkpt lat="43.76821" lon="7.1772">
        <ele>213.955</ele>
        <time>2018-11-26T15:54:36.615Z</time>
      </trkpt>
      <trkpt lat="43.76837" lon="7.17719">
        <ele>212.61</ele>
        <time>2018-11-26T15:54:39.801Z</time>
      </trkpt>
      <trkpt lat="43.76841" lon="7.17744">
        <ele>211.958</ele>
        <time>2018-11-26T15:54:42.135Z</time>
      </trkpt>
      <trkpt lat="43.76853" lon="7.17788">
        <ele>211.298</ele>
        <time>2018-11-26T15:54:45.319Z</time>
      </trkpt>
      <trkpt lat="43.76866" lon="7.17834">
        <ele>209.692</ele>
        <time>2018-11-26T15:54:48.439Z</time>
      </trkpt>
      <trkpt lat="43.76876" lon="7.1788">
        <ele>207</ele>
        <time>2018-11-26T15:54:51.413Z</time>
      </trkpt>
      <trkpt lat="43.76887" lon="7.17927">
        <ele>203.79</ele>
        <time>2018-11-26T15:54:54.670Z</time>
      </trkpt>
      <trkpt lat="43.76886" lon="7.1797">
        <ele>200.782</ele>
        <time>2018-11-26T15:54:57.824Z</time>
      </trkpt>
      <trkpt lat="43.76899" lon="7.18006">
        <ele>198.39</ele>
        <time>2018-11-26T15:55:00.777Z</time>
      </trkpt>
      <trkpt lat="43.76928" lon="7.18022">
        <ele>196.447</ele>
        <time>2018-11-26T15:55:03.793Z</time>
      </trkpt>
      <trkpt lat="43.7696" lon="7.18025">
        <ele>194.372</ele>
        <time>2018-11-26T15:55:07.395Z</time>
      </trkpt>
      <trkpt lat="43.76977" lon="7.18047">
        <ele>192.074</ele>
        <time>2018-11-26T15:55:10.406Z</time>
      </trkpt>
      <trkpt lat="43.76964" lon="7.18077">
        <ele>190.306</ele>
        <time>2018-11-26T15:55:13.162Z</time>
      </trkpt>
      <trkpt lat="43.76964" lon="7.18114">
        <ele>189.224</ele>
        <time>2018-11-26T15:55:15.668Z</time>
      </trkpt>
      <trkpt lat="43.76986" lon="7.18152">
        <ele>187.934</ele>
        <time>2018-11-26T15:55:18.733Z</time>
      </trkpt>
      <trkpt lat="43.77019" lon="7.18172">
        <ele>185.817</ele>
        <time>2018-11-26T15:55:21.672Z</time>
      </trkpt>
      <trkpt lat="43.77055" lon="7.18189">
        <ele>183.353</ele>
        <time>2018-11-26T15:55:24.857Z</time>
      </trkpt>
      <trkpt lat="43.77083" lon="7.18217">
        <ele>181.544</ele>
        <time>2018-11-26T15:55:28.252Z</time>
      </trkpt>
      <trkpt lat="43.77099" lon="7.18253">
        <ele>180.596</ele>
        <time>2018-11-26T15:55:31.437Z</time>
      </trkpt>
      <trkpt lat="43.77083" lon="7.18286">
        <ele>179.932</ele>
        <time>2018-11-26T15:55:34.459Z</time>
      </trkpt>
      <trkpt lat="43.77061" lon="7.18309">
        <ele>179.261</ele>
        <time>2018-11-26T15:55:37.443Z</time>
      </trkpt>
      <trkpt lat="43.77062" lon="7.18344">
        <ele>178.628</ele>
        <time>2018-11-26T15:55:40.112Z</time>
      </trkpt>
      <trkpt lat="43.77087" lon="7.18367">
        <ele>177.431</ele>
        <time>2018-11-26T15:55:43.042Z</time>
      </trkpt>
      <trkpt lat="43.77106" lon="7.18402">
        <ele>175.161</ele>
        <time>2018-11-26T15:55:46.095Z</time>
      </trkpt>
      <trkpt lat="43.7712" lon="7.18445">
        <ele>172.726</ele>
        <time>2018-11-26T15:55:49.562Z</time>
      </trkpt>
      <trkpt lat="43.77139" lon="7.18476">
        <ele>170.867</ele>
        <time>2018-11-26T15:55:52.586Z</time>
      </trkpt>
      <trkpt lat="43.77155" lon="7.18511">
        <ele>168.914</ele>
        <time>2018-11-26T15:55:55.746Z</time>
      </trkpt>
      <trkpt lat="43.77158" lon="7.18552">
        <ele>166.589</ele>
        <time>2018-11-26T15:55:59.470Z</time>
      </trkpt>
      <trkpt lat="43.77169" lon="7.18575">
        <ele>164.338</ele>
        <time>2018-11-26T15:56:02.227Z</time>
      </trkpt>
      <trkpt lat="43.77192" lon="7.18571">
        <ele>162.289</ele>
        <time>2018-11-26T15:56:05.273Z</time>
      </trkpt>
      <trkpt lat="43.77212" lon="7.18584">
        <ele>160.396</ele>
        <time>2018-11-26T15:56:08.269Z</time>
      </trkpt>
      <trkpt lat="43.77222" lon="7.18613">
        <ele>158.904</ele>
        <time>2018-11-26T15:56:11.125Z</time>
      </trkpt>
      <trkpt lat="43.77241" lon="7.18633">
        <ele>157.767</ele>
        <time>2018-11-26T15:56:14.005Z</time>
      </trkpt>
      <trkpt lat="43.77269" lon="7.18636">
        <ele>156.381</ele>
        <time>2018-11-26T15:56:17.311Z</time>
      </trkpt>
      <trkpt lat="43.7729" lon="7.18632">
        <ele>154.221</ele>
        <time>2018-11-26T15:56:20.082Z</time>
      </trkpt>
      <trkpt lat="43.77314" lon="7.18637">
        <ele>151.394</ele>
        <time>2018-11-26T15:56:23.047Z</time>
      </trkpt>
      <trkpt lat="43.7732" lon="7.1867">
        <ele>148.529</ele>
        <time>2018-11-26T15:56:25.837Z</time>
      </trkpt>
      <trkpt lat="43.77304" lon="7.18692">
        <ele>146.463</ele>
        <time>2018-11-26T15:56:27.947Z</time>
      </trkpt>
      <trkpt lat="43.77266" lon="7.18708">
        <ele>145.569</ele>
        <time>2018-11-26T15:56:31.090Z</time>
      </trkpt>
      <trkpt lat="43.77232" lon="7.18724">
        <ele>145.488</ele>
        <time>2018-11-26T15:56:34.072Z</time>
      </trkpt>
      <trkpt lat="43.77196" lon="7.18733">
        <ele>145.456</ele>
        <time>2018-11-26T15:56:37.147Z</time>
      </trkpt>
      <trkpt lat="43.77174" lon="7.18743">
        <ele>144.684</ele>
        <time>2018-11-26T15:56:39.028Z</time>
      </trkpt>
      <trkpt lat="43.77153" lon="7.1876">
        <ele>142.942</ele>
        <time>2018-11-26T15:56:40.959Z</time>
      </trkpt>
      <trkpt lat="43.77131" lon="7.18782">
        <ele>140.697</ele>
        <time>2018-11-26T15:56:43.016Z</time>
      </trkpt>
      <trkpt lat="43.77107" lon="7.18809">
        <ele>138.562</ele>
        <time>2018-11-26T15:56:45.411Z</time>
      </trkpt>
      <trkpt lat="43.77084" lon="7.18825">
        <ele>136.869</ele>
        <time>2018-11-26T15:56:47.481Z</time>
      </trkpt>
      <trkpt lat="43.7706" lon="7.18829">
        <ele>135.588</ele>
        <time>2018-11-26T15:56:49.465Z</time>
      </trkpt>
      <trkpt lat="43.77037" lon="7.18839">
        <ele>134.348</ele>
        <time>2018-11-26T15:56:51.557Z</time>
      </trkpt>
      <trkpt lat="43.77014" lon="7.18846">
        <ele>132.719</ele>
        <time>2018-11-26T15:56:53.794Z</time>
      </trkpt>
      <trkpt lat="43.76994" lon="7.18848">
        <ele>130.614</ele>
        <time>2018-11-26T15:56:55.909Z</time>
      </trkpt>
      <trkpt lat="43.76975" lon="7.18852">
        <ele>128.35</ele>
        <time>2018-11-26T15:56:58.365Z</time>
      </trkpt>
      <trkpt lat="43.76959" lon="7.18856">
        <ele>126.26</ele>
        <time>2018-11-26T15:57:00.741Z</time>
      </trkpt>
      <trkpt lat="43.76948" lon="7.18872">
        <ele>124.424</ele>
        <time>2018-11-26T15:57:02.796Z</time>
      </trkpt>
      <trkpt lat="43.76947" lon="7.18894">
        <ele>122.799</ele>
        <time>2018-11-26T15:57:04.472Z</time>
      </trkpt>
      <trkpt lat="43.76961" lon="7.18909">
        <ele>121.433</ele>
        <time>2018-11-26T15:57:05.955Z</time>
      </trkpt>
      <trkpt lat="43.76983" lon="7.18915">
        <ele>120.423</ele>
        <time>2018-11-26T15:57:07.783Z</time>
      </trkpt>
      <trkpt lat="43.77008" lon="7.18908">
        <ele>119.313</ele>
        <time>2018-11-26T15:57:09.770Z</time>
      </trkpt>
      <trkpt lat="43.77032" lon="7.18908">
        <ele>117.427</ele>
        <time>2018-11-26T15:57:11.893Z</time>
      </trkpt>
      <trkpt lat="43.77055" lon="7.18908">
        <ele>115.202</ele>
        <time>2018-11-26T15:57:14.295Z</time>
      </trkpt>
      <trkpt lat="43.77077" lon="7.18902">
        <ele>113.726</ele>
        <time>2018-11-26T15:57:17.094Z</time>
      </trkpt>
      <trkpt lat="43.77099" lon="7.18889">
        <ele>113.231</ele>
        <time>2018-11-26T15:57:20.819Z</time>
      </trkpt>
      <trkpt lat="43.77122" lon="7.18891">
        <ele>113.42</ele>
        <time>2018-11-26T15:57:23.568Z</time>
      </trkpt>
      <trkpt lat="43.77122" lon="7.18915">
        <ele>114.044</ele>
        <time>2018-11-26T15:57:25.219Z</time>
      </trkpt>
      <trkpt lat="43.77095" lon="7.18947">
        <ele>114.733</ele>
        <time>2018-11-26T15:57:28.615Z</time>
      </trkpt>
      <trkpt lat="43.77073" lon="7.18974">
        <ele>115.095</ele>
        <time>2018-11-26T15:57:31.276Z</time>
      </trkpt>
      <trkpt lat="43.77043" lon="7.18984">
        <ele>114.772</ele>
        <time>2018-11-26T15:57:33.980Z</time>
      </trkpt>
      <trkpt lat="43.77011" lon="7.18989">
        <ele>113.468</ele>
        <time>2018-11-26T15:57:36.749Z</time>
      </trkpt>
      <trkpt lat="43.76976" lon="7.19">
        <ele>111.322</ele>
        <time>2018-11-26T15:57:39.892Z</time>
      </trkpt>
      <trkpt lat="43.76944" lon="7.18996">
        <ele>109.117</ele>
        <time>2018-11-26T15:57:42.826Z</time>
      </trkpt>
      <trkpt lat="43.76911" lon="7.19006">
        <ele>107.54</ele>
        <time>2018-11-26T15:57:45.821Z</time>
      </trkpt>
      <trkpt lat="43.7688" lon="7.18992">
        <ele>106.305</ele>
        <time>2018-11-26T15:57:48.430Z</time>
      </trkpt>
      <trkpt lat="43.76841" lon="7.18974">
        <ele>104.978</ele>
        <time>2018-11-26T15:57:51.498Z</time>
      </trkpt>
      <trkpt lat="43.76799" lon="7.1898">
        <ele>103.527</ele>
        <time>2018-11-26T15:57:54.802Z</time>
      </trkpt>
      <trkpt lat="43.76761" lon="7.18983">
        <ele>101.386</ele>
        <time>2018-11-26T15:57:57.854Z</time>
      </trkpt>
      <trkpt lat="43.76726" lon="7.1901">
        <ele>98.371</ele>
        <time>2018-11-26T15:58:00.999Z</time>
      </trkpt>
      <trkpt lat="43.76687" lon="7.1901">
        <ele>95.567</ele>
        <time>2018-11-26T15:58:04.112Z</time>
      </trkpt>
      <trkpt lat="43.7665" lon="7.19039">
        <ele>93.853</ele>
        <time>2018-11-26T15:58:07.460Z</time>
      </trkpt>
      <trkpt lat="43.76624" lon="7.19096">
        <ele>92.712</ele>
        <time>2018-11-26T15:58:11.888Z</time>
      </trkpt>
      <trkpt lat="43.76608" lon="7.19142">
        <ele>91.078</ele>
        <time>2018-11-26T15:58:16.090Z</time>
      </trkpt>
      <trkpt lat="43.76598" lon="7.19181">
        <ele>89.014</ele>
        <time>2018-11-26T15:58:20.201Z</time>
      </trkpt>
      <trkpt lat="43.76595" lon="7.19215">
        <ele>87.598</ele>
        <time>2018-11-26T15:58:23.205Z</time>
      </trkpt>
      <trkpt lat="43.76598" lon="7.19242">
        <ele>87.3</ele>
        <time>2018-11-26T15:58:25.253Z</time>
      </trkpt>
      <trkpt lat="43.76605" lon="7.1927">
        <ele>87.757</ele>
        <time>2018-11-26T15:58:27.368Z</time>
      </trkpt>
      <trkpt lat="43.76619" lon="7.19307">
        <ele>88.424</ele>
        <time>2018-11-26T15:58:30.326Z</time>
      </trkpt>
      <trkpt lat="43.76636" lon="7.19342">
        <ele>88.914</ele>
        <time>2018-11-26T15:58:33.331Z</time>
      </trkpt>
      <trkpt lat="43.76652" lon="7.19376">
        <ele>88.976</ele>
        <time>2018-11-26T15:58:36.241Z</time>
      </trkpt>
      <trkpt lat="43.76668" lon="7.19412">
        <ele>88.388</ele>
        <time>2018-11-26T15:58:39.201Z</time>
      </trkpt>
      <trkpt lat="43.76677" lon="7.19451">
        <ele>87.265</ele>
        <time>2018-11-26T15:58:41.900Z</time>
      </trkpt>
      <trkpt lat="43.76681" lon="7.19493">
        <ele>86.126</ele>
        <time>2018-11-26T15:58:44.777Z</time>
      </trkpt>
      <trkpt lat="43.76684" lon="7.19537">
        <ele>85.367</ele>
        <time>2018-11-26T15:58:47.940Z</time>
      </trkpt>
      <trkpt lat="43.76687" lon="7.1958">
        <ele>84.875</ele>
        <time>2018-11-26T15:58:51.530Z</time>
      </trkpt>
      <trkpt lat="43.76685" lon="7.19607">
        <ele>84.239</ele>
        <time>2018-11-26T15:58:54.374Z</time>
      </trkpt>
      <trkpt lat="43.76681" lon="7.19641">
        <ele>83.283</ele>
        <time>2018-11-26T15:58:58.265Z</time>
      </trkpt>
      <trkpt lat="43.7668" lon="7.19668">
        <ele>82.137</ele>
        <time>2018-11-26T15:59:01.472Z</time>
      </trkpt>
      <trkpt lat="43.76682" lon="7.19694">
        <ele>80.944</ele>
        <time>2018-11-26T15:59:04.841Z</time>
      </trkpt>
      <trkpt lat="43.76689" lon="7.19718">
        <ele>79.822</ele>
        <time>2018-11-26T15:59:08.440Z</time>
      </trkpt>
      <trkpt lat="43.76694" lon="7.1974">
        <ele>78.851</ele>
        <time>2018-11-26T15:59:11.410Z</time>
      </trkpt>
      <trkpt lat="43.76702" lon="7.1976">
        <ele>77.919</ele>
        <time>2018-11-26T15:59:14.108Z</time>
      </trkpt>
      <trkpt lat="43.76712" lon="7.19774">
        <ele>76.785</ele>
        <time>2018-11-26T15:59:16.880Z</time>
      </trkpt>
      <trkpt lat="43.7673" lon="7.19785">
        <ele>75.512</ele>
        <time>2018-11-26T15:59:21.443Z</time>
      </trkpt>
      <trkpt lat="43.76744" lon="7.198">
        <ele>74.564</ele>
        <time>2018-11-26T15:59:24.262Z</time>
      </trkpt>
      <trkpt lat="43.76753" lon="7.19813">
        <ele>74.29</ele>
        <time>2018-11-26T15:59:26.006Z</time>
      </trkpt>
      <trkpt lat="43.76762" lon="7.19822">
        <ele>74.621</ele>
        <time>2018-11-26T15:59:27.383Z</time>
      </trkpt>
      <trkpt lat="43.76769" lon="7.19847">
        <ele>75.178</ele>
        <time>2018-11-26T15:59:29.605Z</time>
      </trkpt>
      <trkpt lat="43.76767" lon="7.19878">
        <ele>75.511</ele>
        <time>2018-11-26T15:59:32.081Z</time>
      </trkpt>
      <trkpt lat="43.7675" lon="7.19909">
        <ele>75.264</ele>
        <time>2018-11-26T15:59:34.973Z</time>
      </trkpt>
      <trkpt lat="43.76733" lon="7.1994">
        <ele>74.223</ele>
        <time>2018-11-26T15:59:37.653Z</time>
      </trkpt>
      <trkpt lat="43.76716" lon="7.19974">
        <ele>72.454</ele>
        <time>2018-11-26T15:59:40.596Z</time>
      </trkpt>
      <trkpt lat="43.76697" lon="7.20011">
        <ele>70.321</ele>
        <time>2018-11-26T15:59:45.495Z</time>
      </trkpt>
      <trkpt lat="43.7668" lon="7.20042">
        <ele>68.37</ele>
        <time>2018-11-26T15:59:52.132Z</time>
      </trkpt>
      <trkpt lat="43.76668" lon="7.20059">
        <ele>67.085</ele>
        <time>2018-11-26T15:59:54.698Z</time>
      </trkpt>
      <trkpt lat="43.76661" lon="7.20068">
        <ele>66.445</ele>
        <time>2018-11-26T15:59:56.118Z</time>
      </trkpt>
      <trkpt lat="43.76647" lon="7.20066">
        <ele>66.052</ele>
        <time>2018-11-26T15:59:57.919Z</time>
      </trkpt>
      <trkpt lat="43.76625" lon="7.2007">
        <ele>65.71</ele>
        <time>2018-11-26T16:00:00.514Z</time>
      </trkpt>
      <trkpt lat="43.76609" lon="7.20093">
        <ele>65.404</ele>
        <time>2018-11-26T16:00:02.881Z</time>
      </trkpt>
      <trkpt lat="43.76602" lon="7.20132">
        <ele>65.047</ele>
        <time>2018-11-26T16:00:05.821Z</time>
      </trkpt>
      <trkpt lat="43.76592" lon="7.20171">
        <ele>64.65</ele>
        <time>2018-11-26T16:00:08.762Z</time>
      </trkpt>
      <trkpt lat="43.76576" lon="7.20205">
        <ele>64.346</ele>
        <time>2018-11-26T16:00:11.462Z</time>
      </trkpt>
      <trkpt lat="43.76556" lon="7.2024">
        <ele>63.931</ele>
        <time>2018-11-26T16:00:14.535Z</time>
      </trkpt>
      <trkpt lat="43.76536" lon="7.20274">
        <ele>63.221</ele>
        <time>2018-11-26T16:00:17.779Z</time>
      </trkpt>
      <trkpt lat="43.76517" lon="7.20307">
        <ele>62.624</ele>
        <time>2018-11-26T16:00:20.943Z</time>
      </trkpt>
      <trkpt lat="43.765" lon="7.20338">
        <ele>62.518</ele>
        <time>2018-11-26T16:00:23.835Z</time>
      </trkpt>
      <trkpt lat="43.76483" lon="7.20369">
        <ele>62.626</ele>
        <time>2018-11-26T16:00:26.699Z</time>
      </trkpt>
      <trkpt lat="43.76465" lon="7.20404">
        <ele>62.614</ele>
        <time>2018-11-26T16:00:30.459Z</time>
      </trkpt>
      <trkpt lat="43.76447" lon="7.20435">
        <ele>62.489</ele>
        <time>2018-11-26T16:00:36.078Z</time>
      </trkpt>
      <trkpt lat="43.76434" lon="7.20458">
        <ele>62.334</ele>
        <time>2018-11-26T16:00:41.835Z</time>
      </trkpt>
      <trkpt lat="43.76425" lon="7.20475">
        <ele>62.141</ele>
        <time>2018-11-26T16:00:43.959Z</time>
      </trkpt>
      <trkpt lat="43.76418" lon="7.20489">
        <ele>61.936</ele>
        <time>2018-11-26T16:00:45.467Z</time>
      </trkpt>
      <trkpt lat="43.76411" lon="7.20499">
        <ele>61.785</ele>
        <time>2018-11-26T16:00:46.411Z</time>
      </trkpt>
      <trkpt lat="43.76401" lon="7.20504">
        <ele>61.713</ele>
        <time>2018-11-26T16:00:47.405Z</time>
      </trkpt>
      <trkpt lat="43.76376" lon="7.20483">
        <ele>61.682</ele>
        <time>2018-11-26T16:00:49.850Z</time>
      </trkpt>
      <trkpt lat="43.76348" lon="7.20449">
        <ele>61.641</ele>
        <time>2018-11-26T16:00:52.591Z</time>
      </trkpt>
      <trkpt lat="43.76318" lon="7.20418">
        <ele>61.643</ele>
        <time>2018-11-26T16:00:55.135Z</time>
      </trkpt>
      <trkpt lat="43.76282" lon="7.20382">
        <ele>61.847</ele>
        <time>2018-11-26T16:00:57.912Z</time>
      </trkpt>
      <trkpt lat="43.76241" lon="7.20338">
        <ele>62.245</ele>
        <time>2018-11-26T16:01:01.004Z</time>
      </trkpt>
      <trkpt lat="43.76201" lon="7.20295">
        <ele>62.578</ele>
        <time>2018-11-26T16:01:04.076Z</time>
      </trkpt>
      <trkpt lat="43.76163" lon="7.20257">
        <ele>62.592</ele>
        <time>2018-11-26T16:01:06.918Z</time>
      </trkpt>
      <trkpt lat="43.76124" lon="7.20218">
        <ele>62.295</ele>
        <time>2018-11-26T16:01:09.846Z</time>
      </trkpt>
      <trkpt lat="43.76085" lon="7.20181">
        <ele>61.803</ele>
        <time>2018-11-26T16:01:12.730Z</time>
      </trkpt>
      <trkpt lat="43.76048" lon="7.20141">
        <ele>61.203</ele>
        <time>2018-11-26T16:01:15.584Z</time>
      </trkpt>
      <trkpt lat="43.76009" lon="7.20103">
        <ele>60.624</ele>
        <time>2018-11-26T16:01:18.509Z</time>
      </trkpt>
      <trkpt lat="43.7597" lon="7.20064">
        <ele>60.229</ele>
        <time>2018-11-26T16:01:21.455Z</time>
      </trkpt>
      <trkpt lat="43.7593" lon="7.20027">
        <ele>60.045</ele>
        <time>2018-11-26T16:01:24.355Z</time>
      </trkpt>
      <trkpt lat="43.75887" lon="7.19982">
        <ele>60.005</ele>
        <time>2018-11-26T16:01:27.521Z</time>
      </trkpt>
      <trkpt lat="43.7585" lon="7.19943">
        <ele>60.026</ele>
        <time>2018-11-26T16:01:30.351Z</time>
      </trkpt>
      <trkpt lat="43.75811" lon="7.19902">
        <ele>60.05</ele>
        <time>2018-11-26T16:01:33.350Z</time>
      </trkpt>
      <trkpt lat="43.75772" lon="7.19861">
        <ele>60.051</ele>
        <time>2018-11-26T16:01:36.280Z</time>
      </trkpt>
      <trkpt lat="43.7573" lon="7.19823">
        <ele>60.033</ele>
        <time>2018-11-26T16:01:39.688Z</time>
      </trkpt>
      <trkpt lat="43.75693" lon="7.19799">
        <ele>60.018</ele>
        <time>2018-11-26T16:01:43.875Z</time>
      </trkpt>
      <trkpt lat="43.75675" lon="7.19785">
        <ele>60.017</ele>
        <time>2018-11-26T16:01:46.585Z</time>
      </trkpt>
      <trkpt lat="43.75659" lon="7.19772">
        <ele>60.017</ele>
        <time>2018-11-26T16:01:48.614Z</time>
      </trkpt>
      <trkpt lat="43.75641" lon="7.1975">
        <ele>60.005</ele>
        <time>2018-11-26T16:01:50.733Z</time>
      </trkpt>
      <trkpt lat="43.75607" lon="7.19722">
        <ele>59.983</ele>
        <time>2018-11-26T16:01:53.234Z</time>
      </trkpt>
      <trkpt lat="43.7556" lon="7.19661">
        <ele>59.94</ele>
        <time>2018-11-26T16:01:56.653Z</time>
      </trkpt>
      <trkpt lat="43.75512" lon="7.19613">
        <ele>59.789</ele>
        <time>2018-11-26T16:01:59.594Z</time>
      </trkpt>
      <trkpt lat="43.75465" lon="7.19562">
        <ele>59.33</ele>
        <time>2018-11-26T16:02:02.422Z</time>
      </trkpt>
      <trkpt lat="43.7541" lon="7.19509">
        <ele>58.439</ele>
        <time>2018-11-26T16:02:05.496Z</time>
      </trkpt>
      <trkpt lat="43.75357" lon="7.19454">
        <ele>57.371</ele>
        <time>2018-11-26T16:02:08.521Z</time>
      </trkpt>
      <trkpt lat="43.75309" lon="7.194">
        <ele>56.564</ele>
        <time>2018-11-26T16:02:11.305Z</time>
      </trkpt>
      <trkpt lat="43.75254" lon="7.1935">
        <ele>56.167</ele>
        <time>2018-11-26T16:02:14.237Z</time>
      </trkpt>
      <trkpt lat="43.75199" lon="7.19301">
        <ele>55.986</ele>
        <time>2018-11-26T16:02:17.147Z</time>
      </trkpt>
      <trkpt lat="43.75146" lon="7.19247">
        <ele>55.713</ele>
        <time>2018-11-26T16:02:20.064Z</time>
      </trkpt>
      <trkpt lat="43.75097" lon="7.19192">
        <ele>55.152</ele>
        <time>2018-11-26T16:02:22.938Z</time>
      </trkpt>
      <trkpt lat="43.75047" lon="7.19138">
        <ele>54.371</ele>
        <time>2018-11-26T16:02:25.877Z</time>
      </trkpt>
      <trkpt lat="43.74995" lon="7.19085">
        <ele>53.595</ele>
        <time>2018-11-26T16:02:28.908Z</time>
      </trkpt>
      <trkpt lat="43.74942" lon="7.19034">
        <ele>53.025</ele>
        <time>2018-11-26T16:02:31.975Z</time>
      </trkpt>
      <trkpt lat="43.74897" lon="7.18987">
        <ele>52.819</ele>
        <time>2018-11-26T16:02:34.977Z</time>
      </trkpt>
      <trkpt lat="43.74861" lon="7.18945">
        <ele>53</ele>
        <time>2018-11-26T16:02:38.073Z</time>
      </trkpt>
      <trkpt lat="43.74833" lon="7.18922">
        <ele>53.386</ele>
        <time>2018-11-26T16:02:40.918Z</time>
      </trkpt>
      <trkpt lat="43.74807" lon="7.18898">
        <ele>53.738</ele>
        <time>2018-11-26T16:02:44.366Z</time>
      </trkpt>
      <trkpt lat="43.74792" lon="7.18889">
        <ele>53.917</ele>
        <time>2018-11-26T16:02:47.036Z</time>
      </trkpt>
      <trkpt lat="43.74782" lon="7.18878">
        <ele>53.765</ele>
        <time>2018-11-26T16:02:49.369Z</time>
      </trkpt>
      <trkpt lat="43.74767" lon="7.18858">
        <ele>53.198</ele>
        <time>2018-11-26T16:02:53.137Z</time>
      </trkpt>
      <trkpt lat="43.74752" lon="7.18877">
        <ele>52.466</ele>
        <time>2018-11-26T16:02:56.757Z</time>
      </trkpt>
      <trkpt lat="43.74755" lon="7.189">
        <ele>51.918</ele>
        <time>2018-11-26T16:02:59.269Z</time>
      </trkpt>
      <trkpt lat="43.74759" lon="7.18935">
        <ele>51.645</ele>
        <time>2018-11-26T16:03:02.122Z</time>
      </trkpt>
      <trkpt lat="43.74751" lon="7.18984">
        <ele>51.565</ele>
        <time>2018-11-26T16:03:05.324Z</time>
      </trkpt>
      <trkpt lat="43.74722" lon="7.1902">
        <ele>51.568</ele>
        <time>2018-11-26T16:03:08.442Z</time>
      </trkpt>
      <trkpt lat="43.74701" lon="7.19066">
        <ele>51.589</ele>
        <time>2018-11-26T16:03:11.683Z</time>
      </trkpt>
      <trkpt lat="43.74685" lon="7.19107">
        <ele>51.614</ele>
        <time>2018-11-26T16:03:14.757Z</time>
      </trkpt>
      <trkpt lat="43.74658" lon="7.19112">
        <ele>51.651</ele>
        <time>2018-11-26T16:03:17.410Z</time>
      </trkpt>
      <trkpt lat="43.74629" lon="7.19087">
        <ele>51.676</ele>
        <time>2018-11-26T16:03:20.663Z</time>
      </trkpt>
      <trkpt lat="43.74605" lon="7.19062">
        <ele>51.67</ele>
        <time>2018-11-26T16:03:23.358Z</time>
      </trkpt>
      <trkpt lat="43.74578" lon="7.19027">
        <ele>51.652</ele>
        <time>2018-11-26T16:03:26.405Z</time>
      </trkpt>
      <trkpt lat="43.74548" lon="7.18994">
        <ele>51.641</ele>
        <time>2018-11-26T16:03:29.349Z</time>
      </trkpt>
      <trkpt lat="43.74521" lon="7.18963">
        <ele>51.662</ele>
        <time>2018-11-26T16:03:32.286Z</time>
      </trkpt>
      <trkpt lat="43.74496" lon="7.18942">
        <ele>51.732</ele>
        <time>2018-11-26T16:03:35.159Z</time>
      </trkpt>
      <trkpt lat="43.74475" lon="7.1894">
        <ele>51.807</ele>
        <time>2018-11-26T16:03:37.950Z</time>
      </trkpt>
      <trkpt lat="43.74454" lon="7.18942">
        <ele>51.825</ele>
        <time>2018-11-26T16:03:41.096Z</time>
      </trkpt>
      <trkpt lat="43.74453" lon="7.18915">
        <ele>51.784</ele>
        <time>2018-11-26T16:03:43.609Z</time>
      </trkpt>
      <trkpt lat="43.74465" lon="7.18889">
        <ele>51.724</ele>
        <time>2018-11-26T16:03:45.762Z</time>
      </trkpt>
      <trkpt lat="43.74476" lon="7.18859">
        <ele>51.67</ele>
        <time>2018-11-26T16:03:47.759Z</time>
      </trkpt>
      <trkpt lat="43.74486" lon="7.18832">
        <ele>51.632</ele>
        <time>2018-11-26T16:03:49.742Z</time>
      </trkpt>
      <trkpt lat="43.74493" lon="7.1881">
        <ele>51.611</ele>
        <time>2018-11-26T16:03:51.519Z</time>
      </trkpt>
      <trkpt lat="43.74499" lon="7.18792">
        <ele>51.602</ele>
        <time>2018-11-26T16:03:53.292Z</time>
      </trkpt>
      <trkpt lat="43.74504" lon="7.1878">
        <ele>51.599</ele>
        <time>2018-11-26T16:03:54.941Z</time>
      </trkpt>
      <trkpt lat="43.74508" lon="7.18765">
        <ele>51.597</ele>
        <time>2018-11-26T16:03:57.316Z</time>
      </trkpt>
      <trkpt lat="43.74509" lon="7.18751">
        <ele>51.596</ele>
        <time>2018-11-26T16:04:00.063Z</time>
      </trkpt>
      <trkpt lat="43.74503" lon="7.1874">
        <ele>51.595</ele>
        <time>2018-11-26T16:04:03.999Z</time>
      </trkpt>
      <trkpt lat="43.74503" lon="7.1874">
        <ele>51.595</ele>
        <time>2018-11-26T16:04:05.999Z</time>
      </trkpt>
      <trkpt lat="43.74503" lon="7.1874">
        <ele>51.586</ele>
        <time>2018-11-26T16:04:06.099Z</time>
      </trkpt>
      <trkpt lat="43.74487" lon="7.18743">
        <ele>51.543</ele>
        <time>2018-11-26T16:04:14.009Z</time>
      </trkpt>
      <trkpt lat="43.74483" lon="7.18761">
        <ele>51.541</ele>
        <time>2018-11-26T16:04:16.682Z</time>
      </trkpt>
      <trkpt lat="43.74477" lon="7.18779">
        <ele>51.561</ele>
        <time>2018-11-26T16:04:18.702Z</time>
      </trkpt>
      <trkpt lat="43.74471" lon="7.18806">
        <ele>51.584</ele>
        <time>2018-11-26T16:04:21.350Z</time>
      </trkpt>
      <trkpt lat="43.74458" lon="7.18841">
        <ele>51.596</ele>
        <time>2018-11-26T16:04:24.771Z</time>
      </trkpt>
      <trkpt lat="43.74446" lon="7.18867">
        <ele>51.598</ele>
        <time>2018-11-26T16:04:27.610Z</time>
      </trkpt>
      <trkpt lat="43.74439" lon="7.18893">
        <ele>51.597</ele>
        <time>2018-11-26T16:04:30.513Z</time>
      </trkpt>
      <trkpt lat="43.74423" lon="7.18888">
        <ele>51.593</ele>
        <time>2018-11-26T16:04:33.204Z</time>
      </trkpt>
      <trkpt lat="43.74404" lon="7.1888">
        <ele>51.585</ele>
        <time>2018-11-26T16:04:36.372Z</time>
      </trkpt>
      <trkpt lat="43.74388" lon="7.18871">
        <ele>51.493</ele>
        <time>2018-11-26T16:04:39.099Z</time>
      </trkpt>
      <trkpt lat="43.74374" lon="7.18865">
        <ele>51.062</ele>
        <time>2018-11-26T16:04:41.710Z</time>
      </trkpt>
      <trkpt lat="43.74365" lon="7.18858">
        <ele>50.135</ele>
        <time>2018-11-26T16:04:43.999Z</time>
      </trkpt>
      <trkpt lat="43.74365" lon="7.18858">
        <ele>49.06</ele>
        <time>2018-11-26T16:04:49.999Z</time>
      </trkpt>
      <trkpt lat="43.74365" lon="7.18858">
        <ele>48.454</ele>
        <time>2018-11-26T16:04:50.099Z</time>
      </trkpt>
      <trkpt lat="43.74355" lon="7.18848">
        <ele>48.479</ele>
        <time>2018-11-26T16:05:00.046Z</time>
      </trkpt>
      <trkpt lat="43.74344" lon="7.18851">
        <ele>48.549</ele>
        <time>2018-11-26T16:05:05.767Z</time>
      </trkpt>
      <trkpt lat="43.74335" lon="7.18844">
        <ele>48.19</ele>
        <time>2018-11-26T16:05:13.233Z</time>
      </trkpt>
      <trkpt lat="43.74328" lon="7.18837">
        <ele>47.68</ele>
        <time>2018-11-26T16:05:20.280Z</time>
      </trkpt>
      <trkpt lat="43.74319" lon="7.18842">
        <ele>47.394</ele>
        <time>2018-11-26T16:05:48.225Z</time>
      </trkpt>
      <trkpt lat="43.7431" lon="7.18833">
        <ele>47.324</ele>
        <time>2018-11-26T16:06:22.414Z</time>
      </trkpt>
      <trkpt lat="43.74308" lon="7.18819">
        <ele>47.353</ele>
        <time>2018-11-26T16:06:41.997Z</time>
      </trkpt>
      <trkpt lat="43.74308" lon="7.18819">
        <ele>47.394</ele>
        <time>2018-11-26T16:06:42.997Z</time>
      </trkpt>
    </trkseg>
  </trk>
</gpx>